GFSCGP_prec_cloud_003.txt.gz
Cloud_Cover
0 0 0 0 0 0 0 0 0 0 0 0 0 0 0 5 5 5 6 100 100 100 100 100 100 100 100 100 100 100 58 61 100 100 100 98 78 68 5 5 27 100 86 15
0 0 0 0 0 0 0 0 0 0 0 0 0 0 0 0 23 92 98 93 40 100 100 100 94 100 100 26 86 93 88 5 5 6 11 30 5 19 98 100 39 5 11 30
0 0 0 0 0 0 0 0 0 0 0 0 0 1 0 1 3 2 2 9 96 100 70 100 100 88 82 84 94 60 5 5 5 5 26 20 5 56 100 92 6 82 88 91
0 0 0 0 0 0 0 0 0 0 3 0 0 0 6 19 5 2 36 52 92 100 100 100 100 68 26 57 86 98 58 5 5 5 5 5 5 5 6 87 72 100 100 100
0 0 0 0 0 0 4 0 0 0 0 5 0 0 0 0 0 4 100 100 99 100 100 100 100 100 78 52 74 27 45 100 100 98 19 6 5 6 88 95 79 92 98 100
0 0 0 0 0 5 0 1 0 2 1 1 0 2 0 0 3 5 5 5 5 21 55 100 100 85 100 100 100 100 79 30 11 52 79 93 100 100 98 99 85 64 41 55
0 0 0 3 0 2 0 5 2 0 2 10 3 40 16 0 32 97 89 44 5 5 12 73 32 99 100 100 100 67 46 88 66 5 5 5 72 97 100 100 100 100 100 100
2 5 0 0 0 0 0 0 1 3 22 100 78 65 43 2 65 21 52 32 5 9 9 51 92 44 96 27 6 5 97 64 7 15 5 5 5 5 64 100 100 100 100 100
0 3 5 0 5 3 4 2 0 5 3 5 45 68 6 5 8 99 5 14 37 6 44 94 100 98 77 14 5 96 99 32 5 5 6 12 48 85 99 80 100 100 100 100
6 5 6 5 5 5 5 5 4 5 23 64 9 82 5 5 0 93 90 38 5 56 34 50 63 31 5 5 29 99 89 5 4 5 35 100 100 100 100 94 100 100 100 100
5 5 5 6 7 5 5 5 93 100 98 99 98 100 9 44 53 39 85 91 10 72 86 71 62 76 51 65 100 74 97 32 5 96 92 100 100 100 100 100 100 100 100 100
7 6 58 5 5 5 5 6 48 100 61 18 81 100 99 7 95 99 99 80 100 97 97 93 38 74 92 44 61 47 66 100 100 91 98 100 100 100 100 100 100 100 100 100
5 5 65 5 5 46 34 6 5 4 5 6 90 79 35 91 56 100 87 85 100 91 97 100 100 99 52 5 68 100 100 100 95 100 91 88 85 98 96 100 92 100 100 100
5 6 16 40 48 42 100 85 5 4 22 13 45 21 5 20 100 80 28 97 57 69 79 100 100 93 97 100 100 99 100 100 100 96 52 99 100 89 67 71 12 83 98 98
70 83 55 6 44 88 100 54 77 74 91 6 13 7 17 72 100 96 94 99 67 99 97 100 100 100 100 90 100 100 100 97 100 77 100 29 6 9 5 5 21 100 98 92
82 99 54 100 100 30 99 100 31 5 4 5 5 34 100 95 99 36 100 100 100 100 100 95 6 67 65 92 92 66 82 5 44 100 100 100 100 100 100 100 100 100 100 88
6 22 64 90 95 99 100 100 100 100 100 23 60 42 66 39 72 62 94 89 70 43 6 15 85 66 10 87 98 14 5 5 90 100 100 100 100 100 100 100 100 100 100 100
8 38 63 62 98 100 6 0 1 5 5 49 5 5 92 10 81 100 100 100 84 6 33 36 34 93 85 34 11 5 7 76 100 100 95 79 100 100 100 100 100 100 100 100
5 96 80 92 99 36 5 4 5 5 58 5 22 5 18 55 17 7 28 37 98 60 45 7 5 32 53 26 5 5 66 78 94 48 47 80 81 100 100 100 100 100 74 83
100 30 42 98 85 93 61 5 5 5 48 93 98 66 96 100 100 7 100 22 5 55 68 31 6 5 9 100 32 98 98 86 66 100 100 100 100 100 91 100 100 32 37 41
82 100 96 100 68 68 14 5 5 5 20 11 77 78 100 100 100 100 95 80 5 9 100 100 54 38 26 43 93 100 58 99 100 100 100 100 100 100 100 99 53 49 55 5
19 75 83 90 98 62 9 5 35 5 6 98 63 73 99 83 89 100 100 98 28 66 11 84 25 11 100 63 100 70 100 100 100 100 100 100 100 100 100 96 68 33 5 5
72 100 47 12 5 4 17 94 10 99 59 6 77 50 99 100 100 100 100 73 36 94 72 5 23 97 97 100 100 100 100 100 100 100 100 100 100 100 100 43 5 5 5 5
100 100 99 37 6 5 81 27 93 17 11 50 97 100 100 100 100 100 100 100 100 100 68 98 68 58 80 96 96 100 100 100 100 100 100 100 100 97 40 26 5 5 5 43
100 100 85 29 25 5 58 17 15 5 64 100 100 100 89 100 100 100 100 100 100 100 100 100 44 65 62 88 84 85 91 72 100 100 100 100 90 9 6 5 5 5 5 20
100 100 100 33 5 26 5 58 100 89 100 100 100 100 100 82 100 100 100 100 100 100 100 100 91 66 91 80 53 91 100 100 100 100 79 77 5 5 4 5 5 5 23 98

GFSCGP_prec_cloud_006.txt.gz
Cloud_Cover
0 0 0 0 0 0 0 0 0 0 0 0 0 0 0 4 28 14 100 100 41 98 100 100 100 100 86 13 6 8 5 5 5 5 5 5 5 5 5 5 5 5 5 6
0 0 0 0 0 0 0 0 0 0 0 0 0 0 0 0 4 2 0 0 0 35 38 0 20 71 9 16 18 5 2 5 5 62 11 13 60 6 8 7 5 20 12 44
0 0 0 0 0 0 0 0 0 0 0 0 0 0 0 0 0 0 0 0 4 5 100 3 5 5 5 14 48 28 5 5 5 88 64 64 19 29 18 41 5 5 35 44
0 0 0 0 0 0 0 0 0 0 0 0 0 0 0 0 0 4 8 5 21 44 100 100 69 28 5 5 5 5 5 59 20 7 35 5 5 5 5 5 5 2 4 4
0 0 0 0 0 0 0 0 0 0 0 0 0 0 0 5 5 5 2 66 100 100 100 100 82 59 5 43 5 6 6 52 100 100 100 100 100 100 100 41 5 5 5 5
0 0 0 0 0 0 0 0 0 1 0 0 0 0 3 2 0 5 5 5 5 5 13 57 13 23 19 7 80 35 55 100 98 100 98 100 84 61 9 14 5 19 32 36
0 0 0 0 0 0 0 0 0 0 5 1 5 0 0 4 38 8 32 76 100 86 100 52 5 5 36 76 44 97 100 100 66 85 100 100 19 5 5 5 5 7 60 99
0 0 0 0 0 0 0 2 4 4 5 1 0 0 0 0 2 32 100 100 98 66 74 5 5 5 5 9 48 60 7 46 7 42 83 24 5 5 5 5 12 17 21 94
0 0 0 0 0 3 5 5 3 1 5 5 4 2 0 3 5 5 5 20 77 6 5 47 48 5 5 5 59 96 54 5 5 6 5 5 5 6 56 51 40 60 100 100
0 0 0 0 1 5 5 6 5 5 5 74 51 100 5 4 5 54 5 5 5 5 10 10 13 5 8 21 20 5 56 46 7 5 4 6 6 5 5 5 5 12 93 100
1 0 5 5 5 5 5 5 40 57 13 88 98 100 7 5 5 56 88 21 14 51 92 16 21 7 41 34 56 58 48 31 52 87 93 28 5 5 5 5 5 62 99 100
5 5 12 5 6 6 10 90 41 93 79 53 85 90 5 20 7 18 5 5 52 8 5 5 5 8 61 42 5 37 98 89 36 17 5 5 5 5 21 5 50 100 100 100
5 5 5 5 11 7 68 12 5 5 5 16 84 8 0 5 53 5 5 10 5 8 9 54 100 99 38 95 99 58 5 8 5 0 5 4 5 78 84 23 99 100 100 100
5 5 44 88 5 5 62 55 31 5 54 50 19 5 5 74 8 5 53 94 70 64 96 100 41 84 100 30 5 7 9 4 5 4 5 5 15 95 95 90 52 100 100 100
5 5 5 5 5 5 76 5 5 5 35 26 5 5 26 67 63 71 93 61 100 100 66 44 58 42 53 5 5 2 3 5 1 0 4 6 65 100 95 97 82 100 100 100
70 96 73 100 10 16 76 5 6 26 10 9 55 89 79 100 93 100 100 99 37 55 100 100 91 6 5 37 15 4 5 5 0 88 100 100 100 100 100 100 100 100 100 100
4 7 32 44 38 27 100 13 24 6 88 59 84 67 8 28 83 100 46 5 80 98 96 5 5 5 5 5 5 5 5 5 5 90 100 100 97 100 100 100 100 100 100 100
22 37 58 49 91 84 100 4 5 5 5 3 4 5 5 15 29 34 100 96 100 70 6 13 47 47 9 40 5 5 5 5 5 38 57 59 94 100 100 100 100 100 100 100
5 92 81 95 94 18 100 5 5 5 9 5 5 5 5 5 5 5 6 98 100 100 91 93 100 100 100 90 39 79 22 80 88 58 43 30 53 96 90 99 94 88 88 100
92 16 5 91 88 96 5 5 4 5 5 5 5 5 5 7 77 97 35 100 100 100 100 100 88 98 96 96 98 100 100 100 100 98 78 86 100 99 97 100 100 100 98 40
98 97 73 100 84 8 6 5 10 30 13 69 5 5 5 59 97 100 100 100 100 100 100 100 99 99 96 87 100 100 100 100 100 98 100 100 100 100 100 100 100 97 63 33
37 80 58 68 97 67 55 100 100 93 76 86 5 9 99 100 100 100 100 100 100 70 80 64 27 26 31 70 100 99 100 100 90 100 100 100 100 100 100 100 100 99 42 6
88 99 73 13 8 5 100 80 67 96 28 5 55 100 100 100 100 100 100 83 97 96 97 98 100 93 100 100 96 11 77 5 5 79 99 100 100 100 100 100 97 23 16 28
100 100 100 79 49 9 38 49 100 100 100 100 100 100 100 100 98 98 100 100 100 100 100 100 100 100 92 99 100 100 100 90 84 74 95 100 100 100 99 42 5 5 5 22
100 100 90 27 19 8 68 100 100 100 100 100 100 100 100 98 91 81 100 100 100 100 100 96 100 100 100 100 100 100 100 100 100 96 100 100 46 5 5 5 5 5 5 28
100 100 98 20 65 82 97 100 100 100 100 100 100 100 100 100 99 65 96 100 98 85 98 90 96 61 100 97 100 100 100 100 100 100 100 63 6 5 12 54 5 5 5 5

GFSCGP_prec_cloud_009.txt.gz
Cloud_Cover
0 0 0 0 0 0 0 0 0 0 0 0 0 0 0 0 0 0 2 87 34 5 19 16 1 1 1 0 0 0 0 0 5 5 5 5 5 3 5 6 25 48 28 5
0 0 0 0 0 0 0 0 0 0 0 0 0 0 0 0 1 5 5 3 4 5 2 4 2 0 1 5 5 1 0 5 5 5 4 0 0 0 1 0 0 1 3 4
0 0 0 0 0 0 0 0 0 0 0 0 0 0 0 0 0 0 5 2 0 0 0 4 2 5 0 1 0 0 0 0 0 1 5 9 2 3 3 36 51 62 34 4
0 0 0 0 0 0 0 0 0 0 0 0 0 0 3 1 0 0 3 1 0 0 3 4 5 5 5 5 5 11 100 100 100 100 100 100 100 100 100 100 100 100 100 100
0 0 0 0 0 0 0 0 0 0 0 0 0 0 5 5 5 3 0 3 8 22 82 98 6 5 27 5 30 55 44 62 58 6 85 89 98 100 100 100 100 100 100 100
0 0 0 0 0 0 0 0 0 0 0 0 0 0 0 2 5 66 7 58 99 100 95 6 62 90 34 11 6 5 92 67 16 5 5 11 60 34 5 7 3 2 1 0
0 0 0 0 0 0 0 0 3 0 3 0 2 0 0 0 5 43 93 100 100 87 18 60 77 31 5 5 5 5 5 5 5 5 6 74 5 5 0 1 1 0 0 0
0 0 0 0 0 0 0 0 4 0 16 15 5 4 0 0 5 90 100 22 6 49 29 56 18 5 5 5 3 5 5 14 5 5 2 1 5 2 3 0 0 0 0 0
0 0 0 0 0 0 0 0 0 1 31 73 100 28 0 0 3 36 5 5 5 5 5 5 5 5 5 4 0 5 4 5 3 0 0 0 3 5 0 0 0 0 0 0
0 0 0 0 0 0 0 0 2 5 24 80 62 82 10 0 3 3 2 3 3 4 5 5 5 5 5 4 4 5 5 6 4 5 4 3 3 0 0 0 0 2 4 8
0 0 4 4 5 5 5 3 5 15 5 9 46 88 1 5 2 11 2 1 4 5 5 5 41 68 11 42 80 5 5 14 5 5 5 2 0 0 0 2 5 5 36 92
0 2 5 5 12 90 10 5 5 83 20 5 15 32 5 3 5 3 5 5 5 5 6 7 77 74 100 79 44 91 80 94 13 5 5 14 1 5 5 5 60 90 100 100
1 5 5 5 5 9 6 0 5 5 10 77 79 34 5 5 5 19 6 3 3 5 5 5 46 58 90 65 99 70 50 34 10 73 39 1 0 0 5 50 100 97 100 100
0 1 5 5 1 3 5 1 1 5 80 55 56 73 5 6 5 5 5 21 72 56 66 99 100 95 100 97 100 98 6 55 32 5 47 37 5 5 65 100 100 99 100 100
5 5 44 5 5 18 8 5 68 5 5 96 7 5 5 6 42 53 73 58 98 98 20 53 92 18 35 48 20 86 48 11 99 37 45 24 63 83 100 77 100 100 100 100
5 5 5 48 5 5 21 5 5 5 5 6 7 25 9 60 12 40 64 100 89 35 5 46 100 52 6 58 91 46 36 6 5 23 18 93 100 100 100 100 100 100 100 100
1 4 55 21 81 69 100 6 6 63 33 93 65 28 5 5 5 5 5 5 5 5 9 91 92 99 100 100 99 100 90 5 5 7 16 49 87 81 100 100 100 100 100 100
40 36 56 32 92 68 100 9 48 71 74 5 5 5 5 5 5 5 5 5 23 42 99 100 100 94 100 97 100 95 98 100 85 77 99 100 100 100 100 100 100 100 100 100
5 45 90 96 92 47 93 5 5 5 94 5 5 5 5 51 12 5 18 95 86 74 53 67 100 100 99 100 100 39 34 72 99 80 96 100 100 100 100 100 100 100 100 100
8 7 18 90 98 98 5 5 5 5 7 78 100 92 69 88 98 19 94 100 54 100 87 97 100 99 100 100 100 100 74 98 100 87 84 85 100 100 100 100 100 100 100 100
100 100 100 100 100 16 11 5 5 29 88 94 92 64 80 100 100 100 100 100 100 100 100 99 93 98 100 100 97 76 32 50 16 5 41 37 85 98 55 100 100 99 100 96
66 96 100 91 100 91 22 67 81 87 100 94 5 7 81 100 100 100 100 100 100 100 100 100 78 73 94 97 100 40 5 5 5 46 72 92 91 95 99 92 74 54 12 5
91 100 80 96 32 76 93 100 78 62 58 5 44 100 100 100 100 100 100 100 100 100 100 97 100 95 100 85 100 100 88 80 66 84 75 96 90 67 13 5 5 5 5 5
100 100 92 99 72 100 16 15 100 100 100 100 100 100 100 100 100 96 100 100 100 80 100 100 11 21 68 100 100 97 88 56 5 5 53 86 76 5 5 5 5 5 5 22
100 100 100 48 36 5 97 100 100 100 100 100 100 100 100 100 100 100 100 100 100 100 100 100 100 100 11 5 5 5 13 11 8 41 62 8 5 5 5 5 5 5 5 58
100 97 88 98 11 99 100 100 100 100 99 100 100 100 100 100 52 45 77 100 97 99 33 34 52 6 5 5 5 5 5 5 33 6 5 5 5 19 73 27 5 18 5 5

GFSCGP_prec_cloud_012.txt.gz
Cloud_Cover
0 0 0 0 0 0 0 0 0 0 0 0 0 0 0 0 0 0 0 0 0 0 0 0 0 0 0 0 0 0 5 5 5 5 2 5 5 5 1 0 0 2 0 0
0 0 0 0 0 0 0 0 0 0 0 0 0 0 0 0 0 0 0 0 0 0 0 38 5 5 0 0 0 4 5 5 5 4 0 1 9 23 19 6 51 86 53 62
0 0 0 0 0 0 0 0 0 0 0 0 0 0 0 0 0 0 0 4 5 3 4 5 5 5 0 0 3 5 5 5 5 25 98 100 97 28 5 45 88 65 23 7
0 0 0 0 0 0 0 0 0 0 0 0 0 0 0 0 3 5 5 5 19 10 5 0 1 0 0 4 4 5 8 65 95 66 26 6 5 5 5 5 4 0 0 0
0 0 0 0 0 0 0 0 0 0 0 0 0 0 0 1 4 5 17 24 7 5 0 5 5 2 5 5 5 43 56 5 5 1 5 6 5 5 5 5 1 0 0 0
0 0 0 0 0 0 0 0 0 0 0 0 0 0 0 0 0 5 7 5 5 0 0 5 5 23 5 5 8 6 5 14 5 16 81 76 12 5 0 0 0 0 0 0
0 0 0 0 0 0 0 0 1 0 2 0 0 0 0 0 2 4 5 2 2 5 35 6 5 7 5 5 5 5 11 39 91 100 98 67 18 5 3 1 0 0 0 0
0 0 0 0 0 0 0 0 4 3 5 4 0 0 0 0 4 0 5 5 5 5 50 63 75 7 5 47 78 88 80 99 100 99 34 5 5 11 58 41 4 5 4 0
0 0 0 0 0 0 0 0 0 0 37 5 3 0 5 0 0 0 0 5 4 1 4 5 9 76 100 100 100 100 100 100 100 94 57 60 100 96 100 99 36 5 4 4
0 0 0 0 0 3 5 1 3 0 20 5 4 5 0 0 2 1 5 1 2 5 5 5 40 64 51 50 92 100 91 78 74 32 82 100 97 100 5 3 5 5 5 53
0 0 0 0 0 3 4 5 5 4 5 14 61 51 5 4 16 56 5 5 6 74 34 5 5 52 5 16 99 86 26 32 48 100 100 98 95 58 0 0 3 6 15 97
0 0 0 0 0 0 0 5 5 3 2 5 44 74 5 5 48 28 83 90 57 10 21 9 5 5 42 5 5 36 45 71 43 5 33 100 100 99 76 20 100 100 99 89
0 0 3 1 1 4 1 0 5 5 23 86 83 96 45 100 99 76 20 5 5 5 8 66 70 90 100 56 24 49 64 55 60 86 95 100 100 48 100 100 80 87 83 80
0 0 0 1 0 5 5 4 6 27 94 100 96 100 10 14 5 9 18 5 22 70 43 11 10 5 21 94 88 83 100 100 94 100 100 84 96 100 100 95 55 100 100 98
0 3 5 5 5 5 8 6 9 41 22 93 48 58 16 11 6 5 5 15 12 5 5 5 5 13 27 70 100 100 99 100 94 100 99 99 100 100 100 64 56 62 98 99
2 5 5 5 5 5 24 5 5 5 5 5 5 5 5 11 5 14 16 12 5 5 21 80 93 100 100 100 99 100 100 100 100 95 100 100 100 100 100 89 87 78 100 100
5 5 59 58 13 41 38 5 5 5 5 5 5 5 5 5 17 5 5 5 5 34 12 97 100 100 94 69 74 67 96 100 100 98 98 100 92 96 100 100 79 77 95 95
86 21 59 60 48 31 100 5 5 5 27 5 5 5 5 14 12 6 9 10 34 100 100 100 100 99 100 100 100 99 98 100 100 86 89 45 41 100 100 93 94 100 96 79
5 52 75 95 98 81 98 18 5 5 54 53 6 5 5 54 64 94 36 50 83 100 100 100 100 97 98 98 75 86 96 100 34 5 5 5 6 6 60 63 68 87 93 98
6 6 7 96 100 100 93 5 5 26 9 11 42 96 99 63 53 49 100 100 100 100 100 100 96 98 100 99 100 100 92 90 11 58 9 80 5 5 5 5 9 54 56 61
92 97 98 100 100 55 16 6 74 99 100 91 100 91 60 77 100 100 100 100 100 100 97 87 100 100 100 94 100 100 69 87 69 73 97 100 22 5 5 5 5 5 5 5
5 25 33 84 100 63 5 74 93 84 99 72 67 95 92 100 100 100 100 100 97 76 90 100 100 100 95 100 100 82 100 100 62 52 96 100 65 5 5 5 5 5 5 5
58 79 53 91 56 98 72 100 100 71 24 6 73 100 100 100 100 100 100 100 100 100 100 100 100 100 97 8 14 5 12 85 78 66 94 80 10 5 5 5 5 5 5 13
100 100 92 55 98 92 96 83 64 66 85 84 100 100 100 100 100 100 100 100 100 100 97 100 100 100 61 5 8 5 6 51 10 5 12 5 5 5 5 5 5 5 5 51
100 96 56 100 57 6 25 90 100 98 100 100 100 100 100 95 60 36 16 50 88 100 100 100 91 35 6 88 99 100 67 6 5 5 5 5 5 5 5 5 61 43 48 64
95 99 93 16 85 83 100 100 99 100 100 100 99 94 84 70 46 74 97 100 100 100 98 64 5 10 99 100 100 96 62 63 5 5 5 7 6 45 81 5 5 20 13 57

GFSCGP_prec_cloud_015.txt.gz
Cloud_Cover
0 0 0 0 0 0 0 0 0 0 0 0 0 0 0 0 0 0 0 0 0 0 0 0 0 0 0 0 0 0 5 5 5 5 5 5 5 1 0 0 0 0 5 5
0 0 0 0 0 0 0 0 0 0 0 0 0 0 0 0 0 0 0 0 0 0 0 0 0 0 0 5 0 0 5 5 5 5 5 4 5 5 5 16 58 8 5 5
0 0 0 0 0 0 0 0 0 0 0 0 0 0 0 0 0 0 0 0 0 0 0 0 0 0 0 2 0 0 0 1 3 0 5 4 13 43 36 9 5 5 5 5
0 0 0 0 0 0 0 0 0 0 0 0 0 0 0 0 0 0 0 0 0 0 0 0 0 0 0 0 0 5 5 5 5 11 9 5 21 32 5 5 5 5 5 5
0 0 0 0 0 0 0 0 0 0 0 0 0 0 0 0 0 4 5 5 5 5 5 5 5 0 1 5 57 91 100 97 10 5 5 6 72 5 12 18 5 5 5 5
2 4 0 0 0 0 0 0 0 0 0 0 0 0 0 0 3 6 5 5 5 5 5 5 31 59 60 97 97 21 73 18 77 87 86 82 27 74 70 84 76 5 17 5
0 0 2 0 0 0 0 0 0 0 0 0 0 0 0 0 3 4 0 4 5 5 5 6 91 100 100 68 35 87 97 100 86 87 85 100 100 41 5 41 24 7 7 21
0 0 0 0 0 0 0 0 0 3 5 3 4 0 0 0 0 3 0 5 5 5 7 57 6 24 8 79 100 41 27 62 72 100 100 100 99 87 88 12 95 97 94 61
0 0 0 0 0 0 0 0 0 2 5 4 0 0 0 0 0 0 0 1 4 5 5 5 5 5 58 80 91 100 100 100 72 5 5 87 89 39 64 91 100 100 95 22
0 0 0 0 0 0 0 0 0 0 3 0 0 0 0 2 3 5 0 5 10 5 5 23 39 66 93 99 100 78 55 5 5 5 24 90 95 88 100 100 68 38 72 97
0 0 0 0 0 0 3 4 1 0 5 6 73 34 3 5 5 4 5 5 9 38 76 100 49 51 66 48 82 16 5 5 5 95 100 100 95 88 96 46 65 32 24 65
0 0 0 0 0 0 4 5 0 5 5 4 18 14 30 5 6 18 50 56 96 100 99 25 17 56 5 5 5 5 5 6 94 100 100 100 100 99 100 100 91 71 96 35
0 0 0 0 0 0 0 0 5 5 14 5 47 92 8 18 76 98 87 100 100 46 7 55 66 5 5 5 44 93 93 84 100 100 100 100 100 84 66 96 99 93 83 100
2 0 0 0 0 5 0 0 4 5 50 38 17 99 42 100 61 5 25 90 25 12 40 6 29 49 95 100 100 100 100 100 100 100 100 100 96 27 89 100 100 97 99 100
0 0 0 5 5 5 5 2 3 5 5 33 98 98 30 42 6 56 14 5 53 35 37 31 31 74 100 99 92 96 100 100 100 88 64 98 97 100 100 98 98 100 100 100
5 5 5 5 5 5 5 2 5 5 3 5 5 19 5 5 6 5 15 83 45 17 60 93 100 100 87 79 100 100 100 100 100 100 100 100 100 98 22 5 5 55 61 100
5 5 48 64 27 5 5 5 3 5 5 5 5 7 5 5 9 26 54 24 52 100 99 90 60 65 100 100 100 100 96 82 100 100 100 88 38 5 63 49 88 5 5 5
97 22 84 75 36 62 10 0 2 5 5 5 63 34 7 5 5 18 28 96 92 92 99 100 87 98 100 100 64 99 18 21 100 71 8 47 41 22 5 5 6 5 5 5
5 72 54 89 89 6 12 2 5 5 26 6 46 43 14 13 90 100 94 95 100 99 93 100 100 100 100 83 54 59 58 23 8 17 40 65 17 5 23 5 5 5 5 5
8 5 5 90 100 79 5 2 5 7 33 43 53 45 73 99 97 100 100 100 100 100 100 100 100 100 90 82 32 7 20 69 100 100 100 100 80 63 5 5 5 5 5 5
96 96 100 100 100 12 5 6 95 100 86 99 100 80 96 98 100 100 100 100 100 100 100 97 98 98 100 100 100 31 12 29 91 97 98 97 77 56 5 5 5 5 5 5
12 77 79 95 97 57 26 83 96 94 66 100 58 30 65 100 100 100 100 100 100 82 75 100 100 100 100 100 57 62 10 5 5 5 5 61 32 5 5 5 5 5 5 8
99 23 99 100 32 5 84 5 92 86 100 100 100 100 100 100 99 100 100 100 98 100 100 100 100 100 100 100 87 5 5 5 5 5 5 5 5 5 5 5 6 50 69 94
100 70 88 95 53 33 83 61 64 100 100 100 100 100 58 100 91 94 50 86 100 100 100 100 100 100 100 64 13 81 58 89 60 65 39 5 5 5 5 5 66 88 99 99
95 84 63 51 28 72 97 100 100 100 99 96 99 100 19 38 6 5 70 100 100 96 92 100 100 77 8 78 71 100 100 100 100 57 5 5 54 5 19 5 5 88 98 97
100 59 86 88 100 100 86 100 100 100 78 30 96 78 64 84 5 35 98 100 100 100 86 60 14 14 83 98 100 100 100 100 76 71 5 6 8 64 67 9 71 20 10 6

GFSCGP_prec_cloud_018.txt.gz
Cloud_Cover
0 0 0 0 0 0 0 0 0 0 0 0 0 0 0 0 0 0 0 0 0 0 0 0 0 0 0 0 0 4 5 5 5 5 5 5 5 5 3 5 5 5 5 5
0 0 0 0 0 0 0 0 0 0 0 0 0 0 0 0 0 0 0 0 0 0 0 0 0 0 0 0 4 5 5 9 26 5 5 5 5 5 5 7 14 5 5 6
0 0 0 0 0 0 0 0 0 0 0 0 0 0 0 0 0 0 0 0 0 0 0 0 0 0 0 0 5 41 64 32 5 5 5 8 81 92 89 88 83 28 21 62
0 0 0 0 0 0 0 0 0 0 0 0 0 0 0 0 0 0 0 0 0 0 5 2 0 0 4 5 5 5 5 10 33 5 5 56 95 79 21 6 5 11 75 24
0 0 0 0 0 0 0 0 0 0 0 0 0 0 0 0 0 0 1 4 0 4 1 1 5 5 5 5 5 5 5 32 70 89 94 29 5 5 6 75 100 100 5 5
0 0 0 0 0 0 0 0 0 0 0 0 0 0 4 0 0 1 5 0 0 1 4 5 5 6 30 35 66 69 29 76 78 98 16 29 36 79 38 58 7 5 5 28
0 0 0 0 0 0 0 0 0 2 1 2 0 0 0 0 0 5 4 0 0 5 5 5 6 19 5 13 20 62 71 76 96 40 48 60 89 57 15 6 5 5 72 100
0 0 0 0 0 0 0 0 0 0 0 0 0 0 2 0 0 1 0 0 3 5 5 5 5 5 24 36 12 12 90 56 8 39 60 18 5 42 69 23 97 100 100 100
0 0 0 0 0 0 0 0 0 0 2 4 2 1 0 0 0 2 5 5 4 5 1 5 5 5 5 22 22 5 6 29 6 9 5 9 41 96 100 100 100 100 93 75
0 0 0 0 0 0 0 0 3 2 22 4 0 0 0 1 3 5 5 4 0 0 4 5 5 7 13 5 5 6 5 11 40 16 5 9 6 25 97 100 100 100 58 90
0 0 0 0 0 0 4 4 0 0 1 1 2 0 0 2 5 8 1 0 1 5 6 39 92 95 43 47 44 28 15 36 32 6 8 46 100 100 100 100 85 94 91 82
0 0 0 0 0 0 0 0 0 0 4 4 4 4 5 5 5 1 5 4 6 69 100 99 99 85 28 44 13 5 5 5 24 79 100 100 100 100 100 64 97 24 74 80
0 0 0 0 0 0 4 0 0 5 5 5 79 44 78 5 6 17 5 26 98 100 96 44 11 32 38 40 28 5 6 65 100 100 100 99 100 99 78 80 90 100 99 97
0 0 0 0 2 0 0 0 5 5 9 9 6 38 5 10 5 10 83 100 88 62 95 84 49 42 84 32 84 92 98 100 100 83 75 98 100 96 79 100 100 86 80 94
5 1 5 5 5 5 5 3 2 4 4 51 5 5 5 5 30 64 44 74 98 42 47 8 46 70 80 99 100 100 100 100 95 100 100 98 9 14 25 72 77 90 51 20
0 5 3 4 5 5 0 0 4 2 3 5 5 5 5 5 5 28 66 100 54 73 36 98 47 99 100 100 100 100 100 100 100 93 18 30 52 91 95 98 85 15 5 5
5 3 5 44 5 5 16 5 5 4 5 5 5 73 5 6 42 85 94 8 66 99 100 49 99 100 100 100 100 100 100 33 5 13 82 84 85 61 18 5 70 47 5 5
24 10 70 46 69 30 3 5 6 8 5 5 5 5 5 7 89 92 84 64 100 100 100 100 100 100 98 100 100 74 57 23 11 79 100 100 81 64 78 96 97 5 5 5
4 10 63 94 12 5 5 5 5 5 5 5 5 5 11 27 67 90 93 100 100 100 100 100 97 100 89 82 74 10 5 48 96 100 90 100 100 89 92 25 5 5 5 5
6 0 27 89 45 84 5 5 5 40 50 39 72 50 97 100 98 100 100 100 100 92 100 97 76 58 78 5 5 5 11 21 7 5 34 26 5 5 5 5 5 5 6 37
88 98 96 98 100 29 5 5 13 63 74 6 51 76 100 100 100 100 96 94 98 42 5 5 5 5 5 5 10 30 5 5 83 5 10 15 19 10 5 5 5 36 97 100
31 58 77 92 100 75 44 100 98 100 5 74 97 100 100 100 81 84 96 86 49 5 5 5 5 5 5 5 30 7 5 31 98 100 100 54 94 5 5 5 32 100 100 100
62 5 23 11 8 71 100 100 90 12 71 100 100 100 100 78 87 9 6 5 12 6 5 5 5 5 5 5 70 86 72 97 100 100 100 100 100 31 55 100 95 100 100 100
66 5 5 20 43 95 98 79 27 44 56 100 100 93 82 41 49 5 5 5 5 5 5 5 5 5 5 5 85 100 100 99 100 100 100 100 100 98 77 99 100 99 99 100
57 64 9 12 24 66 99 85 98 100 100 100 96 57 21 5 5 5 5 5 4 4 5 5 5 5 5 5 15 100 78 87 84 100 100 100 100 93 90 95 97 99 100 94
100 65 100 98 89 98 100 100 100 95 70 79 42 85 35 5 5 5 3 5 5 2 5 5 5 5 5 5 54 100 100 100 100 100 100 100 85 100 100 100 97 100 71 36

GFSCGP_prec_cloud_021.txt.gz
Cloud_Cover
0 1 4 0 0 0 0 0 0 0 0 0 0 0 0 0 0 0 0 0 0 0 1 0 0 0 0 0 0 0 5 5 30 75 77 86 89 92 87 27 10 10 5 5
0 0 0 0 0 0 0 0 0 0 0 0 0 0 0 0 0 0 0 0 0 0 0 0 0 0 0 0 0 4 5 21 76 100 100 100 100 87 91 93 91 71 9 46
0 0 0 0 0 0 0 0 0 0 0 0 0 0 0 0 0 0 0 0 0 0 0 0 0 0 2 5 4 5 5 64 100 100 83 94 95 83 81 100 30 30 89 99
0 0 0 0 0 0 0 0 0 0 0 10 0 77 0 0 0 0 0 0 0 0 0 0 0 5 4 5 5 5 47 17 9 5 68 98 93 89 97 24 58 31 97 39
0 0 0 0 0 0 0 0 0 0 0 0 0 0 62 0 0 0 0 0 0 0 0 0 0 1 5 4 5 5 5 5 44 85 95 100 93 100 30 46 62 43 19 77
0 0 0 0 0 0 0 0 0 0 0 1 4 0 100 64 3 2 0 0 0 0 0 0 4 5 5 5 5 5 5 5 8 28 5 21 56 78 100 75 36 24 62 43
0 0 0 0 0 0 0 0 5 55 19 57 3 0 9 0 0 0 0 0 0 0 0 4 5 5 25 13 13 10 59 96 89 84 100 100 98 60 70 70 95 98 37 10
3 4 0 0 0 0 0 0 4 2 5 18 0 1 18 0 0 0 0 0 0 0 0 4 5 5 11 67 98 100 100 35 15 62 78 68 95 99 91 81 71 41 88 72
0 2 0 0 0 0 0 3 0 0 0 0 1 5 2 0 0 0 0 0 1 5 5 5 5 59 100 97 97 77 83 100 100 100 90 100 100 92 100 99 93 80 100 100
0 1 0 0 0 0 0 0 4 5 22 0 42 12 91 3 2 42 18 20 5 5 4 8 88 86 12 35 98 89 68 100 100 100 100 100 100 90 56 92 100 100 94 99
0 0 0 0 0 0 2 5 0 0 0 1 0 1 2 9 2 10 4 5 5 5 18 98 53 86 100 100 100 100 100 100 100 100 96 61 61 100 100 84 22 59 78 100
0 0 0 0 0 0 0 2 1 0 0 5 4 15 5 0 3 5 55 5 6 45 72 83 100 100 100 100 100 88 100 98 97 93 99 100 100 71 8 53 32 100 100 46
0 0 0 0 0 1 1 4 5 3 2 5 32 5 81 40 98 100 100 20 67 100 100 100 100 100 100 96 41 73 100 100 100 100 91 27 70 82 33 93 18 93 51 27
5 0 2 3 4 5 3 3 5 5 7 5 5 66 95 100 100 67 46 74 81 79 100 100 100 72 96 83 100 100 72 25 20 5 5 5 12 99 86 61 68 92 87 100
0 0 0 0 0 0 4 5 5 5 5 80 5 97 100 100 72 6 75 67 80 83 97 29 48 100 100 100 100 55 6 6 27 49 5 3 90 100 98 99 100 100 96 84
0 5 5 5 0 0 0 0 0 5 5 27 100 100 100 17 78 60 93 91 100 100 40 100 100 100 100 100 91 19 6 8 5 5 5 15 95 87 100 100 100 99 30 5
1 5 5 5 7 2 18 5 5 5 95 81 100 100 78 71 100 70 80 54 100 73 84 89 30 79 100 100 70 5 5 5 5 5 40 56 86 100 100 100 96 54 5 5
5 5 21 37 72 39 9 5 6 33 5 57 82 97 94 99 81 6 22 62 86 52 14 47 84 96 100 27 24 11 41 5 28 93 92 31 99 98 100 100 100 96 41 66
5 6 40 69 5 5 6 5 5 10 6 21 54 75 98 94 46 46 51 82 69 32 95 100 87 10 3 35 98 100 100 100 100 100 97 100 36 100 100 100 100 100 100 100
4 7 13 86 39 38 5 98 56 14 34 60 79 75 85 52 80 40 100 100 100 100 100 100 100 33 100 100 97 99 100 100 100 100 77 58 100 100 100 100 100 100 100 100
83 94 94 100 99 10 5 13 2 38 77 6 56 93 9 100 96 74 94 82 89 97 100 100 100 100 87 5 5 18 100 100 100 100 98 95 96 100 100 100 100 100 100 76
32 45 76 87 100 66 23 77 81 66 10 100 69 16 85 92 99 76 87 99 57 80 95 84 69 90 5 5 8 35 100 90 78 18 51 98 96 100 100 100 100 100 53 99
11 7 40 53 14 99 100 100 97 26 100 96 84 97 78 90 95 51 55 52 6 5 5 6 14 21 93 20 37 69 85 10 96 100 98 97 100 88 100 100 100 94 100 99
69 42 92 17 13 99 100 100 97 73 92 39 8 10 33 52 16 11 5 5 45 5 5 5 5 24 45 98 91 87 88 92 100 99 100 100 100 100 100 100 99 100 97 100
48 42 32 83 62 78 44 91 94 99 100 92 22 5 21 14 33 7 12 97 32 11 5 5 48 100 100 100 100 100 64 100 100 100 100 100 100 100 100 100 100 91 100 82
100 100 56 41 100 39 100 92 94 100 77 36 46 15 40 38 22 40 8 5 5 5 19 80 75 84 100 100 72 75 95 99 87 80 100 100 100 100 100 98 95 98 63 5

GFSCGP_prec_cloud_024.txt.gz
Cloud_Cover
0 8 87 11 0 0 0 0 0 4 0 0 0 0 2 0 0 0 0 0 0 0 0 1 1 0 0 0 0 0 0 5 5 5 41 95 17 72 26 73 76 5 74 98
5 4 0 0 0 0 0 0 1 0 0 0 0 0 0 0 0 0 0 0 0 0 0 0 0 0 0 0 0 5 53 99 10 73 74 71 98 46 56 76 66 5 99 80
0 1 0 0 0 0 0 0 0 0 0 0 0 1 0 0 0 0 0 0 0 0 0 0 0 0 0 4 8 83 72 5 67 34 5 5 5 34 62 79 70 100 45 80
0 0 0 0 0 0 0 0 0 0 0 10 2 27 70 1 0 0 0 0 0 0 0 0 0 0 5 5 12 5 5 5 4 5 2 5 5 5 9 5 7 5 26 92
0 0 0 0 0 0 0 0 0 0 0 0 2 0 95 5 8 2 0 0 0 0 0 0 0 0 1 5 5 5 5 5 5 5 5 8 48 50 27 83 100 100 100 100
0 0 0 0 0 0 0 0 0 0 0 0 11 58 100 100 96 22 1 0 0 0 0 0 0 1 0 3 2 1 0 5 6 9 27 99 100 100 100 100 100 100 100 100
0 0 0 0 1 0 0 0 11 65 71 12 21 65 38 8 92 51 5 0 0 0 0 0 4 5 5 19 5 14 74 100 100 99 100 100 100 100 100 100 100 80 77 96
6 8 0 0 0 0 0 0 2 2 10 32 19 2 5 1 1 5 0 0 1 0 0 2 5 13 43 41 41 95 100 100 100 100 100 100 100 100 100 82 100 100 100 100
0 2 0 0 0 0 9 3 0 0 0 0 0 9 64 18 42 5 0 13 82 7 5 8 57 11 8 78 95 46 72 100 100 100 100 100 100 100 100 100 95 50 6 5
0 4 0 0 0 0 0 0 2 87 9 5 9 88 100 70 24 43 93 48 5 5 22 29 25 63 54 22 100 100 100 100 100 100 100 100 100 100 73 6 3 2 4 3
0 0 0 0 0 0 0 4 2 2 2 2 17 28 8 66 24 20 5 8 13 5 5 9 13 20 100 100 100 100 98 94 64 95 95 43 5 3 18 27 5 5 5 5
0 0 0 0 0 0 0 0 3 5 0 0 1 68 0 0 2 4 8 13 60 5 5 6 77 78 84 86 8 77 100 82 33 6 5 5 5 5 5 5 2 5 5 46
0 0 0 0 1 0 0 2 4 1 0 0 1 5 96 77 28 100 98 100 28 18 20 8 80 70 36 8 5 20 10 5 5 5 5 5 5 5 5 2 5 5 5 5
0 0 3 1 2 1 0 0 4 4 5 5 0 15 29 93 100 81 43 6 7 5 34 40 52 25 5 5 10 84 26 78 7 5 5 5 5 5 5 3 5 5 8 31
0 0 0 0 0 0 0 0 0 0 5 77 9 99 95 94 5 79 16 5 5 7 5 5 19 99 16 91 68 6 43 75 15 5 4 5 4 82 5 3 5 5 95 79
0 0 0 0 0 0 3 0 0 0 5 61 20 46 96 65 53 5 5 5 5 5 5 28 85 5 6 77 76 93 98 6 27 61 9 5 96 100 80 8 5 59 5 5
0 0 1 2 6 4 1 0 0 5 77 52 90 34 96 66 11 5 63 5 5 6 27 6 5 76 98 85 81 12 98 100 31 94 76 100 68 5 5 5 5 43 5 5
3 5 27 7 42 5 2 5 5 5 32 12 42 99 85 64 48 11 34 9 5 5 96 15 74 95 83 41 5 19 55 5 21 22 88 50 100 57 5 3 8 34 5 40
5 5 29 71 5 5 0 7 5 4 4 16 87 52 6 5 9 75 11 14 5 7 26 86 94 30 34 32 98 37 5 5 83 100 64 76 100 100 48 5 80 100 78 81
5 5 3 46 52 4 0 16 8 5 5 58 69 76 5 5 7 30 6 14 75 100 97 20 46 100 100 100 73 44 5 6 97 50 96 37 49 84 97 93 100 100 100 100
36 84 40 100 100 11 2 5 5 5 25 12 5 19 5 50 14 5 5 67 39 5 76 87 42 8 40 10 6 5 5 11 6 12 34 34 5 28 93 99 100 100 100 100
22 27 73 89 93 32 4 44 73 42 10 64 99 100 85 71 45 64 22 5 21 34 5 3 5 5 5 5 7 10 5 2 1 0 0 1 18 92 61 60 86 100 100 99
5 7 7 5 5 57 100 95 15 74 47 82 86 100 94 100 88 5 5 5 5 4 0 5 33 5 5 4 70 94 99 5 0 5 5 5 20 93 100 100 100 100 81 5
21 10 4 5 5 37 77 5 21 13 53 60 97 100 80 98 80 31 55 6 5 4 5 5 5 23 97 92 100 99 19 5 5 5 7 10 67 91 99 98 100 84 10 5
100 100 41 7 43 71 95 33 51 26 54 99 84 43 89 77 62 96 71 5 6 42 46 5 55 30 5 99 18 18 5 5 6 5 5 40 86 94 94 96 94 47 5 5
100 100 100 14 38 71 20 60 84 35 22 59 78 98 52 87 100 90 51 44 34 16 5 5 5 5 30 12 5 5 33 29 5 5 5 5 30 9 24 47 82 76 44 13

GFSCGP_prec_cloud_027.txt.gz
Cloud_Cover
0 1 5 0 0 26 16 30 4 0 0 0 0 0 0 0 0 0 0 0 0 0 0 0 0 5 5 3 4 4 0 0 0 0 5 5 5 5 5 5 5 5 5 16
2 0 5 5 1 0 3 1 0 0 0 0 0 0 0 0 0 0 0 0 0 0 0 0 0 0 0 7 0 0 5 26 5 5 5 5 5 2 4 4 66 92 55 9
5 3 3 0 0 0 0 0 0 0 0 0 0 0 0 0 0 0 2 0 0 0 0 0 0 0 0 0 2 5 40 62 41 5 5 5 1 3 5 5 64 77 22 6
2 0 0 0 0 0 0 0 0 0 0 0 0 3 2 0 0 1 1 0 0 0 0 0 0 0 5 5 5 2 5 5 5 5 2 1 5 5 44 45 71 82 25 5
0 0 0 0 0 0 0 0 0 0 0 0 0 1 98 31 5 4 0 0 4 1 0 0 0 0 0 0 0 5 5 5 1 5 34 100 100 100 100 100 96 41 6 10
0 0 0 0 0 0 0 0 0 0 0 0 0 21 99 36 10 1 0 24 7 23 0 0 0 0 0 0 1 1 0 0 0 3 5 29 91 89 100 100 100 100 100 100
0 0 0 0 0 0 0 0 0 3 4 82 36 24 100 100 78 2 1 5 0 0 0 0 0 3 3 3 4 5 56 100 96 100 80 23 5 31 94 72 98 72 34 14
3 0 0 0 0 0 0 0 0 0 2 5 8 49 98 56 5 81 80 56 5 3 1 0 0 3 5 26 22 5 12 37 96 78 100 99 93 100 98 100 44 39 11 5
5 0 0 0 0 0 0 0 0 0 0 0 2 4 52 15 93 100 100 90 58 5 25 27 5 0 5 20 92 84 80 84 14 98 100 98 94 61 100 100 100 39 5 0
0 0 0 0 0 0 0 0 0 1 0 1 0 5 31 5 51 79 100 100 60 24 5 5 7 5 77 78 6 5 5 5 20 71 68 96 100 94 52 20 5 3 5 5
0 0 0 0 0 0 0 0 0 0 0 2 4 2 5 5 8 23 57 22 5 5 6 87 51 56 47 97 73 39 28 50 99 100 92 54 14 5 5 5 5 4 1 0
0 0 0 0 0 0 0 0 1 0 0 0 4 0 2 6 40 100 45 89 64 5 6 95 100 24 5 5 12 86 46 87 40 42 86 99 12 5 1 0 0 0 0 5
0 0 0 0 0 0 0 0 0 0 2 0 1 0 5 92 65 100 61 48 11 62 5 5 12 13 19 13 63 76 8 5 22 21 13 33 0 0 0 0 0 0 0 1
0 0 0 0 2 1 0 0 0 0 0 1 2 3 0 99 4 12 67 5 5 7 7 5 5 5 6 12 65 5 13 86 67 13 11 5 21 22 4 3 34 43 3 0
0 0 0 0 0 0 0 0 0 0 0 1 2 81 88 5 63 77 5 5 5 5 5 5 5 5 22 34 6 28 72 6 5 8 11 79 69 13 59 51 48 62 78 5
0 0 0 0 0 0 0 0 0 0 0 0 5 37 88 42 5 5 5 5 5 18 5 5 17 33 5 5 5 5 5 5 99 100 73 28 45 70 82 100 100 100 100 27
0 0 5 5 6 4 0 0 0 1 0 3 2 5 5 5 5 5 5 5 5 7 17 7 5 5 5 32 94 55 60 100 94 92 100 66 5 7 6 90 100 100 100 73
5 5 62 15 14 5 0 2 0 4 0 5 5 5 5 5 5 5 6 20 6 5 5 5 5 5 6 74 8 14 6 10 89 100 16 2 22 99 92 100 86 100 100 100
5 9 37 32 10 4 0 5 5 5 5 5 0 0 5 5 64 46 20 5 23 5 5 5 8 68 100 100 56 17 60 57 18 0 4 0 0 4 2 98 96 100 100 100
100 50 22 5 11 5 1 5 27 5 0 5 5 5 5 5 5 58 100 100 97 66 45 38 51 82 100 16 8 37 5 5 0 5 5 2 0 3 39 58 98 100 100 91
38 38 38 5 5 4 0 3 5 5 4 5 5 5 5 13 5 11 60 30 38 69 57 27 80 67 12 5 5 5 2 3 5 10 4 1 3 5 28 99 100 100 100 88
21 30 27 24 25 23 5 9 5 5 5 5 5 5 13 42 68 51 27 5 5 7 5 10 8 67 14 9 12 10 5 2 4 4 5 1 5 5 26 97 97 100 94 16
72 98 100 99 74 4 1 5 5 5 5 5 10 6 45 98 32 5 5 6 5 5 5 10 10 5 9 34 5 8 4 1 0 0 1 4 5 5 31 82 94 79 53 5
100 100 100 5 8 2 5 5 11 8 14 97 62 97 70 45 5 5 5 5 5 5 5 5 5 5 27 1 0 1 5 5 0 0 5 5 5 5 12 60 100 55 5 5
100 100 95 5 23 9 8 15 12 40 83 55 55 13 5 5 6 69 9 5 5 5 5 5 5 4 0 0 5 5 5 5 5 5 5 5 5 5 74 96 95 5 5 5
100 100 100 5 42 70 6 44 72 96 99 60 68 7 44 84 99 17 5 5 5 5 5 5 3 0 0 5 5 5 35 78 57 21 5 5 5 13 47 5 5 29 5 5

GFSCGP_prec_cloud_030.txt.gz
Cloud_Cover
14 4 4 0 5 5 6 2 3 0 0 0 0 0 0 0 0 0 0 0 0 0 0 0 0 0 5 52 66 44 75 79 63 92 97 22 68 76 75 13 2 5 5 33
2 2 0 5 1 95 97 90 4 0 0 0 0 0 0 0 0 0 0 0 0 0 0 0 0 5 4 8 12 1 0 59 79 100 96 100 100 95 18 0 5 8 73 94
0 1 5 1 2 4 50 5 0 0 0 0 0 0 0 0 0 0 0 0 84 88 8 1 2 29 40 43 5 0 4 5 6 74 88 24 14 54 78 93 80 31 5 5
3 4 2 5 3 0 0 0 0 0 0 0 0 0 0 0 0 0 0 0 63 100 36 6 3 0 0 0 0 0 5 5 16 10 5 5 14 89 88 86 65 10 5 5
0 0 0 0 0 0 0 0 0 0 0 0 0 0 0 0 0 0 0 62 100 100 72 100 100 100 0 0 0 0 0 0 0 5 29 97 100 100 97 100 100 100 100 100
0 0 0 0 0 0 0 0 0 0 0 0 0 0 4 5 4 60 16 100 100 98 19 66 78 13 0 1 0 0 0 0 2 5 62 100 89 88 100 100 100 100 100 99
0 0 0 0 0 0 0 0 0 1 3 4 2 1 5 51 27 88 100 100 25 86 10 42 29 22 3 3 5 4 4 4 67 80 50 54 31 24 27 20 39 25 60 38
0 2 0 0 0 0 0 0 0 0 2 5 5 14 51 11 16 78 65 30 40 63 22 97 80 4 0 1 5 5 98 100 100 100 100 100 100 99 100 100 44 62 8 5
0 0 0 0 0 0 0 0 0 0 0 0 0 5 5 58 89 100 100 99 99 88 87 50 39 5 5 5 5 5 5 5 5 5 5 8 10 5 23 7 67 85 5 1
0 0 0 0 0 0 0 0 0 0 0 1 0 3 60 5 89 16 13 12 70 7 19 10 9 10 44 14 5 5 5 5 27 77 28 5 5 5 30 23 5 3 0 0
0 0 0 0 0 0 0 0 0 0 0 2 4 0 0 1 5 5 7 92 100 100 96 67 98 96 90 5 7 5 63 53 39 80 5 5 5 5 5 5 5 0 0 0
0 0 0 0 0 0 0 0 0 0 0 0 4 1 3 31 48 5 27 84 44 85 77 16 97 76 5 5 5 5 5 20 5 5 5 1 5 4 2 3 0 0 1 40
0 0 0 0 0 0 0 0 0 2 2 0 0 0 0 24 93 89 78 63 48 12 60 65 65 90 77 58 5 38 63 58 5 5 4 5 5 32 17 5 5 5 22 100
1 2 0 0 0 0 0 0 5 4 5 3 1 0 0 5 5 5 1 5 5 62 96 89 77 93 82 34 72 85 79 5 5 5 27 99 100 61 98 100 92 46 67 84
5 4 0 0 1 5 5 5 0 0 0 0 0 0 0 1 4 5 5 5 64 97 86 97 100 90 97 83 93 28 5 6 67 100 100 61 81 100 100 20 13 25 92 99
0 0 0 0 0 5 5 0 0 0 0 0 0 0 0 4 5 5 5 20 97 100 91 38 98 100 100 64 5 5 25 100 100 98 5 74 99 94 0 0 0 5 99 100
2 4 3 5 5 5 5 1 0 0 3 4 0 0 0 0 3 4 5 5 10 6 5 63 89 15 62 54 14 96 95 46 20 6 5 3 0 0 3 0 0 42 26 78
14 18 41 5 5 8 5 4 0 0 5 0 5 5 4 4 5 5 5 5 5 6 18 5 5 5 10 43 49 8 5 20 42 24 3 0 0 5 4 2 5 70 100 99
5 44 86 14 6 5 5 5 5 5 26 5 5 3 0 4 5 5 5 5 36 5 5 5 5 5 5 5 5 5 6 52 4 0 0 0 0 3 2 0 5 92 95 100
65 33 6 84 6 5 8 5 32 9 99 94 100 82 5 9 5 5 5 5 5 5 5 5 5 5 5 8 5 6 5 5 1 5 4 4 5 4 2 52 99 100 83 62
38 16 89 97 39 71 6 5 5 26 6 5 28 8 100 55 15 32 5 5 5 5 5 5 5 4 5 5 7 12 0 1 1 0 2 5 1 1 5 43 95 100 79 100
100 100 100 100 100 30 7 24 63 15 59 63 89 84 88 14 19 7 5 5 5 5 5 5 5 5 5 30 5 0 0 0 1 4 1 2 0 0 5 54 100 83 95 98
100 100 100 100 100 96 78 74 10 96 100 60 26 61 80 76 5 14 5 5 5 5 5 5 5 14 5 5 0 0 0 4 5 5 5 5 5 5 7 98 97 99 96 82
100 100 100 42 83 92 96 88 66 95 78 100 100 99 97 43 5 5 5 5 5 5 36 42 5 5 4 2 1 1 5 5 37 70 33 16 5 5 65 82 88 92 80 15
100 45 14 5 5 5 42 10 5 69 92 100 99 100 81 60 5 5 5 5 5 24 33 5 5 5 5 5 5 5 5 44 99 83 100 88 5 5 42 94 94 21 61 6
100 100 33 5 5 5 5 6 26 22 100 99 92 23 100 75 21 16 22 18 5 5 19 8 5 5 5 5 33 57 62 86 89 100 96 98 6 16 65 83 100 94 34 5

GFSCGP_prec_cloud_033.txt.gz
Cloud_Cover
97 8 4 5 5 5 5 5 5 56 92 100 100 100 100 100 100 100 100 10 5 5 5 5 5 4 1 5 87 100 100 100 51 47 98 82 49 5 5 5 5 4 54 99
5 4 4 14 14 5 5 5 5 9 6 33 8 5 0 0 5 5 4 0 0 0 6 6 0 2 44 98 46 42 8 74 97 75 40 60 5 5 5 5 3 5 42 8
0 0 0 96 4 31 3 5 5 1 0 0 1 0 0 0 0 0 0 0 5 5 10 5 5 40 46 4 2 4 2 0 0 4 5 5 5 5 5 16 10 5 5 1
0 0 0 0 3 0 0 0 0 0 0 0 0 0 0 0 0 0 5 0 5 78 73 85 7 5 5 23 1 1 0 0 0 2 2 2 38 8 7 4 1 2 2 4
4 0 0 0 0 0 0 0 0 0 0 0 0 0 0 0 0 0 5 5 57 89 100 81 14 10 6 5 6 5 5 5 4 78 100 98 92 100 100 100 98 100 100 100
0 0 0 0 0 0 0 0 0 0 0 0 0 0 0 0 0 0 5 15 92 97 100 100 100 100 98 86 97 96 52 5 31 82 100 100 100 100 100 100 100 100 100 100
0 0 0 0 0 0 0 0 0 0 0 0 0 0 0 0 0 4 42 26 49 100 100 100 100 100 100 100 93 8 5 5 91 100 100 100 100 100 100 100 100 100 67 56
0 0 0 0 0 0 0 0 0 0 0 0 0 4 0 0 3 5 5 5 5 28 94 100 100 100 100 97 7 6 21 99 100 100 100 100 100 100 100 100 98 8 4 0
0 0 0 0 0 0 0 0 0 0 0 3 0 0 0 0 5 4 2 5 60 97 81 5 5 66 5 5 10 88 93 100 100 100 100 100 92 95 23 5 5 5 5 4
1 2 3 2 0 0 0 0 0 0 0 1 0 0 0 0 1 5 83 97 6 5 0 0 4 5 38 68 7 5 5 5 16 34 17 5 5 5 5 5 5 5 4 1
3 0 0 0 0 0 0 0 0 0 0 2 3 0 0 0 1 5 4 2 5 5 6 60 68 34 64 19 26 76 5 5 19 5 5 11 5 5 5 5 5 5 9 86
0 0 0 0 0 0 0 0 0 0 0 1 4 1 0 0 0 5 5 5 5 33 55 33 53 99 89 97 80 57 88 100 12 10 5 5 4 5 5 38 83 99 95 90
0 0 0 0 1 5 1 0 0 0 0 0 1 0 0 0 0 4 5 5 5 6 9 24 31 80 72 95 95 100 81 5 5 5 5 5 5 15 79 84 22 35 4 0
0 2 5 4 5 5 5 3 2 0 0 0 0 0 0 0 0 5 5 5 5 5 6 5 60 96 100 100 96 57 5 5 5 4 5 5 5 6 46 39 1 0 0 0
5 8 5 5 4 1 0 0 0 0 0 0 0 0 0 0 0 0 3 5 5 62 15 95 100 100 100 80 30 5 5 5 5 5 5 5 5 5 0 0 0 1 4 0
36 56 5 0 0 0 4 0 0 2 5 0 5 0 2 0 4 0 4 5 5 25 99 99 100 99 48 5 5 5 5 5 5 5 5 5 5 0 0 0 0 0 4 75
5 5 10 5 6 18 8 4 5 5 5 5 5 5 5 5 5 3 5 5 20 98 100 95 14 5 5 5 56 5 5 5 5 23 6 5 3 0 0 0 5 0 4 99
16 5 9 5 5 39 15 8 5 5 13 5 5 5 5 5 5 5 5 5 11 17 5 5 5 5 5 5 13 24 14 5 5 5 5 5 0 0 0 5 5 48 65 88
5 5 45 62 24 9 87 5 5 5 50 5 5 96 93 5 5 5 5 5 5 8 8 5 5 5 5 82 100 65 6 18 11 6 5 2 0 0 5 48 27 100 100 94
50 98 11 80 5 19 100 16 55 81 98 82 93 100 95 50 50 43 51 75 41 68 80 13 48 9 100 89 72 48 30 72 46 5 0 3 1 6 99 14 10 100 100 100
64 23 5 95 29 100 100 40 58 94 9 42 100 100 100 80 22 90 100 100 63 66 11 20 49 92 60 98 76 71 80 22 4 2 5 5 5 100 2 89 100 100 100 77
55 51 94 61 100 100 100 98 97 54 5 19 97 100 100 100 100 100 100 100 99 58 54 73 36 40 15 41 66 30 5 5 5 5 5 45 91 33 5 99 100 98 70 63
54 83 91 100 100 100 85 35 45 26 39 23 96 100 100 100 100 100 100 75 24 44 52 60 54 71 71 82 8 5 5 5 5 6 99 96 86 5 5 100 100 99 84 63
99 100 100 100 100 100 13 70 7 68 18 90 100 100 100 100 100 100 94 100 83 89 97 96 98 99 64 48 5 5 5 5 23 78 100 100 97 16 7 100 100 100 81 38
100 100 100 69 87 11 89 55 50 62 100 100 100 100 100 96 100 90 96 100 100 100 100 100 90 70 14 5 5 5 5 39 98 100 100 100 95 71 5 98 100 100 97 63
100 92 5 5 50 40 49 93 83 91 100 100 100 100 100 100 86 94 100 100 100 100 97 99 86 5 5 5 35 14 80 100 100 100 94 100 96 84 73 49 98 100 100 91

GFSCGP_prec_cloud_036.txt.gz
Cloud_Cover
100 100 100 100 100 94 63 64 87 100 100 100 100 100 100 100 100 100 100 98 98 100 72 76 53 63 32 67 100 100 100 100 100 100 100 100 100 60 5 5 5 0 0 5
98 81 73 5 5 5 5 5 18 69 69 100 96 89 89 79 100 100 100 99 82 5 5 5 5 21 22 96 93 72 37 52 91 96 6 4 5 5 2 0 0 0 0 3
10 51 5 2 3 5 5 42 78 43 71 91 44 22 16 80 83 56 12 5 3 0 4 5 4 12 54 21 44 86 100 67 2 0 0 3 0 0 0 0 0 0 0 0
4 3 1 5 4 2 1 0 1 3 5 5 5 6 8 2 1 0 0 0 0 1 5 5 5 12 8 19 9 5 4 5 5 5 2 1 0 0 3 5 5 2 4 5
3 0 0 2 0 0 0 0 0 0 0 4 4 2 0 0 0 0 0 0 4 2 5 5 46 45 100 63 99 22 6 9 5 5 64 28 5 5 5 5 5 5 11 6
1 0 0 0 3 0 0 0 0 0 0 0 0 0 0 0 0 0 0 0 5 5 5 12 100 100 100 99 95 100 99 95 100 100 69 70 70 5 5 5 5 5 23 92
5 4 0 0 0 0 0 0 0 0 0 0 0 0 0 0 0 0 0 4 5 5 5 5 5 84 100 100 100 78 42 18 98 47 23 66 8 6 45 44 52 99 94 78
0 0 0 0 0 0 0 0 0 0 3 3 0 0 0 0 0 0 0 4 1 4 67 77 98 88 34 36 20 32 53 72 6 25 97 88 98 100 100 100 48 10 9 63
0 0 0 0 0 0 0 0 0 0 0 2 0 0 0 0 0 0 0 1 10 96 96 84 5 5 5 62 99 87 21 58 69 70 100 98 93 36 5 5 46 22 31 10
0 0 0 0 0 0 0 0 0 0 0 0 0 0 0 0 0 0 1 5 5 5 4 2 4 5 36 32 5 75 47 47 27 47 5 5 3 5 5 5 13 5 5 5
0 0 0 0 0 0 0 0 0 0 1 2 4 0 0 0 0 0 1 5 5 0 5 4 2 4 5 5 48 14 69 62 84 87 33 5 6 5 5 5 5 11 5 5
0 0 0 0 0 0 0 0 0 0 0 4 4 1 0 0 0 0 0 0 1 5 5 5 5 39 60 85 91 98 60 100 74 70 29 21 48 9 5 5 3 2 0 0
0 0 0 0 0 0 0 0 0 0 0 0 1 0 0 0 0 0 0 3 5 5 5 5 8 97 88 83 100 100 97 10 5 5 9 5 5 5 2 0 0 2 1 2
0 0 0 0 3 5 5 5 0 0 0 0 1 0 0 0 2 1 1 0 4 5 5 89 100 90 66 100 100 59 38 60 5 5 5 5 5 5 3 5 5 5 5 3
0 4 5 5 8 49 8 0 0 0 2 4 4 5 5 5 5 5 0 0 0 5 7 79 76 89 78 100 99 97 50 5 5 5 5 5 5 5 5 6 44 5 0 0
41 26 5 5 5 4 4 0 5 5 5 5 5 5 5 5 5 5 5 5 5 5 6 77 100 86 100 84 58 22 15 5 5 5 5 5 5 6 48 32 0 2 4 4
71 92 83 56 5 5 63 5 5 5 5 5 5 5 5 6 48 94 100 76 70 5 46 96 96 80 47 8 93 63 26 30 6 5 16 81 100 94 6 4 4 5 6 34
48 53 52 29 5 38 66 100 5 5 5 5 5 5 34 93 100 100 34 37 20 96 79 48 82 100 27 35 79 98 97 64 39 85 100 100 34 5 5 5 4 5 24 100
5 5 15 20 21 31 100 100 3 3 90 66 12 49 54 85 79 95 22 72 37 73 94 95 97 100 97 66 73 100 100 99 100 100 100 29 6 5 5 5 10 78 100 100
5 5 5 57 8 29 100 80 6 19 97 100 100 88 100 100 98 90 8 27 60 82 100 100 100 100 100 100 99 88 100 100 100 66 83 5 5 5 5 5 99 100 100 100
84 64 20 89 7 96 88 5 6 68 66 98 97 100 71 80 44 79 100 94 93 100 100 100 100 98 100 100 100 100 100 100 99 8 5 5 19 61 12 39 99 95 99 97
31 94 100 62 46 89 6 5 14 82 100 100 100 54 89 90 97 67 100 100 100 100 100 100 100 100 100 96 100 100 99 100 32 5 5 5 70 100 74 58 100 100 97 100
5 15 6 45 6 5 58 100 100 100 73 89 100 100 100 100 76 99 100 100 100 100 100 100 100 100 100 100 100 100 94 54 5 5 5 75 100 100 96 94 100 100 100 100
65 75 94 26 99 97 100 100 100 100 100 100 100 100 100 100 100 100 100 100 100 100 100 100 100 100 100 100 100 94 70 5 5 6 90 100 100 100 97 70 75 98 100 100
100 100 18 47 100 100 100 100 100 100 100 100 100 100 100 100 100 100 100 100 100 100 100 100 100 100 100 100 100 100 38 21 16 23 100 100 100 100 96 34 5 87 100 83
100 100 100 100 100 98 74 95 100 100 100 100 100 100 100 100 100 100 100 100 100 100 100 100 100 100 100 100 100 100 100 60 48 84 100 100 100 100 100 85 62 84 86 94

GFSCGP_prec_cloud_039.txt.gz
Cloud_Cover
100 100 100 100 100 100 100 100 95 48 36 62 98 97 100 100 99 100 93 58 95 26 49 100 100 100 59 61 32 75 94 86 83 100 100 100 100 100 100 100 100 100 100 100
94 100 100 100 100 100 100 88 44 58 75 42 19 15 17 57 23 5 5 21 48 73 91 69 77 70 52 44 41 13 55 67 72 72 5 5 72 100 76 100 98 21 1 1
100 100 100 100 100 92 72 99 93 84 100 100 89 78 95 66 15 5 38 6 5 5 6 29 5 4 5 5 5 23 24 5 15 5 1 5 50 5 5 5 8 5 5 0
32 28 71 70 62 70 26 16 13 37 38 70 75 46 6 5 5 13 53 17 7 5 5 5 4 5 5 88 80 56 5 5 5 3 5 61 48 60 82 5 3 5 5 5
3 2 1 0 4 5 31 5 16 10 5 10 5 4 0 0 0 0 0 0 0 0 5 4 5 5 17 68 13 69 42 8 92 99 92 74 77 91 91 54 5 5 7 71
5 5 4 0 0 1 0 0 0 0 2 3 4 0 0 0 0 0 0 0 0 1 0 3 5 29 25 47 72 62 100 89 74 84 19 5 16 5 4 4 5 46 100 99
0 0 0 0 0 0 0 0 5 4 5 2 0 0 0 0 0 0 0 0 0 0 5 5 8 92 100 97 98 50 73 84 80 72 78 27 5 17 5 5 39 78 16 4
0 0 0 0 0 0 0 0 0 0 0 0 0 0 0 0 0 0 0 0 0 0 5 20 99 100 96 8 7 8 32 69 61 29 82 76 79 92 5 14 3 5 5 5
0 0 0 0 0 0 0 0 0 0 0 0 0 0 0 0 0 0 0 0 0 1 5 40 88 51 0 5 5 5 6 26 79 100 100 100 100 10 5 5 5 7 40 89
1 0 0 0 0 0 0 0 0 0 0 0 0 0 0 0 0 0 0 0 0 5 5 5 4 0 0 2 5 8 94 100 100 100 98 89 6 5 5 16 56 61 31 5
0 0 0 0 0 0 0 0 0 0 0 0 0 0 0 0 0 0 0 0 1 5 2 0 0 2 5 5 5 62 77 95 100 100 100 30 5 5 5 8 5 5 3 4
0 0 0 0 0 0 0 0 0 0 0 1 0 0 0 0 0 0 5 5 0 0 0 2 5 5 5 5 45 86 89 100 100 100 21 5 5 5 5 5 3 5 5 1
0 0 0 0 0 0 0 0 0 0 0 0 2 0 0 5 5 32 5 5 5 5 5 5 5 16 65 86 94 61 72 100 100 9 5 5 5 5 5 5 5 5 5 4
0 0 0 0 0 0 0 0 0 0 0 0 2 4 30 16 5 5 5 5 5 5 5 5 20 100 100 100 54 83 100 77 6 36 8 5 8 38 8 6 27 5 5 5
0 0 0 0 3 5 5 5 5 0 0 5 5 5 5 5 5 5 5 5 5 5 5 5 69 100 97 86 99 88 7 8 90 76 41 5 5 23 56 97 38 15 51 5
5 5 3 5 12 70 89 5 5 5 5 5 5 5 5 5 5 5 5 5 5 5 5 5 86 99 100 100 89 62 85 98 78 69 69 65 78 100 100 100 35 68 7 5
5 5 6 40 5 100 100 5 5 5 5 5 5 5 5 41 19 52 13 5 5 5 12 58 98 99 100 94 100 100 100 100 100 100 100 100 100 100 100 57 14 5 21 32
5 10 49 44 5 96 100 97 2 5 5 5 1 5 81 99 86 100 11 24 6 35 60 96 87 96 90 80 95 100 96 98 100 100 100 100 100 100 47 87 76 12 75 100
5 5 17 95 17 66 100 100 22 5 23 5 5 5 51 100 100 100 77 66 67 89 98 100 100 100 93 100 100 100 100 100 100 100 100 100 100 88 100 100 8 89 100 60
32 10 9 95 6 60 100 100 6 5 52 92 53 54 99 100 100 91 100 99 100 100 100 100 100 100 100 100 100 100 100 100 100 100 100 98 16 100 20 5 8 94 97 91
76 64 35 8 5 58 41 5 22 85 100 100 100 100 100 100 98 100 100 100 100 100 100 100 100 99 100 100 100 100 100 100 100 96 39 23 100 86 11 67 8 68 99 96
5 34 38 36 76 30 5 5 77 100 92 54 100 100 65 38 66 100 100 100 100 100 100 100 100 100 100 100 100 100 100 100 100 47 92 100 94 14 91 95 60 79 95 99
42 5 61 13 91 5 5 19 25 25 99 100 100 99 31 48 100 100 99 100 100 100 100 100 100 100 100 100 100 100 100 100 100 100 100 94 6 73 100 98 62 70 92 89
70 97 72 5 11 5 9 5 24 100 100 100 100 35 19 99 100 99 100 100 100 100 100 100 100 100 100 100 100 100 100 100 100 100 100 37 100 91 100 97 70 82 84 87
76 32 5 39 96 100 100 100 100 100 94 88 16 10 59 90 100 100 100 100 100 100 100 100 100 100 100 100 100 100 100 100 100 100 81 92 33 90 100 91 66 18 11 63
100 100 100 100 100 100 100 100 100 94 23 5 12 62 98 92 100 100 100 100 100 100 99 100 100 100 100 100 100 100 100 100 98 96 93 97 44 65 93 81 66 15 50 5

GFSCGP_prec_cloud_042.txt.gz
Cloud_Cover
100 100 100 100 100 100 100 100 100 100 100 100 100 100 100 100 100 100 100 100 100 100 100 100 99 53 55 86 100 100 100 94 100 100 85 100 100 100 100 100 100 100 100 100
100 100 100 100 100 100 100 100 100 100 100 100 100 100 100 100 100 100 96 89 52 71 66 92 82 48 65 94 100 68 66 35 5 5 5 5 60 96 97 91 34 7 92 91
100 100 100 100 100 100 100 100 100 100 100 100 77 53 23 25 10 70 90 96 100 100 100 100 86 75 83 73 51 12 27 17 5 16 52 20 84 100 100 100 100 100 100 100
93 100 100 100 100 100 100 100 100 89 77 52 30 55 5 5 5 26 63 88 94 74 26 7 1 5 3 5 5 5 5 5 24 75 54 57 45 64 6 5 5 5 2 0
100 100 100 98 60 60 76 75 72 66 52 5 5 5 5 31 7 26 8 5 5 4 4 2 5 5 15 5 5 77 89 93 95 56 8 60 38 5 5 5 5 5 1 3
89 83 62 52 51 26 13 12 68 46 18 4 4 0 4 3 0 0 0 0 0 0 0 2 5 17 5 5 11 89 11 84 55 5 5 9 34 40 5 5 65 5 3 4
7 3 1 4 5 42 24 5 1 0 0 2 0 5 2 0 0 0 0 0 0 0 0 2 5 5 5 5 5 5 5 5 33 26 7 59 31 9 36 83 55 5 3 5
2 1 3 4 2 0 3 4 5 5 3 3 0 0 0 0 0 0 0 0 0 0 2 5 5 5 5 15 50 5 5 5 5 5 51 23 91 61 92 43 5 5 5 5
0 0 0 1 5 5 5 4 4 1 0 0 0 0 0 0 0 0 0 0 0 4 0 5 5 12 63 12 3 4 5 5 5 23 83 95 94 87 96 72 8 76 48 5
2 4 2 3 3 0 0 0 0 0 0 0 0 0 0 0 0 0 0 0 0 0 0 5 5 71 5 0 3 5 5 8 33 68 62 97 100 94 68 5 17 13 5 5
0 3 0 0 0 0 0 0 0 0 0 0 0 0 0 0 0 0 0 1 1 4 5 5 5 5 5 1 5 5 22 36 93 99 100 100 99 98 67 54 9 5 5 5
5 0 0 0 0 0 0 0 0 0 0 0 0 0 0 0 0 0 0 5 5 5 5 5 5 5 5 5 5 5 5 41 100 100 100 100 86 6 5 5 15 5 8 35
0 0 0 0 0 0 1 0 0 0 2 5 26 1 0 0 1 5 5 1 4 3 5 5 5 5 5 67 39 5 43 100 100 100 72 5 5 5 5 25 35 19 53 92
0 0 0 4 5 5 5 1 1 5 5 5 0 1 0 14 5 5 5 3 5 5 5 5 5 5 65 95 12 33 99 87 89 5 5 6 48 72 78 91 49 100 96 28
0 5 5 5 5 5 5 5 5 5 5 3 0 4 0 72 5 5 5 5 5 5 5 5 5 81 83 92 18 100 100 100 17 28 61 30 79 62 74 96 100 100 22 32
5 5 5 5 5 5 8 27 5 5 4 5 4 5 0 5 5 5 5 6 47 30 80 59 5 5 84 79 93 100 92 20 72 86 82 72 76 99 100 100 100 33 18 37
5 5 5 5 6 67 99 1 5 1 0 5 5 5 5 8 5 5 5 68 96 100 52 47 5 5 77 92 100 74 64 100 92 86 79 90 100 100 100 77 21 35 97 69
5 5 29 20 93 100 99 5 1 0 5 5 5 5 12 14 5 5 5 48 93 16 11 5 30 98 99 100 100 97 86 92 97 100 100 100 100 100 99 100 100 100 100 95
5 5 62 98 22 100 100 91 5 5 5 5 5 5 5 5 5 5 11 100 46 5 5 46 100 100 100 100 99 80 100 100 100 100 100 100 100 98 100 100 94 100 100 100
5 5 5 66 81 85 100 20 5 6 5 100 46 5 5 5 5 28 100 100 100 54 16 99 100 100 100 99 100 100 100 100 100 100 100 100 100 100 100 100 100 100 100 100
28 44 49 59 49 95 53 83 47 32 74 89 89 70 65 72 100 100 100 82 6 5 10 92 100 100 95 100 100 100 100 100 100 100 100 100 100 100 100 100 100 100 100 100
14 39 79 61 69 35 26 49 56 60 53 8 16 77 100 94 100 95 9 5 5 5 42 100 100 100 100 100 100 100 100 100 100 100 100 100 100 100 100 100 96 100 100 100
5 8 64 5 5 5 5 51 9 34 98 74 66 87 100 100 57 5 5 6 71 61 99 80 100 100 100 100 100 100 100 100 100 100 100 100 100 100 100 80 100 100 100 100
5 5 5 5 30 5 5 5 5 5 8 87 100 100 29 5 5 5 40 93 97 96 100 100 100 100 100 100 100 100 100 100 100 100 100 100 100 96 98 96 100 100 100 100
5 5 5 5 5 6 5 21 45 70 99 94 24 8 5 5 10 70 67 65 62 100 100 100 100 100 100 100 100 100 100 100 100 100 100 100 99 94 94 100 100 100 100 98
55 16 36 78 89 99 100 100 100 59 21 5 12 17 8 50 74 66 96 100 100 100 100 100 100 100 100 100 100 100 100 100 100 100 100 100 92 100 96 91 99 100 93 25

GFSCGP_prec_cloud_045.txt.gz
Cloud_Cover
100 100 100 100 100 100 100 100 100 100 100 100 100 100 100 100 100 100 100 100 100 100 100 100 100 100 100 100 100 100 92 82 28 7 52 99 100 100 100 98 100 76 76 96
100 100 100 100 100 100 100 100 100 100 100 100 100 100 100 100 100 100 100 100 100 100 100 100 100 99 75 59 99 100 89 100 92 97 14 6 30 65 84 72 53 17 14 7
100 100 100 100 100 100 100 100 100 100 100 100 100 100 100 100 100 100 100 100 100 86 76 49 9 37 91 100 91 100 99 7 17 5 5 10 54 56 59 59 52 41 17 5
100 100 100 100 100 100 100 100 100 100 100 100 100 100 100 49 100 97 100 100 98 98 29 42 78 91 82 72 55 42 5 5 5 5 5 33 12 39 65 13 5 5 5 5
100 100 100 100 100 100 100 100 100 100 100 100 87 74 100 100 100 100 61 16 28 42 30 19 23 52 29 4 5 5 5 5 5 5 6 16 17 31 13 40 5 7 10 12
100 100 100 100 100 100 100 100 94 92 82 100 97 100 100 98 81 28 14 5 5 6 14 1 1 2 0 0 5 5 5 5 3 4 5 5 6 7 11 36 78 84 14 5
100 100 99 100 100 74 89 51 92 94 99 16 37 4 5 31 4 5 4 1 0 0 0 0 0 0 0 5 5 5 5 15 6 16 8 5 5 5 5 32 78 98 77 50
100 99 95 91 38 100 14 74 100 52 60 48 13 3 50 5 5 0 0 0 4 2 0 0 0 0 3 5 5 5 28 97 88 56 6 5 5 38 7 64 97 92 88 91
100 100 8 5 5 5 31 2 1 0 3 7 32 22 0 0 0 0 0 0 5 0 0 0 0 0 0 4 6 16 37 100 92 5 5 5 15 60 100 94 58 97 63 5
62 94 3 0 1 0 0 4 5 5 4 2 24 0 29 0 0 0 2 0 5 0 0 0 0 0 7 20 73 52 38 95 49 5 5 23 92 97 100 98 80 10 27 28
10 7 47 4 5 5 8 5 5 2 1 0 0 2 0 0 0 0 0 4 0 0 0 0 12 25 34 61 54 42 30 12 5 5 48 98 100 100 74 14 5 6 5 60
5 5 5 5 5 4 1 0 0 0 0 0 0 0 0 0 0 0 3 0 4 5 3 20 44 51 37 8 18 27 28 78 10 59 83 100 94 51 5 5 5 5 56 84
1 3 5 5 1 0 0 0 0 0 0 0 19 0 5 0 5 5 0 1 4 2 4 10 34 32 18 14 5 25 24 61 36 22 100 56 89 10 5 5 13 25 58 69
4 2 1 5 32 29 4 0 0 0 0 0 0 0 0 0 0 0 0 1 0 5 4 5 5 5 86 99 87 66 80 57 38 100 99 54 34 35 65 68 58 69 78 90
5 5 1 0 1 2 1 0 2 5 0 6 0 5 0 4 15 6 5 5 5 5 5 5 5 52 46 6 9 82 81 93 34 100 82 90 97 80 71 92 100 100 100 100
5 0 0 0 0 0 4 5 2 0 3 5 5 55 0 5 6 5 5 3 5 5 4 5 5 15 49 8 5 84 67 87 72 100 100 100 100 94 100 100 100 100 100 100
5 2 2 4 5 5 12 5 4 5 5 5 10 5 5 5 5 4 5 5 5 5 5 8 47 91 31 16 62 70 81 100 100 100 100 99 100 100 100 100 96 100 100 100
5 3 5 8 5 86 10 5 4 5 5 5 5 5 38 38 5 5 5 5 5 5 5 78 58 95 5 16 68 70 97 100 100 100 99 100 100 100 100 100 100 100 100 100
5 5 8 56 25 90 5 5 5 5 5 9 5 5 5 5 6 5 36 5 5 5 7 40 70 5 5 12 77 99 100 100 100 100 100 100 100 100 100 100 100 100 100 100
5 5 5 54 63 72 53 5 5 5 5 36 12 5 5 5 5 2 5 5 8 100 100 99 54 9 29 94 99 98 100 100 100 100 100 100 100 100 100 100 100 100 100 100
17 43 38 5 35 5 11 7 18 10 33 8 5 5 5 5 5 5 6 76 100 100 99 82 49 63 79 100 89 100 100 100 100 100 100 100 100 100 100 100 100 100 100 100
5 6 72 6 65 63 26 42 96 82 40 14 5 5 33 14 41 97 100 100 94 41 7 23 69 82 98 96 100 100 100 100 100 100 100 100 100 100 100 100 100 100 100 100
5 6 18 19 6 7 34 6 32 7 27 38 60 10 44 73 96 100 64 37 43 70 63 99 98 63 96 100 100 100 100 100 100 100 100 100 100 100 100 100 100 100 100 100
7 22 77 81 14 5 5 5 5 5 5 5 15 99 100 100 70 54 58 69 47 99 71 94 100 100 100 100 100 100 100 100 100 100 100 100 100 100 100 100 100 99 76 100
45 17 23 90 5 18 5 6 5 31 81 100 100 100 61 64 32 9 18 69 63 95 100 100 100 100 100 100 100 100 100 100 100 100 100 100 100 100 100 100 82 76 100 100
47 45 9 9 50 54 68 100 100 100 100 64 37 82 88 26 69 53 64 94 100 100 100 100 100 100 100 100 100 100 100 100 100 100 100 100 100 100 95 74 8 85 100 98

GFSCGP_prec_cloud_048.txt.gz
Cloud_Cover
99 98 100 100 100 100 100 100 80 74 100 100 95 100 100 100 100 100 100 100 100 100 100 100 100 100 100 100 100 100 100 100 100 71 87 23 5 5 22 17 5 5 4 31
100 100 100 100 100 100 100 100 100 100 86 100 100 100 100 100 100 100 100 100 100 100 100 100 100 100 78 36 44 100 100 95 36 24 6 5 5 4 0 3 5 4 6 5
98 100 95 100 100 100 100 92 100 100 100 100 100 100 100 100 100 100 100 100 100 100 100 100 100 100 100 100 100 100 73 10 51 90 5 5 0 0 5 5 5 7 59 5
100 100 100 100 100 100 100 100 97 100 90 100 100 100 100 100 100 90 100 100 100 100 100 100 100 96 70 52 100 83 27 4 33 5 3 0 5 5 5 6 63 3 5 5
99 100 93 98 100 91 100 100 100 100 100 100 100 100 83 99 100 100 99 57 87 66 65 66 85 90 44 86 1 1 16 0 5 5 5 5 34 96 100 90 21 18 7 5
92 100 100 95 99 95 100 92 100 100 100 100 100 100 94 90 100 100 99 92 17 19 78 98 100 100 24 1 42 87 0 1 5 5 5 5 37 17 34 5 5 5 39 89
84 91 95 100 100 100 100 100 100 100 100 100 100 100 100 90 98 82 61 35 5 33 5 2 5 51 99 2 0 0 0 6 5 5 1 0 7 5 5 6 52 42 96 98
80 98 87 100 100 100 100 100 100 100 80 85 100 97 86 41 5 5 5 26 14 2 0 0 3 2 0 0 0 0 3 5 4 27 9 3 5 5 8 13 84 67 99 100
91 100 90 88 100 100 100 90 94 64 22 77 31 5 4 2 22 46 7 4 0 0 0 0 0 0 0 0 0 5 5 6 5 100 100 33 20 22 73 87 100 100 75 8
19 90 100 97 76 65 86 26 5 18 4 4 20 47 100 16 4 0 0 0 0 0 0 0 0 0 0 0 0 3 8 100 100 100 59 20 25 89 72 97 100 100 94 5
100 100 96 67 4 5 14 5 0 0 46 44 5 89 9 0 0 0 0 0 0 0 0 0 0 23 2 96 74 21 10 100 100 100 7 36 75 90 100 100 100 22 50 5
82 53 11 4 5 1 0 26 5 7 5 4 0 0 2 0 0 0 0 0 0 0 0 0 0 99 100 100 100 100 85 100 100 99 69 95 96 100 100 98 99 100 57 22
67 2 0 3 23 5 5 5 5 1 29 0 15 0 0 0 0 0 0 0 0 2 2 4 32 100 100 100 93 100 91 98 86 82 86 100 100 100 100 100 100 81 92 100
0 5 5 18 4 87 77 6 1 5 4 0 0 0 5 0 1 2 3 0 0 4 3 36 100 100 100 100 100 100 100 100 96 99 100 100 100 99 100 98 88 99 81 80
15 69 18 5 5 79 0 50 64 5 5 3 0 0 0 1 24 20 5 1 5 0 4 26 91 84 42 69 100 100 100 78 89 100 100 100 79 100 100 100 95 100 100 100
23 5 5 5 3 0 0 4 2 0 0 0 0 0 0 1 5 5 35 4 5 5 5 5 5 5 23 100 100 100 75 63 100 100 100 100 100 100 86 93 100 100 100 100
58 5 5 5 2 5 5 0 0 0 0 0 1 5 5 4 5 6 5 5 6 5 5 5 5 10 98 100 100 97 65 92 100 100 100 100 100 100 100 100 100 100 100 100
5 25 7 5 5 5 0 0 0 0 0 0 20 41 5 5 6 5 5 22 5 34 33 10 5 5 100 100 100 100 100 100 94 70 100 100 100 100 100 100 100 100 100 100
50 53 18 22 14 6 0 2 0 0 0 4 11 5 3 5 5 5 11 23 23 5 5 5 5 85 93 36 30 32 67 100 90 99 100 100 100 100 100 100 100 100 100 100
33 15 29 5 5 13 5 5 4 5 5 5 5 8 8 5 5 5 5 21 18 5 5 9 99 100 35 5 5 7 49 100 100 100 100 100 100 100 100 100 100 100 100 100
40 75 68 5 47 5 17 5 5 5 5 5 5 5 5 29 12 5 5 5 5 12 100 100 96 11 18 36 82 96 85 100 100 100 100 100 100 100 100 100 100 100 100 100
75 55 72 11 91 63 5 21 13 5 5 5 28 9 5 36 5 5 41 16 96 100 100 90 52 93 83 90 100 100 100 100 100 100 100 100 100 100 100 100 100 100 100 100
43 59 19 11 5 5 5 6 38 57 5 5 33 68 47 41 48 54 100 100 100 100 80 92 59 88 88 80 100 100 100 100 100 100 100 100 100 100 100 100 100 100 93 100
42 39 31 5 5 8 6 13 98 9 80 95 87 100 100 100 100 100 100 88 98 88 50 56 100 100 100 100 100 100 100 100 100 100 100 100 100 100 100 100 100 100 100 92
59 30 5 5 5 5 5 90 46 28 35 89 100 100 100 100 100 77 46 42 64 91 100 100 100 100 100 100 100 91 98 99 100 100 100 100 100 100 100 100 100 87 18 41
43 24 49 10 96 14 51 36 60 69 100 100 100 100 100 80 68 53 90 100 100 100 100 100 100 100 100 93 81 81 98 100 100 100 100 100 100 100 60 18 5 5 3 5

GFSCGP_prec_cloud_051.txt.gz
Cloud_Cover
100 100 100 100 100 100 100 100 100 100 99 97 99 100 100 100 100 100 100 100 100 100 100 100 100 100 100 100 100 100 75 100 100 100 100 100 100 100 100 100 29 5 5 5
52 99 100 96 78 98 100 100 100 100 100 100 100 100 99 100 100 100 100 100 100 100 97 79 91 100 98 76 49 100 100 100 100 99 66 57 98 72 6 52 16 3 4 5
99 90 100 100 100 72 63 74 93 94 100 100 100 100 100 100 100 100 100 100 100 95 70 83 47 66 100 100 100 100 100 100 100 100 100 59 55 42 17 1 0 5 5 5
100 100 73 25 79 96 96 100 100 100 98 100 100 96 100 45 97 96 91 100 100 96 72 32 100 100 95 80 47 59 93 20 16 7 15 16 2 0 0 0 2 0 0 0
47 46 96 20 75 100 77 72 93 100 100 100 100 100 99 100 98 100 96 78 100 100 100 100 99 98 74 76 43 11 5 5 5 1 47 2 1 0 0 0 3 12 33 76
84 92 40 97 65 92 72 50 55 100 100 100 94 30 100 86 100 100 100 47 56 77 76 18 40 30 84 91 20 1 0 0 4 66 5 5 0 0 14 86 97 100 71 51
84 100 100 100 99 89 100 71 70 100 100 98 76 100 88 100 100 100 100 19 61 49 20 62 5 10 4 0 0 0 1 0 10 5 5 5 1 1 9 13 16 92 99 38
95 96 100 48 48 100 100 99 96 100 100 76 100 98 100 100 97 100 100 50 4 0 0 3 2 0 0 0 0 31 100 0 4 3 5 5 5 20 56 91 100 72 71 100
99 100 100 84 73 100 100 96 100 100 100 100 94 43 35 91 61 49 5 5 1 5 4 0 0 0 0 0 0 18 39 0 4 5 7 86 46 18 92 86 89 100 64 94
100 100 100 99 94 99 100 78 98 64 65 100 30 6 35 8 89 4 0 2 3 0 0 0 0 0 0 0 0 0 0 19 42 73 91 100 100 90 98 96 100 100 100 100
86 68 100 100 97 100 99 61 95 25 6 9 3 14 5 97 53 3 1 0 0 0 0 0 0 0 0 0 0 0 1 14 99 100 100 100 100 100 100 76 100 100 100 100
25 58 99 100 28 88 5 3 8 5 5 5 0 1 14 66 11 0 0 0 0 0 0 0 0 0 0 1 73 49 99 100 100 100 100 100 100 100 100 100 100 100 100 100
35 100 100 100 100 28 0 0 0 4 5 5 5 1 5 5 0 0 0 0 0 0 0 0 0 3 11 96 99 100 100 100 100 100 100 100 100 100 100 100 99 98 76 82
7 100 88 100 11 0 92 5 5 5 5 2 3 0 0 0 1 0 0 0 0 0 0 0 2 5 73 97 100 92 81 100 100 100 100 100 100 100 100 78 92 100 97 97
12 50 8 5 5 36 31 47 39 23 85 73 9 0 0 1 5 9 4 0 0 0 0 0 5 8 94 26 32 39 45 100 100 100 100 100 100 98 100 98 100 100 98 100
5 3 4 35 5 18 13 3 0 5 2 0 0 2 3 12 5 5 4 0 20 70 4 5 5 6 17 84 5 5 91 91 100 100 100 100 100 100 100 100 99 100 100 100
13 6 5 33 6 45 5 0 2 0 0 0 0 3 0 1 0 0 0 2 1 3 5 5 5 5 5 5 5 5 35 94 100 100 100 100 100 100 100 100 100 100 100 100
15 6 42 7 14 58 3 5 5 2 1 2 5 4 0 0 0 0 5 5 5 5 38 90 100 7 5 5 5 39 94 100 100 100 100 100 99 100 100 100 100 100 100 100
23 39 23 5 5 6 5 5 5 5 5 5 5 0 2 4 5 5 4 5 5 5 49 35 5 5 5 7 62 86 55 41 94 100 100 100 100 100 100 100 100 100 100 100
6 68 5 47 5 5 13 26 5 5 5 5 5 5 5 5 5 5 5 6 21 6 5 5 5 17 50 53 100 49 12 78 84 89 90 100 100 100 100 100 100 100 100 100
10 95 12 60 35 5 89 5 5 5 5 13 7 54 44 5 5 5 5 5 56 33 7 22 100 100 100 100 86 94 100 99 100 100 100 100 100 100 100 100 100 100 100 100
5 58 39 54 84 39 44 77 7 6 5 5 5 5 5 5 5 6 5 5 24 61 98 100 100 100 85 87 100 100 100 100 99 100 100 94 94 99 100 100 100 100 100 100
14 38 50 12 12 23 99 91 85 5 5 5 9 6 5 5 5 5 48 100 100 100 100 100 100 99 100 100 100 100 78 100 100 100 99 100 100 100 100 100 100 100 57 6
66 30 93 5 8 100 100 66 5 5 6 42 86 63 96 100 47 60 100 100 100 100 100 100 100 94 87 96 96 82 98 100 97 99 100 93 65 87 52 34 1 0 5 5
92 40 62 5 6 29 87 39 8 5 5 30 93 100 99 72 85 100 100 100 100 100 100 99 96 89 83 72 83 91 99 100 100 82 98 98 32 5 0 0 0 2 5 18
41 73 12 60 38 21 15 93 99 62 92 100 85 60 63 100 100 100 100 100 100 100 100 92 73 6 5 51 100 100 100 100 100 100 98 35 2 0 0 0 0 5 94 97

GFSCGP_prec_cloud_057.txt.gz
Cloud_Cover
1 24 58 87 99 95 100 100 72 100 98 71 100 100 100 100 100 100 100 100 100 100 100 100 100 100 100 100 100 100 100 100 100 100 100 100 100 100 100 100 100 100 100 100
5 48 55 69 91 95 100 100 100 100 43 52 98 100 100 100 100 100 100 100 100 100 100 100 100 100 100 99 100 100 100 100 100 100 100 100 100 100 100 100 100 82 99 100
0 7 5 44 85 98 99 74 88 26 94 98 100 100 100 99 100 100 100 100 100 100 100 100 79 100 100 100 100 100 100 100 100 100 100 100 100 99 99 88 81 99 96 56
5 5 5 5 45 70 22 100 96 82 100 100 100 88 100 100 100 100 100 100 100 100 100 100 94 100 74 32 27 96 100 98 21 30 42 98 23 23 77 90 63 49 61 6
5 51 5 9 89 100 100 100 97 96 100 86 90 97 100 100 100 100 100 100 99 100 99 99 99 7 57 35 88 96 84 23 56 99 100 100 68 23 70 93 8 4 0 0
17 23 70 7 9 34 99 95 99 100 80 43 97 100 100 100 85 84 36 93 23 58 46 74 98 100 45 26 10 18 8 5 18 77 100 100 97 7 66 96 5 5 5 5
57 56 39 25 21 42 100 29 13 45 99 10 15 13 5 96 88 100 78 19 15 78 42 89 75 28 58 66 61 70 43 27 60 100 100 50 5 34 85 70 5 5 47 73
24 29 6 87 5 65 16 19 77 88 40 35 52 48 5 23 53 80 92 78 73 8 26 18 6 26 32 41 100 76 100 98 100 100 24 3 4 84 94 6 94 94 35 86
5 2 5 87 93 88 81 73 86 61 59 29 21 96 6 14 76 20 18 87 91 100 98 20 3 5 22 87 100 78 100 100 99 71 5 22 0 5 5 25 99 94 98 88
1 0 5 38 79 40 81 22 46 57 71 82 43 58 59 5 68 34 5 31 22 42 41 6 5 2 23 60 27 44 23 5 2 0 0 0 5 5 7 40 100 88 90 100
0 2 1 5 47 100 80 68 15 12 8 6 31 85 20 5 21 17 21 5 5 4 2 4 5 3 0 0 0 0 0 0 0 1 4 14 82 64 5 28 54 41 100 100
5 4 3 2 30 48 91 12 95 5 5 5 19 68 5 5 5 5 5 5 3 5 2 0 0 0 0 0 0 0 0 5 4 5 39 74 93 94 91 100 94 100 63 100
2 5 5 4 0 3 5 54 100 21 5 5 3 0 0 4 5 69 66 85 5 2 0 0 0 0 0 2 3 3 0 2 5 19 96 52 100 85 100 93 100 27 74 95
0 4 5 4 3 90 100 11 5 30 5 5 0 0 0 34 44 6 4 2 0 0 0 0 0 5 3 5 5 5 22 76 93 85 45 100 100 98 97 100 60 99 100 100
5 5 4 5 15 23 5 100 87 95 62 4 0 0 0 4 10 5 0 0 1 3 0 0 0 4 5 5 5 5 10 52 85 63 95 72 99 100 100 100 100 100 76 100
92 5 4 5 19 80 88 100 100 100 30 5 0 0 0 0 5 0 0 5 1 0 0 0 0 4 0 4 5 5 62 57 49 87 93 100 100 100 100 100 100 100 100 100
66 64 12 5 0 6 18 100 94 99 4 0 4 2 3 5 5 5 5 1 4 0 0 0 0 1 5 33 97 96 98 85 94 67 69 100 100 100 100 100 100 100 100 100
100 100 5 4 0 0 89 5 0 0 0 4 5 4 0 4 5 5 5 4 0 2 2 4 5 21 51 90 90 73 49 16 74 85 100 97 100 100 100 99 100 100 100 100
100 100 1 2 0 0 93 32 1 4 5 6 1 0 0 3 5 5 5 5 4 5 5 5 5 5 5 5 5 5 40 100 100 100 100 100 100 100 100 100 100 100 98 92
100 36 5 6 4 5 100 86 5 1 7 0 0 0 0 5 5 5 5 5 5 5 5 5 7 10 5 6 5 28 94 100 100 100 100 100 100 98 92 100 100 72 91 15
100 59 8 30 5 12 100 100 15 5 72 0 0 2 5 5 5 5 5 5 5 5 5 8 46 56 47 10 91 74 74 100 100 100 99 98 96 88 90 79 89 51 9 26
100 76 15 6 97 30 100 100 43 5 2 1 5 5 5 5 5 5 5 5 5 23 28 13 5 5 50 100 100 96 100 100 100 100 86 92 85 73 54 93 77 23 8 12
100 100 27 8 4 5 80 100 99 6 5 5 5 5 5 5 5 5 5 5 5 5 5 5 26 97 100 100 100 100 100 100 100 91 90 24 29 66 100 41 5 5 5 5
100 100 16 7 55 5 94 100 100 50 5 16 33 5 5 10 7 5 5 10 11 12 82 100 100 100 100 100 100 100 100 98 73 5 5 14 5 24 5 5 5 5 8 5
100 99 88 83 99 93 85 100 100 100 89 66 72 22 5 17 18 23 77 80 83 81 100 100 100 100 100 100 100 100 58 7 8 23 50 12 5 5 5 5 41 17 5 5
100 100 100 94 100 88 81 98 100 100 100 99 100 84 72 29 27 70 64 87 100 100 100 100 100 100 100 100 90 12 15 6 23 50 58 15 7 14 5 13 16 5 3 1

GFSCGP_prec_cloud_060.txt.gz
Cloud_Cover
0 0 0 0 13 16 6 99 84 96 54 100 58 100 100 100 100 100 100 100 100 100 100 88 99 100 85 68 100 100 100 100 100 91 79 51 20 100 100 100 100 100 100 100
0 2 4 1 88 72 95 100 100 89 98 98 100 100 100 100 100 99 100 100 100 100 100 100 100 100 100 100 100 100 99 100 100 98 100 100 100 100 100 100 100 100 100 100
0 1 5 1 5 5 12 88 96 100 100 100 100 100 100 100 100 100 100 100 100 100 100 100 100 100 100 100 100 100 74 17 38 100 100 100 100 100 100 100 100 100 100 100
0 0 0 0 1 5 19 68 100 100 100 100 100 100 100 100 100 100 100 100 100 100 100 100 100 100 100 98 99 99 91 68 83 100 99 100 100 100 94 100 87 78 70 33
0 0 0 0 0 5 7 89 97 94 89 99 99 96 100 100 100 100 100 100 98 98 29 26 66 93 76 67 100 100 100 89 97 95 100 97 100 100 77 91 90 100 98 76
2 1 0 0 1 5 22 65 13 5 10 49 50 100 100 99 100 94 100 100 100 84 9 5 14 36 44 78 74 100 100 90 100 100 100 100 100 100 42 86 47 99 62 1
0 5 5 4 4 5 18 98 52 18 29 48 28 87 48 100 100 97 100 100 82 68 46 30 33 54 97 66 50 44 45 100 100 100 100 100 100 100 94 17 14 66 90 5
0 3 5 0 0 4 5 60 100 70 7 89 100 96 100 66 52 84 89 85 77 100 95 57 53 24 36 98 76 9 95 100 100 100 100 100 100 99 16 39 95 98 87 50
0 0 0 5 5 8 5 75 82 96 79 76 98 100 100 99 89 100 100 13 68 100 100 100 100 99 58 35 32 46 96 100 100 100 100 100 100 77 96 7 5 60 73 82
5 0 1 4 5 5 5 16 66 98 53 67 62 100 92 92 99 99 100 91 78 99 73 68 97 45 5 5 24 79 71 99 100 100 100 100 97 22 12 5 100 100 96 96
6 19 0 3 4 4 5 5 22 99 100 22 5 43 5 5 5 37 18 59 31 66 96 45 51 37 5 5 7 61 79 71 41 22 25 28 0 58 49 76 100 93 100 94
97 94 4 1 5 4 0 0 2 5 25 37 16 5 5 29 99 38 29 16 20 30 11 5 1 5 31 35 51 59 74 30 4 0 3 5 5 49 85 94 92 100 100 100
36 96 48 1 5 6 0 0 1 2 5 5 67 5 5 4 1 3 2 3 14 0 3 2 1 4 2 0 15 19 28 48 89 46 98 83 54 5 73 100 68 100 100 100
5 42 100 92 5 5 2 0 0 17 41 5 16 38 2 1 0 1 3 4 0 0 0 2 0 0 0 1 0 46 15 86 54 80 69 74 82 21 100 100 100 100 100 100
2 5 68 100 47 4 5 4 0 25 92 22 5 46 93 0 0 42 47 5 0 0 2 3 0 0 0 4 5 36 66 51 7 44 99 93 93 100 100 100 91 100 100 100
5 5 71 100 16 5 4 0 3 97 100 100 19 72 100 0 0 0 3 4 2 0 4 5 3 2 0 4 5 5 5 5 5 5 11 100 100 100 100 100 100 100 100 100
7 5 99 100 57 4 3 0 2 58 100 100 100 94 5 0 0 0 0 4 5 4 5 0 5 0 0 0 0 2 5 5 12 93 100 100 100 100 100 100 100 100 100 100
17 94 100 100 61 36 12 1 0 1 65 66 78 3 0 0 0 4 5 0 5 5 5 5 5 4 2 3 5 14 67 97 96 100 100 100 100 100 100 99 100 100 100 94
98 100 100 97 12 91 95 3 1 0 4 15 4 0 0 5 5 5 0 0 5 5 5 5 5 5 5 5 11 60 98 100 100 100 100 100 100 88 100 100 100 100 100 96
100 100 100 69 98 100 23 3 0 0 22 62 0 0 0 4 5 4 0 1 5 5 19 15 36 36 44 62 58 42 100 100 100 100 100 100 100 100 100 100 100 98 59 97
100 100 100 100 93 100 98 14 17 2 2 5 64 16 5 4 0 2 5 3 5 5 5 5 5 5 5 41 52 77 100 98 100 100 100 100 100 93 99 69 39 50 72 79
100 100 100 100 77 100 48 5 4 9 6 8 90 100 86 6 2 4 5 5 5 5 5 5 5 5 5 23 34 20 71 99 100 100 96 89 80 66 29 7 30 34 52 92
100 100 100 100 96 100 100 74 12 7 5 5 5 63 97 99 14 5 5 5 5 5 5 5 5 6 36 13 5 42 99 100 100 100 99 77 38 5 5 5 6 18 80 75
100 100 100 100 100 100 100 100 9 2 5 5 6 91 100 95 84 34 34 65 64 53 39 35 6 24 57 69 91 100 100 100 97 54 25 6 5 5 5 5 5 10 5 9
100 100 100 100 100 100 100 58 97 13 36 19 33 95 100 100 100 100 48 39 17 27 44 48 61 79 82 100 100 100 87 28 5 5 5 5 5 5 5 5 5 5 5 5
100 100 100 100 100 100 95 99 65 17 77 92 79 100 100 100 100 100 100 100 100 100 100 100 100 100 100 99 100 100 26 5 5 5 5 5 5 5 5 12 12 72 74 99

GFSCGP_prec_cloud_063.txt.gz
Cloud_Cover
0 0 0 0 0 0 2 48 100 88 15 66 100 100 100 100 100 100 100 100 100 100 100 100 100 100 100 5 7 99 79 100 30 32 100 100 100 100 100 100 100 100 100 100
0 0 0 0 0 2 5 5 67 19 100 64 100 99 100 100 100 100 100 100 100 99 29 41 100 100 95 88 97 91 88 97 100 100 100 97 66 88 98 100 100 100 84 98
0 3 0 0 0 4 2 80 57 96 100 100 100 100 100 100 100 100 100 87 100 100 100 100 100 100 100 100 100 100 100 100 100 72 7 5 12 15 44 63 100 100 100 100
0 0 3 0 0 0 5 19 64 60 63 100 100 100 100 100 100 100 100 100 100 100 100 100 100 100 100 100 100 100 100 100 76 86 52 79 94 50 61 74 96 100 100 100
0 5 5 2 0 0 4 5 51 99 24 78 99 100 94 98 99 74 100 100 100 99 99 100 100 100 100 98 75 79 98 100 79 75 89 96 9 55 91 94 100 100 100 90
1 4 13 5 0 0 0 5 19 57 80 95 99 72 32 64 100 100 92 100 30 61 85 91 94 67 98 89 93 99 52 10 26 26 17 72 64 100 96 100 100 100 100 36
5 1 7 7 5 0 0 2 6 46 99 100 65 97 97 85 98 100 100 100 85 5 7 33 94 96 57 59 88 77 73 98 93 100 100 100 100 100 100 100 100 100 100 88
5 2 4 12 17 5 0 0 5 79 73 99 100 99 84 98 81 100 100 100 89 84 6 5 5 55 5 28 92 100 94 75 71 71 100 100 100 100 100 100 100 100 100 100
8 4 0 41 9 8 28 1 0 5 31 14 100 100 8 68 93 72 100 100 100 100 40 7 24 36 55 46 49 85 35 22 44 97 98 100 100 100 100 100 100 100 99 88
31 5 0 5 5 4 5 3 0 0 5 45 91 100 100 44 73 84 100 100 100 100 100 89 58 7 10 30 41 5 41 83 92 98 100 98 100 100 100 100 100 72 87 92
4 5 1 0 2 5 5 3 0 1 0 91 99 100 100 100 100 27 15 74 98 100 100 100 99 19 5 14 19 43 16 10 28 92 100 100 100 100 100 100 100 90 98 100
5 5 5 5 4 4 5 4 5 5 1 1 99 100 84 6 82 99 88 100 100 99 24 6 5 5 6 5 5 9 90 62 65 76 98 100 100 100 100 100 100 100 100 100
8 23 5 5 5 2 5 5 4 4 0 3 100 98 6 5 41 75 3 6 5 5 3 1 0 1 5 15 28 73 100 100 100 100 100 100 100 100 100 100 100 100 100 100
30 100 51 5 3 1 8 21 3 5 2 0 48 100 20 6 90 87 11 2 0 0 0 0 2 4 5 23 46 48 77 100 100 100 100 100 100 100 100 100 100 100 100 100
27 90 49 5 5 5 68 89 5 5 0 0 86 35 100 94 100 85 85 3 0 2 2 2 0 4 56 5 11 20 48 60 100 100 100 100 100 100 100 100 100 100 100 100
81 60 5 5 10 94 99 100 38 5 19 0 2 89 70 100 100 100 76 5 5 5 5 5 5 5 5 5 5 5 43 53 30 51 99 100 100 100 100 100 100 100 100 100
40 7 11 5 5 5 97 26 31 5 31 3 0 68 96 20 76 100 64 5 5 3 0 3 0 1 9 27 24 55 56 51 39 39 46 69 97 100 100 100 100 100 100 100
100 39 26 6 5 22 100 100 86 5 5 0 1 68 100 39 19 40 4 0 5 4 2 3 4 4 4 5 5 5 5 8 37 84 86 98 100 100 100 100 100 100 100 98
79 89 87 5 5 34 99 100 5 1 41 0 2 0 0 11 100 67 5 5 5 5 5 5 3 5 5 5 11 13 67 99 100 100 100 100 100 98 88 100 100 69 87 100
100 100 86 100 40 75 100 100 100 5 98 0 0 0 0 1 80 100 93 5 6 25 24 5 5 5 5 6 43 66 85 84 100 99 100 89 77 100 100 98 98 92 47 5
100 100 100 100 100 52 100 100 89 9 93 36 5 5 0 5 11 89 89 60 85 92 56 33 49 6 6 18 83 79 83 100 100 71 86 99 94 80 100 31 6 5 11 31
100 100 100 100 100 100 99 38 99 98 100 90 14 64 5 15 13 12 20 10 67 78 100 99 97 95 97 99 79 77 80 53 69 99 99 97 100 72 6 14 5 11 45 5
100 100 100 100 100 20 80 93 100 98 100 100 100 30 5 67 50 19 7 66 99 98 69 79 100 100 100 90 19 5 20 83 92 95 97 98 11 5 15 5 50 58 7 57
100 100 100 100 71 100 100 100 100 91 33 100 100 99 44 61 20 5 26 15 17 45 59 33 7 20 35 68 87 84 96 97 92 96 28 5 5 5 33 58 62 27 26 55
100 100 100 100 96 100 100 100 100 93 100 100 100 51 6 92 92 70 14 10 9 16 20 73 88 96 94 93 61 84 87 84 48 27 10 5 5 18 65 41 38 38 48 28
100 100 100 100 100 100 100 100 100 100 100 100 100 81 32 95 100 100 92 71 79 74 51 61 92 92 100 97 96 100 100 100 100 100 97 69 38 71 74 77 77 79 50 47

GFSCGP_prec_cloud_066.txt.gz
Cloud_Cover
16 4 1 0 0 1 5 8 100 100 7 90 100 100 100 100 100 100 100 100 100 100 100 100 100 100 29 15 32 98 100 100 100 100 100 100 100 100 100 100 100 100 100 100
5 5 2 0 0 0 0 8 32 19 5 13 94 100 100 100 100 96 100 100 100 100 95 100 98 99 100 100 94 14 58 90 99 100 100 100 100 100 100 100 100 100 99 98
5 5 3 0 0 0 5 37 29 19 6 43 58 96 79 97 100 100 100 100 100 98 100 100 100 95 35 51 99 99 37 98 100 100 100 100 100 60 61 90 100 100 100 99
5 5 2 4 2 0 5 1 5 38 64 100 94 100 56 92 98 97 100 45 100 100 100 67 32 98 74 100 100 100 100 100 100 100 100 100 100 80 78 98 91 100 100 84
5 5 5 1 4 5 38 0 3 33 100 57 99 57 100 5 5 8 70 93 91 100 100 100 46 82 100 100 100 90 100 100 53 100 100 100 43 13 62 58 100 100 100 95
8 5 21 5 5 5 2 0 0 4 86 100 100 100 100 99 48 5 83 100 100 100 100 98 96 100 93 84 46 87 6 11 81 42 33 26 9 55 89 89 100 100 100 100
86 5 5 5 18 49 5 2 29 4 5 36 16 5 32 53 96 100 27 18 87 44 92 96 100 100 18 5 11 20 29 10 34 14 43 76 90 94 100 100 100 100 100 100
83 24 5 5 17 5 11 5 49 5 2 5 16 18 18 69 28 24 35 77 24 22 5 5 14 10 39 93 99 19 49 23 74 96 91 81 100 100 100 100 100 100 100 100
98 5 5 5 4 18 71 91 24 5 0 5 5 5 11 44 45 19 49 23 5 10 5 5 5 5 5 5 83 11 15 5 8 51 98 89 100 100 100 100 100 100 100 100
100 66 33 7 5 5 22 22 10 5 13 8 5 20 7 21 94 100 100 100 99 75 15 5 5 5 5 5 5 33 73 5 5 45 100 89 92 84 100 100 100 96 100 100
100 96 47 21 5 23 26 41 42 25 5 5 5 4 33 16 23 51 82 40 91 43 40 100 11 14 35 16 13 34 33 5 5 6 28 54 100 100 100 100 100 100 100 100
94 96 100 5 1 5 10 36 7 18 18 4 0 2 6 9 25 6 91 36 54 5 41 100 100 82 11 5 5 2 0 3 1 3 44 100 100 100 100 100 100 100 100 100
95 98 10 5 2 5 5 14 5 5 5 5 5 0 1 3 1 95 74 5 5 8 100 100 97 12 5 5 41 44 18 18 33 87 100 100 100 100 100 100 100 100 100 100
54 87 26 59 5 5 5 5 5 5 6 6 5 4 3 0 6 5 16 52 11 5 0 5 0 0 0 5 6 42 100 100 100 100 100 100 100 100 100 100 100 100 100 100
100 100 39 6 5 5 5 5 27 5 13 5 37 5 0 0 4 55 26 58 37 47 23 2 0 0 0 5 13 56 100 100 100 100 100 100 100 100 100 100 100 100 100 100
100 100 64 11 5 5 5 54 29 5 5 5 5 16 27 2 5 6 31 63 5 65 59 5 4 5 5 6 37 80 100 100 100 100 100 100 100 100 100 100 100 100 100 100
100 96 98 97 96 10 76 93 5 5 5 8 9 30 5 5 5 8 84 100 100 100 31 1 5 56 74 7 40 68 98 100 100 100 96 93 98 96 100 100 100 100 100 100
100 97 100 100 99 49 100 100 80 15 5 5 2 44 5 5 5 5 94 100 100 75 43 5 8 18 38 24 33 51 64 79 77 84 94 90 93 98 100 100 100 98 100 94
100 100 100 100 100 99 100 100 41 5 7 27 4 5 5 19 4 0 0 1 13 73 94 94 85 73 63 49 52 34 14 6 26 65 82 100 100 100 100 100 100 100 100 81
100 100 100 100 92 100 100 100 100 5 64 37 5 5 5 82 5 5 4 0 5 54 54 67 28 22 9 12 29 74 100 100 100 100 94 100 100 100 100 100 96 95 82 56
100 100 100 100 100 100 100 100 100 8 94 7 5 7 41 100 70 9 5 5 5 5 51 97 100 99 92 79 59 14 26 92 100 100 100 100 100 98 100 100 100 96 97 99
100 100 100 100 100 100 100 100 95 93 80 6 50 86 100 100 100 94 95 5 5 2 6 77 81 100 100 100 100 100 100 100 100 100 100 100 94 91 93 100 95 56 20 71
100 100 100 100 100 100 100 100 100 33 5 6 29 82 100 100 100 100 100 63 5 36 5 5 37 55 10 8 14 44 75 90 85 97 100 77 98 100 100 100 88 91 84 57
100 100 100 100 100 100 100 100 98 24 62 21 78 100 100 100 100 100 91 84 84 5 5 87 78 28 18 94 100 100 100 100 100 100 100 100 100 100 100 94 69 42 54 40
100 100 100 100 100 100 100 100 100 99 100 100 100 100 100 44 98 100 88 100 12 25 100 100 68 63 98 100 96 100 100 100 97 84 70 62 51 28 58 59 60 11 26 26
100 100 100 100 100 100 100 100 100 100 100 100 100 100 98 100 100 88 100 83 100 100 100 16 92 96 86 73 61 98 100 99 99 95 67 64 66 87 83 94 50 35 22 15

GFSCGP_prec_cloud_069.txt.gz
Cloud_Cover
100 17 91 96 90 5 5 78 69 100 73 99 100 100 100 100 100 100 100 100 100 100 100 100 100 100 100 100 100 100 100 100 100 100 100 100 100 100 100 100 100 100 100 100
100 100 96 27 0 0 2 94 95 78 25 15 99 100 100 96 93 63 100 100 100 97 100 100 100 100 100 95 90 59 100 100 100 100 100 100 100 100 100 100 100 100 100 100
100 100 100 0 1 2 6 98 99 47 76 23 49 100 100 94 87 76 100 100 100 100 100 100 98 100 100 96 100 99 94 100 100 100 100 100 100 100 82 97 100 100 100 100
100 100 98 5 5 61 100 83 2 1 21 100 81 96 95 92 100 32 100 100 100 100 100 81 98 91 100 23 27 86 100 91 54 53 36 49 90 96 100 100 100 100 100 74
100 100 100 5 5 26 64 6 0 0 10 97 100 71 100 100 98 94 82 100 100 100 100 100 100 100 100 47 95 15 100 89 87 92 35 85 100 100 100 100 100 100 94 59
100 100 100 34 5 5 13 0 2 2 46 98 97 85 82 96 91 98 94 100 83 100 100 100 99 56 64 24 92 100 94 80 90 44 76 100 98 85 79 85 90 100 100 100
62 100 100 82 5 5 5 39 96 62 100 48 55 36 41 100 81 100 66 30 100 99 73 99 43 53 56 74 44 38 44 4 35 64 20 16 68 41 100 94 100 100 100 100
100 100 100 99 5 12 5 65 96 80 100 91 2 2 97 6 28 50 14 88 15 98 100 100 57 100 93 21 5 5 5 81 96 100 100 96 79 51 68 100 100 88 100 100
100 100 100 100 5 54 98 61 83 99 13 2 26 84 3 1 6 67 21 27 8 5 5 30 98 27 5 5 27 39 57 58 61 98 74 54 47 71 89 97 100 100 100 100
100 100 100 100 94 38 23 71 58 37 98 99 75 98 100 29 5 5 5 5 8 5 5 10 5 5 5 5 5 27 9 54 79 79 96 75 96 100 100 80 98 100 100 100
100 100 100 100 100 73 10 33 80 98 100 100 100 99 100 4 5 4 5 5 5 5 5 28 11 25 5 44 9 36 25 24 49 80 49 91 100 100 100 80 100 100 100 100
100 100 72 100 100 100 94 36 85 99 94 38 82 39 98 37 4 4 0 5 5 5 0 0 4 5 5 5 5 5 20 14 29 41 98 74 100 100 100 100 100 100 100 100
91 47 97 100 100 100 23 92 99 85 81 83 93 11 69 9 0 0 1 5 5 2 4 5 3 5 34 20 2 2 35 60 71 56 84 74 100 100 100 100 100 100 100 100
52 36 100 100 100 100 69 65 46 75 96 7 6 39 100 86 100 99 58 28 61 67 6 5 3 3 0 0 0 0 4 11 68 70 81 81 100 100 100 100 100 100 100 100
5 66 100 100 100 100 83 91 77 12 13 53 33 99 58 97 100 9 100 94 17 82 7 98 100 88 84 2 18 68 68 61 46 62 90 100 100 100 100 100 100 100 100 100
19 33 100 100 100 100 100 99 87 17 22 5 45 7 29 11 6 5 0 0 0 78 100 100 100 100 100 48 99 100 100 100 100 100 100 100 100 100 100 100 100 100 100 100
75 71 100 100 100 100 58 100 100 68 44 5 5 28 90 86 5 5 5 5 0 5 29 91 100 94 39 88 100 100 100 100 100 100 100 100 100 100 100 100 100 100 100 100
100 96 100 100 100 34 100 100 100 88 92 87 7 5 9 5 5 2 5 5 5 5 45 1 6 59 54 100 100 100 100 100 100 100 100 100 100 98 100 100 100 100 100 100
100 100 100 96 100 100 100 100 100 100 100 73 8 5 5 5 5 5 5 5 22 5 5 5 0 6 25 37 42 54 68 85 89 100 100 95 87 81 100 99 100 100 78 91
100 100 100 100 100 100 100 100 100 100 79 97 5 54 59 5 6 5 83 46 100 100 39 7 5 5 1 3 6 22 32 97 94 94 78 74 98 100 79 42 78 56 67 76
100 100 100 100 100 100 100 100 100 100 100 47 52 46 25 51 13 5 7 96 100 100 100 88 35 6 5 5 5 88 100 91 91 90 73 81 100 83 86 95 100 100 100 100
100 100 100 100 100 100 100 100 100 100 100 100 100 55 95 28 10 32 5 28 35 99 100 100 99 87 84 25 5 82 36 51 52 82 100 100 100 100 100 100 100 100 100 100
100 100 100 100 100 100 100 100 100 100 100 100 83 88 91 27 68 9 55 73 94 28 77 100 100 100 71 95 51 99 47 66 100 100 100 100 100 100 100 100 100 100 76 100
100 100 100 100 100 100 100 100 100 100 100 100 100 100 100 40 97 100 100 77 55 69 100 100 100 73 68 13 48 100 36 17 74 72 90 100 98 86 9 5 5 72 96 70
100 100 100 100 100 100 100 100 100 100 100 100 100 64 14 100 100 100 100 100 100 98 89 55 6 9 64 100 100 90 69 57 67 93 99 78 71 30 57 43 32 35 95 46
89 100 100 100 100 100 100 100 100 100 100 100 93 44 49 98 76 49 92 100 36 98 94 56 85 100 100 100 95 72 94 82 93 100 95 83 75 60 61 77 100 94 49 70

GFSCGP_prec_cloud_072.txt.gz
Cloud_Cover
5 86 100 100 100 33 12 24 93 99 17 5 3 100 100 76 100 100 98 99 70 5 42 5 52 76 83 85 100 100 100 100 100 100 100 100 100 100 100 100 100 100 100 100
80 62 100 100 100 37 0 1 3 26 82 0 24 80 96 87 100 95 100 100 100 100 100 97 97 83 100 89 87 94 100 100 100 97 100 100 100 99 100 100 100 100 100 100
10 58 100 100 100 78 2 4 82 94 100 14 6 73 77 26 54 98 100 100 100 91 99 22 58 99 100 79 98 100 100 100 97 72 5 65 100 100 100 100 100 100 100 100
92 10 100 100 100 99 27 90 95 4 13 82 17 6 64 71 94 57 100 100 100 100 100 92 100 38 100 100 100 22 32 33 77 100 98 10 100 100 100 100 100 100 100 100
98 14 100 100 100 100 13 5 5 2 5 17 85 41 100 93 29 88 71 100 100 100 100 100 100 100 100 100 100 100 92 70 87 84 100 77 70 94 87 61 100 95 72 100
94 95 96 100 100 100 18 2 2 0 1 3 88 25 98 100 91 100 52 100 99 100 100 100 100 100 100 100 100 100 22 5 99 100 100 100 100 100 100 100 51 100 97 99
100 94 90 100 100 100 99 5 10 61 62 29 70 79 5 36 76 13 59 48 91 100 100 100 100 100 100 100 100 100 100 97 100 100 100 100 100 100 95 100 99 100 100 89
93 68 100 100 100 100 100 5 33 99 68 36 99 73 2 70 7 5 5 7 14 94 15 100 78 59 52 57 93 100 100 14 9 86 100 57 32 5 20 91 39 81 100 99
100 98 100 68 100 100 100 72 12 100 71 54 31 99 16 82 68 5 3 69 14 7 9 29 64 94 19 7 5 5 34 5 5 7 72 5 5 5 5 5 5 53 100 85
100 100 52 100 100 100 100 100 27 63 44 57 8 42 98 86 86 17 0 2 4 4 4 1 11 9 59 83 57 5 5 5 5 5 5 34 30 34 14 6 44 100 91 100
100 100 94 100 98 100 100 100 83 24 9 5 5 86 99 99 62 78 4 4 3 0 1 3 3 72 93 96 96 83 5 39 51 5 5 52 98 100 100 96 25 50 41 90
100 100 55 100 100 100 100 100 100 100 14 99 32 72 46 14 68 71 3 0 1 4 0 0 5 5 5 26 95 83 86 59 5 33 100 46 17 79 100 100 100 91 94 100
100 68 99 100 100 98 100 100 100 100 5 6 74 11 5 5 12 5 8 1 3 0 0 0 0 4 3 2 11 41 100 100 96 98 99 57 74 97 66 100 100 100 100 100
100 100 95 52 93 92 42 53 100 100 59 34 10 63 6 100 16 25 5 59 99 100 6 0 0 0 0 1 3 2 2 20 54 25 56 91 100 100 100 100 100 100 100 100
100 100 92 80 96 93 53 97 100 100 76 83 29 14 1 88 98 32 91 77 3 95 100 1 4 5 64 21 90 68 38 5 8 82 100 100 100 100 100 100 100 100 100 100
100 100 100 100 77 61 100 100 100 100 60 100 28 5 5 45 54 51 62 6 5 5 5 5 0 0 16 96 100 99 48 75 79 100 100 100 100 100 100 100 100 100 100 100
100 100 100 100 100 100 38 74 100 100 100 100 91 55 5 99 50 5 13 6 5 5 5 3 0 0 2 5 0 15 74 100 100 100 100 100 100 100 100 100 100 100 86 94
100 100 100 100 100 78 100 89 100 100 100 100 89 96 64 10 5 91 52 2 4 5 5 5 12 1 0 0 3 90 94 100 100 100 100 100 100 100 100 100 100 100 99 87
100 100 100 100 100 89 26 100 100 100 100 100 100 100 100 83 100 24 28 5 5 5 5 5 7 5 4 5 66 100 100 100 100 100 100 100 100 100 100 100 100 89 98 99
100 100 97 100 100 100 100 100 100 100 100 100 100 100 100 100 95 81 8 5 5 5 5 5 5 14 9 64 59 61 98 100 100 100 100 97 65 70 51 77 100 100 100 100
100 100 100 100 100 100 100 100 100 77 100 100 100 100 99 97 100 100 47 100 100 28 5 5 10 34 68 77 46 86 93 84 99 99 48 30 40 50 69 99 90 53 66 58
100 100 100 100 100 98 100 100 95 99 100 100 100 92 63 100 100 100 94 31 53 26 6 62 44 52 48 69 29 78 88 84 51 82 27 100 100 67 90 95 60 80 84 19
100 100 100 100 100 100 100 100 100 100 100 100 100 100 100 100 100 94 13 6 49 6 6 32 100 100 94 53 20 46 95 32 70 96 100 100 89 49 86 61 64 86 100 78
100 100 100 100 100 100 100 100 100 100 100 100 100 100 100 100 100 100 100 89 89 59 16 50 6 14 25 58 92 100 74 58 100 100 99 66 100 99 100 100 82 99 86 66
100 100 100 100 100 100 100 100 100 100 100 100 100 100 100 100 100 100 100 100 97 73 30 6 78 59 97 81 24 50 98 100 99 55 77 67 27 98 66 98 98 93 100 100
49 95 100 100 100 100 100 100 100 100 100 100 100 100 100 100 79 66 6 17 72 15 9 72 97 85 83 90 100 100 99 58 59 46 100 100 100 97 100 100 99 89 99 100

GFSCGP_prec_cloud_075.txt.gz
Cloud_Cover
5 5 4 96 43 63 100 100 64 5 99 99 5 5 34 70 8 100 100 76 100 100 90 64 51 84 64 89 100 100 100 100 100 100 100 100 100 100 100 100 100 100 97 100
5 48 5 0 22 100 100 100 100 4 100 4 5 0 4 2 4 17 15 85 100 100 100 100 32 25 69 67 100 100 100 100 100 100 100 100 82 77 100 100 100 100 100 100
4 29 5 38 32 100 100 100 100 30 57 5 10 0 4 2 0 0 2 30 98 100 100 100 97 97 33 19 100 100 100 100 100 100 100 100 100 96 99 100 100 100 100 100
5 12 5 100 100 100 100 100 100 44 5 0 8 3 2 61 92 4 24 93 84 45 100 100 67 82 2 4 100 100 100 100 100 100 100 100 100 100 96 100 100 100 100 100
35 45 21 5 90 100 100 100 100 84 0 0 2 5 6 3 5 5 3 43 80 5 9 92 100 100 100 99 97 56 96 100 100 100 100 87 30 55 96 98 100 100 90 100
6 27 5 20 6 97 100 100 100 100 4 0 2 81 5 4 5 4 3 78 34 98 77 5 5 57 100 97 73 90 48 61 92 30 12 1 5 88 52 81 5 43 64 88
77 34 8 32 98 100 100 100 100 100 5 0 22 56 0 4 2 1 13 8 69 70 83 75 3 84 75 21 98 100 100 92 61 7 26 5 5 4 5 5 90 9 33 60
12 43 99 99 53 100 100 100 100 100 15 39 16 57 18 2 0 5 56 5 47 10 100 100 60 92 94 9 3 0 48 98 100 51 57 97 21 8 8 75 5 5 5 71
7 96 100 24 84 100 100 100 82 100 100 80 69 54 84 96 79 14 5 2 0 4 5 4 58 49 5 87 100 100 100 100 100 100 97 88 93 14 5 5 15 52 62 94
85 84 95 100 91 100 86 100 100 100 100 88 5 5 50 45 39 42 1 0 0 0 0 2 2 4 31 5 5 37 33 14 7 37 30 19 65 14 5 28 43 51 99 100
93 24 99 100 15 100 100 100 100 100 100 97 10 19 5 58 64 29 14 3 4 1 0 0 0 1 4 5 20 7 63 15 76 100 100 100 33 34 95 100 100 100 100 100
11 46 100 98 89 100 100 100 100 100 100 100 98 6 5 28 15 14 88 53 4 0 0 0 0 0 0 45 100 100 81 100 100 100 100 100 5 75 100 100 100 100 100 100
45 100 100 100 100 99 99 89 100 100 100 100 100 25 12 60 100 100 2 16 5 0 0 7 0 0 0 0 2 90 99 99 100 100 100 100 100 97 94 100 100 100 100 100
100 100 60 100 100 100 100 100 100 100 19 100 100 100 98 98 92 16 60 39 1 0 40 27 57 3 0 0 0 0 10 13 40 79 94 99 100 100 100 100 100 100 85 100
16 95 100 100 100 100 100 100 99 23 100 68 100 100 100 5 5 38 95 5 44 8 17 4 5 4 0 0 3 10 61 90 78 100 100 100 100 100 100 100 100 100 100 100
20 90 100 100 100 100 100 100 10 29 60 100 100 100 100 100 99 39 86 98 5 5 0 0 1 5 5 87 16 42 74 85 100 100 100 100 100 100 100 100 100 100 100 100
99 93 100 100 100 100 95 100 99 60 37 100 100 100 100 100 100 7 68 58 36 6 4 0 0 20 5 1 31 100 99 70 88 100 100 100 100 100 100 100 100 100 100 100
98 94 100 100 100 100 62 100 85 28 93 100 100 100 100 100 100 11 99 82 80 34 2 0 0 0 5 16 42 51 57 75 97 100 100 100 100 100 100 100 100 100 100 100
100 100 100 100 100 100 100 100 100 100 100 100 100 100 100 100 100 100 100 100 14 97 31 1 3 10 5 5 5 10 47 34 89 100 100 100 100 100 100 100 100 100 85 52
100 100 100 100 100 100 100 100 100 100 100 100 100 100 100 100 100 100 100 100 83 100 33 5 5 5 5 5 5 40 96 80 100 100 100 100 100 100 100 100 98 100 99 48
100 100 100 100 100 100 100 100 100 100 100 100 100 56 100 100 100 100 100 100 100 100 100 96 7 5 25 12 10 56 93 100 100 100 100 100 100 75 46 96 100 73 41 35
70 100 100 100 100 100 100 100 100 98 100 100 100 76 87 98 82 100 61 98 100 100 100 100 36 5 5 86 82 57 67 100 100 100 99 100 100 99 68 76 74 10 38 94
90 100 100 100 100 100 100 100 100 100 100 100 100 100 100 100 86 100 100 100 98 100 100 97 100 100 50 87 93 96 42 61 100 100 100 95 100 100 84 92 8 6 48 100
100 100 100 100 100 100 100 100 100 100 100 100 98 89 100 100 99 100 76 47 36 96 14 32 10 34 82 90 66 38 5 35 100 100 100 100 99 100 97 57 91 65 87 94
91 100 100 100 100 100 100 100 100 100 100 100 95 100 99 93 96 81 100 100 100 100 30 7 5 77 31 68 99 100 87 96 100 100 100 100 100 100 100 100 100 100 100 100
100 100 100 100 100 100 100 100 100 100 100 100 100 100 99 80 100 100 100 100 100 84 70 63 70 40 87 100 100 100 100 100 100 100 100 100 100 100 100 100 100 100 100 100

GFSCGP_prec_cloud_078.txt.gz
Cloud_Cover
100 100 31 4 2 5 0 0 3 99 100 100 2 2 5 17 56 100 100 100 100 95 46 43 99 100 100 100 100 100 100 100 100 100 100 100 100 100 100 100 100 100 100 100
100 100 98 100 17 5 0 0 2 99 100 100 5 5 5 2 4 1 2 0 1 1 76 80 64 100 100 100 92 100 100 100 100 100 98 100 100 100 100 100 100 100 100 100
100 100 100 100 5 5 26 3 3 49 100 100 13 0 0 0 5 0 5 20 5 5 47 100 99 100 100 100 90 100 100 100 100 100 100 70 84 100 100 99 100 100 100 100
41 100 100 81 5 7 46 5 97 25 99 100 17 0 0 3 0 0 0 5 99 15 85 51 86 73 89 79 66 91 100 100 100 100 100 99 94 58 62 100 100 100 100 100
100 100 100 67 100 46 78 5 98 91 95 100 57 1 0 0 0 0 0 67 81 95 7 100 38 5 100 100 75 95 47 100 100 100 100 100 100 100 100 82 72 41 38 99
100 100 100 100 75 52 95 67 24 96 93 100 75 10 2 1 0 0 0 0 49 90 3 6 5 27 60 44 100 100 57 77 70 96 100 100 100 100 100 100 100 100 87 100
100 100 100 100 100 98 98 92 35 5 4 92 98 96 5 0 0 2 0 0 17 58 5 5 5 5 6 33 87 99 100 100 100 100 100 100 100 100 100 100 89 67 98 100
100 100 100 100 96 100 100 97 70 29 2 87 92 100 6 0 0 0 0 0 1 10 98 50 35 93 3 43 7 24 24 60 94 100 100 100 100 100 100 64 37 15 16 30
100 100 100 99 92 86 98 55 92 5 5 92 85 100 73 4 1 0 1 5 0 0 0 4 26 6 90 39 6 4 66 6 1 2 5 5 2 19 5 5 42 5 13 73
100 100 100 100 98 86 13 92 42 26 37 56 14 95 92 19 5 5 5 5 32 0 0 0 0 0 0 11 97 100 59 95 100 93 72 85 94 43 23 84 99 75 18 98
100 100 100 100 15 96 100 100 98 99 65 7 57 98 100 100 23 30 22 5 5 11 5 4 0 0 0 0 8 74 100 58 100 100 100 100 100 40 57 100 100 100 100 100
100 96 51 100 100 58 20 90 67 8 100 61 6 95 100 100 68 8 5 5 1 0 4 5 2 0 0 0 5 43 53 100 99 53 100 100 90 88 100 100 100 100 100 100
88 53 63 100 79 23 98 99 100 47 100 37 70 100 58 100 93 78 5 10 37 5 1 0 5 0 0 0 0 0 1 69 100 100 42 74 92 94 75 100 100 100 100 100
100 48 3 24 60 76 69 100 100 100 100 100 100 100 5 100 78 80 76 29 90 74 11 0 5 2 0 0 0 0 0 0 0 31 70 98 100 92 93 100 100 100 100 100
100 71 5 2 100 100 100 61 100 100 100 100 100 100 8 19 67 100 54 100 100 34 3 5 2 1 4 6 12 27 51 58 27 53 97 100 100 100 100 100 100 100 100 100
87 86 64 43 92 100 100 96 100 100 100 100 100 14 100 5 89 59 91 100 59 5 61 5 32 20 0 5 65 100 100 100 98 100 100 100 100 100 100 100 100 100 100 100
100 89 35 0 5 100 98 9 100 100 100 100 100 100 100 100 99 59 100 100 100 8 8 5 61 68 16 22 93 100 100 100 100 100 100 100 100 100 100 100 100 100 100 100
100 100 100 74 77 100 9 100 100 100 100 100 100 100 100 96 100 84 16 100 100 87 8 5 5 100 100 97 100 100 100 100 100 100 100 100 100 100 100 100 100 100 100 100
100 100 80 99 12 39 62 96 100 100 100 100 100 100 100 100 96 54 5 97 100 100 77 16 5 39 79 100 100 100 100 100 100 100 100 100 100 100 100 100 100 100 100 100
100 100 100 66 24 17 95 100 100 100 100 100 100 100 100 100 71 5 100 100 100 100 100 83 74 61 93 46 36 72 100 100 100 100 100 100 100 100 100 100 100 100 100 100
100 100 100 100 39 70 99 100 100 100 32 100 100 100 100 100 100 100 77 100 100 100 100 29 7 33 100 57 23 54 100 100 100 100 100 100 100 100 100 100 100 100 100 80
100 100 100 100 93 100 100 100 100 100 100 100 100 100 100 100 100 100 100 100 100 100 100 42 90 100 100 100 93 15 60 82 100 100 100 100 100 100 100 100 100 100 82 47
100 100 100 100 78 100 100 100 100 100 99 100 100 98 100 100 100 100 100 100 100 91 100 100 100 98 100 100 100 92 68 70 100 100 100 100 100 100 100 100 100 100 100 100
100 99 100 94 100 100 100 100 100 100 100 100 100 100 100 97 97 100 100 100 96 100 100 100 100 100 100 96 100 96 46 87 89 95 100 100 100 100 100 100 100 100 100 100
100 100 94 33 99 100 100 100 100 100 100 100 100 100 100 100 98 80 95 84 58 84 99 100 100 100 82 58 100 100 100 100 100 100 100 100 100 100 100 100 100 100 100 100
100 97 88 93 100 100 100 100 100 100 100 100 100 100 100 100 100 100 100 100 100 95 91 100 100 100 90 43 75 99 100 100 100 100 100 100 100 100 100 100 100 100 100 100

GFSCGP_prec_cloud_084.txt.gz
Cloud_Cover
100 100 100 100 63 100 15 38 100 100 5 4 4 1 0 1 2 0 0 26 19 99 63 100 100 100 100 100 100 100 100 100 100 100 100 100 100 100 100 100 100 100 100 100
27 90 100 95 5 90 97 8 99 100 99 42 7 20 5 0 3 0 0 0 0 27 91 100 100 100 100 100 100 100 100 100 100 100 100 100 100 100 100 100 100 100 100 100
71 100 100 98 51 100 98 43 76 99 66 100 100 9 5 0 5 5 0 0 0 1 90 100 100 100 100 100 100 100 100 100 100 100 100 100 100 100 100 100 100 100 100 100
25 100 100 100 96 100 100 53 5 38 100 100 100 72 5 0 6 41 0 0 0 0 0 46 78 100 99 100 100 100 100 100 100 100 100 100 100 100 100 100 100 100 100 100
100 100 100 40 99 6 92 98 6 6 100 100 96 98 8 2 0 62 0 0 0 0 0 99 6 62 100 100 100 100 100 84 100 100 100 100 100 100 100 100 100 100 100 100
100 100 100 100 95 65 100 68 7 5 100 100 100 100 54 5 3 58 4 0 0 0 0 0 4 13 41 100 100 100 99 100 93 18 99 100 100 100 100 100 100 100 100 100
100 100 100 100 100 57 88 98 5 5 99 100 100 100 64 61 4 29 74 0 0 0 0 0 36 94 95 100 100 100 98 44 70 100 100 99 100 100 100 100 100 100 100 100
100 100 100 99 100 100 55 66 5 73 100 100 100 100 99 100 98 11 91 41 1 0 0 0 2 32 97 100 100 100 100 56 99 99 61 88 100 100 100 100 100 100 100 100
100 100 100 100 100 100 99 99 100 92 5 53 100 100 87 93 97 21 2 98 41 0 5 0 0 0 0 30 70 89 45 7 5 70 28 90 100 100 99 100 100 100 100 100
100 100 100 100 100 81 5 52 67 23 46 100 100 100 100 58 98 98 5 46 99 4 0 4 5 3 0 0 0 0 38 6 5 5 70 55 26 16 5 6 56 94 99 99
100 100 100 100 100 100 100 84 75 88 99 100 100 100 100 100 99 100 17 26 100 100 1 0 3 5 5 0 1 40 44 43 42 7 5 5 5 25 7 24 58 49 28 83
100 100 98 100 100 100 99 50 99 76 44 7 78 100 100 100 100 100 100 98 100 100 50 5 5 5 0 5 0 0 3 5 5 51 94 100 95 100 16 99 100 100 86 86
97 100 100 100 100 100 100 100 96 34 48 11 100 100 100 100 100 100 100 100 100 100 100 49 6 3 4 3 4 0 0 0 0 89 100 100 100 100 100 100 100 96 75 51
50 5 99 100 100 100 97 96 100 100 100 100 100 100 100 100 100 100 100 100 100 100 100 98 15 95 10 0 1 0 0 0 0 0 1 7 44 16 9 26 15 29 77 85
34 40 78 65 76 100 100 100 100 100 100 100 100 100 100 100 100 100 100 100 100 96 100 100 86 100 98 5 4 0 0 4 0 0 0 0 0 2 3 33 12 37 50 54
95 92 82 5 99 100 100 100 100 100 100 100 100 100 100 100 100 96 100 100 100 100 100 100 100 100 100 100 77 100 5 5 19 4 0 77 100 100 100 100 100 100 100 100
76 100 67 4 31 33 100 100 100 100 100 100 100 100 100 100 100 66 22 98 100 100 100 100 100 100 100 100 100 89 100 82 96 99 94 100 100 100 100 100 100 100 100 100
13 98 100 38 100 100 2 32 99 99 100 46 7 96 100 100 100 87 39 34 67 100 100 100 100 100 75 100 100 100 100 97 100 100 100 100 100 100 100 100 100 100 100 100
1 33 98 96 100 100 16 40 29 36 17 63 89 100 98 100 100 97 100 100 100 100 100 100 100 100 100 100 100 99 100 100 100 100 100 100 100 100 100 100 100 100 100 100
2 46 51 100 100 100 48 100 99 100 1 0 8 36 87 99 99 100 98 100 100 100 100 100 100 100 100 100 100 100 100 100 100 100 100 100 100 100 100 100 100 100 100 100
100 99 100 100 100 100 99 100 100 75 5 36 100 6 5 66 55 74 100 100 94 100 100 100 100 100 100 100 100 100 100 100 100 100 100 100 100 100 100 100 100 100 100 100
4 98 100 100 100 100 100 100 100 100 27 5 50 5 5 26 100 100 100 100 100 100 100 100 100 100 100 100 100 100 100 100 100 100 100 100 100 100 100 100 100 100 100 100
1 8 100 100 100 100 100 100 100 100 100 42 3 11 5 57 100 100 100 100 100 100 100 100 100 100 100 100 100 100 100 88 86 100 98 100 100 100 100 100 100 100 100 100
48 6 100 100 100 100 100 100 100 64 94 93 99 60 100 100 100 100 100 100 100 100 100 100 100 100 100 100 100 82 49 16 37 31 58 99 100 100 100 100 100 100 100 100
69 93 100 100 100 100 100 100 100 53 79 80 97 99 100 100 100 100 100 100 100 100 100 100 100 100 100 64 87 76 90 63 65 100 100 100 100 100 100 100 100 100 100 100
48 100 100 100 100 100 100 100 100 100 52 95 84 100 100 100 100 100 100 100 100 100 100 100 100 100 100 100 90 94 100 100 99 100 100 100 100 100 100 100 100 100 100 100

GFSCGP_prec_cloud_087.txt.gz
Cloud_Cover
88 79 100 100 100 31 9 100 17 5 5 22 12 5 5 9 5 1 0 0 0 0 1 63 100 100 100 100 100 100 100 100 100 100 100 100 100 100 100 100 100 100 100 100
5 82 100 100 100 70 74 100 100 2 5 72 14 4 97 54 5 2 0 5 0 0 2 21 97 100 100 100 100 100 100 100 100 100 100 100 100 100 100 100 100 100 99 100
90 98 100 100 100 85 62 100 92 4 61 100 9 4 99 99 5 5 0 5 0 0 0 7 100 100 100 100 100 100 100 100 100 100 100 100 100 100 100 100 100 100 100 100
100 99 100 100 100 100 99 100 42 93 100 100 36 40 45 57 5 5 0 9 1 0 0 0 90 87 80 50 100 100 100 100 100 100 100 100 100 100 100 100 100 100 100 100
100 100 100 100 100 100 100 100 52 100 100 100 12 99 85 100 16 5 16 50 17 0 0 0 6 37 100 100 100 100 100 100 100 100 100 100 100 100 100 100 100 100 100 100
100 100 100 100 100 100 100 100 82 74 87 100 28 91 100 100 60 25 7 10 8 5 0 0 0 8 44 100 100 100 100 100 100 100 100 100 100 100 100 100 100 100 100 100
100 100 100 100 100 100 100 100 95 5 58 99 15 28 100 99 77 90 55 87 12 5 5 0 0 0 0 75 100 100 100 82 94 100 81 91 100 100 100 100 100 100 100 100
99 100 100 100 100 100 100 100 88 51 34 100 88 68 100 100 22 74 80 37 88 65 8 1 0 0 0 3 100 100 100 100 100 100 94 97 71 100 100 100 100 100 100 100
100 100 100 100 100 100 100 100 100 43 34 80 13 100 100 100 13 84 100 33 72 89 89 5 0 0 0 0 26 100 100 100 80 52 94 46 92 100 100 100 100 100 100 100
100 100 100 100 100 100 100 100 91 8 5 62 100 100 100 100 100 100 100 100 67 38 66 54 4 0 0 0 2 100 100 99 16 29 24 52 100 100 77 48 73 22 12 82
77 100 100 100 100 100 100 68 98 6 5 16 93 100 100 100 66 69 100 100 32 24 100 100 33 2 0 0 0 10 42 10 5 4 7 28 21 5 10 4 5 5 9 13
100 97 100 100 100 100 100 100 100 43 5 5 68 100 100 100 49 100 100 100 5 5 6 92 100 49 4 0 0 0 0 2 5 7 5 5 5 14 100 100 96 32 100 100
100 68 100 100 100 100 100 73 11 18 5 5 16 100 100 100 100 100 100 100 79 99 100 67 43 100 37 4 76 5 0 0 0 10 64 98 70 98 90 72 100 100 100 100
86 100 100 100 100 100 100 100 100 87 4 18 78 100 100 100 100 89 100 100 100 79 97 100 100 37 100 19 100 49 5 0 0 0 0 9 67 57 72 100 100 100 72 83
100 60 97 100 100 100 100 100 99 5 4 6 99 100 100 100 100 74 100 100 100 100 100 100 100 100 87 82 32 100 91 7 3 2 4 1 0 0 0 1 4 1 70 19
90 100 93 93 100 100 100 100 100 98 98 4 61 23 100 100 100 100 100 100 100 100 100 100 100 100 100 86 92 100 100 100 91 6 8 5 4 0 0 0 0 19 60 91
5 99 100 13 7 13 31 97 99 87 98 64 3 93 100 100 100 100 97 97 96 100 100 100 100 100 100 100 99 100 100 100 100 98 5 15 34 36 79 97 100 100 100 100
9 73 60 21 5 52 0 2 6 40 5 0 82 100 100 100 100 100 100 100 100 100 100 100 100 100 100 100 100 100 100 100 100 100 99 100 100 100 100 100 100 100 100 100
2 13 91 19 5 0 0 0 86 24 69 4 0 14 100 100 100 100 100 100 100 100 100 100 100 98 100 100 100 96 100 100 100 100 100 100 100 100 100 100 100 100 100 100
0 3 62 35 68 67 0 100 100 82 4 11 8 5 3 93 100 100 100 100 100 100 95 59 100 100 100 100 100 100 100 100 100 100 100 100 100 100 100 100 100 100 100 100
90 99 100 100 100 13 3 100 100 100 5 98 28 29 9 1 1 56 90 100 100 100 95 99 100 98 100 100 100 100 100 100 100 100 100 100 100 100 100 100 100 100 100 100
6 40 81 100 100 77 85 100 100 100 96 100 100 100 90 57 41 0 19 100 100 100 100 100 100 100 100 100 100 100 100 100 100 100 100 100 100 100 100 100 100 100 100 100
36 2 4 9 53 100 100 100 100 100 100 100 100 100 100 18 99 81 100 100 100 100 100 100 100 100 100 100 100 100 100 100 100 100 100 100 100 100 100 100 100 100 100 100
5 1 0 0 4 100 100 100 100 100 100 100 100 98 100 55 5 99 100 100 100 100 100 100 100 100 100 100 100 100 100 100 90 100 100 100 100 100 100 100 100 100 100 100
5 4 0 6 36 100 100 100 100 100 100 100 100 99 71 100 67 98 100 100 100 100 100 100 100 100 100 100 100 100 100 100 100 100 100 100 100 100 100 100 100 100 100 100
40 3 4 48 45 100 100 100 100 100 100 100 99 62 100 100 100 100 100 100 100 100 100 100 100 100 100 100 100 100 100 100 100 100 100 100 100 100 100 100 100 100 100 100

GFSCGP_prec_cloud_090.txt.gz
Cloud_Cover
56 67 97 100 100 100 100 100 100 100 8 24 68 100 5 5 0 4 3 0 0 0 0 0 13 91 97 100 100 100 100 100 100 100 100 100 100 100 100 100 100 100 100 100
5 0 77 100 100 100 100 100 100 100 76 36 100 99 5 4 0 6 5 0 0 0 0 0 6 79 100 100 100 100 100 100 100 100 100 100 100 100 100 100 100 100 100 100
48 27 100 95 100 100 100 97 100 100 60 90 100 97 5 4 5 5 9 5 0 0 0 0 0 32 100 100 90 100 100 100 100 100 100 100 100 100 100 100 100 100 100 100
53 99 100 99 100 100 100 100 34 100 5 29 100 100 5 5 5 3 52 5 5 0 0 0 0 5 99 90 94 100 100 100 100 100 100 100 100 100 100 100 100 100 100 100
61 100 100 94 96 100 100 95 49 100 65 72 100 100 41 5 5 5 88 4 5 5 0 0 0 0 16 93 100 92 89 100 100 100 100 100 100 100 100 100 100 100 100 100
39 100 100 100 100 100 100 100 52 100 6 99 100 100 59 8 5 5 15 5 21 5 0 3 0 0 0 94 100 99 65 100 100 100 96 100 100 100 100 100 100 100 100 100
99 100 100 100 100 88 100 100 100 100 35 100 100 38 98 16 55 71 49 5 16 4 5 2 4 0 0 17 98 99 86 64 100 100 100 100 98 100 100 100 100 100 100 100
100 100 100 100 100 100 100 100 100 89 72 100 82 97 100 100 100 100 5 5 5 62 11 2 13 4 0 0 14 100 100 100 53 70 100 100 100 81 100 100 100 100 100 100
100 100 100 100 100 99 85 100 100 87 97 100 94 100 100 100 100 100 99 6 65 100 76 5 3 19 0 0 0 5 16 23 100 97 98 100 100 100 98 100 87 96 100 100
99 100 100 100 100 100 100 100 100 5 100 59 100 100 100 100 85 100 100 97 77 100 100 5 5 9 5 0 0 0 0 0 2 65 100 100 100 99 99 100 100 100 100 100
100 100 100 100 100 100 100 66 100 25 100 100 100 100 100 100 100 100 96 71 7 100 100 5 21 76 8 1 0 0 0 0 0 0 28 75 100 100 100 99 91 81 100 100
84 100 100 100 100 100 100 100 100 100 100 87 49 100 100 100 100 100 99 8 8 100 100 29 65 100 92 46 4 0 0 0 0 0 0 0 5 16 23 80 74 64 42 64
91 100 100 100 100 100 100 100 100 95 84 11 36 100 100 100 100 100 100 100 86 100 100 95 100 100 99 100 100 48 1 5 1 0 2 3 4 5 6 91 59 11 53 20
100 100 100 100 100 92 100 100 100 100 77 83 5 98 100 100 100 100 100 100 100 100 100 100 100 72 100 98 100 100 1 5 71 4 0 4 4 5 7 94 15 20 62 39
100 100 100 100 100 100 100 100 100 100 66 11 82 26 99 100 100 100 100 100 100 100 100 100 100 59 12 72 100 100 66 27 100 100 65 2 42 5 5 5 5 5 15 62
100 100 100 100 100 100 100 100 100 74 34 5 5 5 65 25 100 100 100 99 98 100 100 100 100 76 14 6 15 100 100 100 100 100 100 100 62 5 5 5 0 0 0 2
100 100 100 100 100 100 100 100 100 100 100 83 6 8 96 40 60 100 100 100 97 94 100 100 100 100 100 89 89 58 98 96 100 100 100 100 100 100 48 7 19 35 72 85
90 100 100 80 100 100 91 100 100 100 100 100 100 62 5 8 5 83 100 100 100 77 84 98 100 100 96 88 84 92 99 55 69 100 100 100 100 100 100 76 93 100 100 100
81 100 100 88 9 18 84 44 42 100 100 100 84 100 100 69 2 8 100 100 100 100 12 82 100 100 95 96 99 99 97 100 100 14 71 100 100 100 100 100 100 100 100 100
91 100 100 100 87 4 72 5 5 5 5 74 62 70 14 98 99 100 6 100 100 100 58 6 95 100 100 100 100 100 99 100 100 100 100 100 100 100 100 100 100 100 100 100
100 100 100 99 100 36 5 0 0 18 59 72 10 71 48 82 100 27 100 100 100 100 100 99 66 31 100 100 100 100 100 100 100 100 100 100 100 100 100 100 100 100 100 100
57 83 83 98 100 75 8 32 24 91 99 73 100 19 97 96 79 8 9 77 100 100 100 100 100 100 100 100 100 100 100 100 100 100 100 100 100 100 100 100 100 100 100 100
74 42 87 69 72 6 4 83 100 97 100 85 100 99 98 100 100 13 100 100 100 100 100 100 100 100 100 100 100 100 100 100 100 100 100 100 100 100 100 100 100 100 100 100
11 5 15 60 49 5 5 9 100 61 82 100 100 100 100 100 100 48 100 100 100 100 100 100 100 100 100 100 100 100 100 100 100 100 100 100 100 100 100 100 100 100 100 100
73 99 79 96 5 19 4 5 0 19 100 100 100 100 100 100 88 87 100 100 100 100 100 100 100 100 100 100 100 100 100 100 100 100 100 100 100 100 100 100 100 100 100 100
62 40 86 44 25 32 1 5 3 100 98 100 100 100 100 100 84 43 100 100 100 100 100 100 100 100 100 100 100 82 100 100 100 100 100 100 100 100 100 100 100 100 100 100

GFSCGP_prec_cloud_093.txt.gz
Cloud_Cover
10 66 5 94 67 100 100 98 100 97 100 100 100 100 100 5 100 100 2 2 1 0 0 0 0 0 99 100 100 99 100 100 100 100 100 100 100 100 100 100 100 100 100 100
14 3 76 100 100 98 100 100 100 100 60 59 100 100 100 86 99 6 5 3 1 0 0 0 0 0 100 100 100 100 99 75 100 100 100 100 100 100 100 100 100 100 100 100
6 44 100 95 98 47 100 100 100 100 100 84 100 100 100 100 97 5 5 0 1 2 0 0 0 0 95 100 99 98 100 100 98 100 100 100 100 100 100 100 100 100 100 100
85 96 92 98 55 100 24 100 100 100 99 81 94 100 100 100 99 5 5 3 4 5 0 0 0 0 27 100 71 42 96 100 100 100 100 100 100 100 100 100 100 100 100 100
38 100 100 79 79 64 10 99 95 100 100 77 46 100 100 100 7 25 5 5 8 0 5 0 0 0 0 86 100 100 94 100 100 99 100 100 100 100 100 100 100 100 100 100
100 97 97 88 100 46 100 100 95 100 100 88 91 100 100 100 84 91 30 10 5 5 5 0 0 0 0 59 100 100 88 100 100 100 100 100 100 100 100 100 100 100 100 100
100 82 100 100 100 79 94 100 86 100 100 96 98 100 100 100 56 16 83 20 5 5 5 4 5 0 0 0 97 100 100 99 98 100 100 100 100 100 100 100 100 100 100 100
96 79 94 100 100 100 99 100 100 98 100 100 100 100 100 100 82 47 100 87 91 5 5 5 5 4 0 0 0 28 83 100 88 99 100 97 100 100 100 100 100 100 100 100
66 100 34 99 100 92 90 100 100 100 100 100 100 100 100 100 30 98 100 100 100 34 4 5 38 3 0 4 0 0 0 13 92 72 84 96 96 100 100 100 100 100 100 100
100 100 92 100 100 99 100 100 100 100 71 100 100 100 100 100 99 74 100 99 100 100 77 5 7 5 0 5 1 0 0 0 3 66 100 100 100 100 100 100 100 100 100 100
100 80 98 100 100 100 100 100 100 100 97 100 100 100 100 100 100 97 75 62 96 100 100 5 21 6 5 60 29 4 0 0 0 1 20 73 34 100 99 100 100 100 100 100
100 100 89 100 100 100 100 100 100 100 98 100 100 100 100 100 100 100 98 46 22 100 100 49 13 63 3 54 96 62 11 1 1 0 0 14 36 96 100 100 100 70 91 100
100 100 100 100 100 100 100 100 100 100 73 100 100 100 100 100 100 100 100 99 6 23 96 36 53 81 78 5 30 97 100 74 5 0 0 0 0 0 0 38 60 91 57 80
100 94 100 100 100 100 100 100 100 100 93 96 95 100 100 100 100 100 100 56 97 98 100 88 73 97 100 86 85 99 92 100 98 78 42 5 2 0 0 0 5 5 21 88
100 100 100 100 67 100 100 100 100 100 100 100 100 100 100 100 100 100 100 100 94 95 92 82 100 98 100 100 100 100 100 100 99 78 100 100 99 47 7 15 13 11 17 42
100 100 100 100 100 100 100 100 100 68 99 100 100 100 100 100 100 100 100 100 100 99 100 100 68 84 98 100 100 20 5 7 94 90 100 92 100 100 100 100 100 82 31 50
100 100 100 100 100 100 100 100 100 100 100 84 61 97 100 100 100 100 100 100 100 100 18 36 99 82 100 71 99 100 15 5 5 35 65 98 100 100 100 100 100 100 100 95
100 100 100 100 100 100 100 100 100 100 100 100 100 100 100 100 100 100 100 100 100 98 100 74 60 40 100 65 12 77 97 95 12 29 18 5 69 97 84 100 100 100 100 100
100 100 99 100 100 100 100 100 100 100 100 100 100 100 86 99 100 100 100 100 100 100 47 96 98 48 5 25 86 88 100 100 94 88 90 69 63 28 94 100 100 100 100 100
100 100 100 98 98 98 100 100 100 100 100 100 100 100 100 100 100 100 68 69 100 100 100 100 62 53 46 92 87 100 100 100 100 100 76 100 96 99 100 100 100 100 100 100
100 100 100 100 100 70 5 5 54 90 100 100 93 100 96 97 100 100 100 100 100 100 100 100 98 99 44 54 98 100 100 100 100 100 100 100 100 100 100 100 100 100 100 100
100 92 91 89 100 91 10 73 37 65 90 72 67 45 48 87 70 44 100 100 100 100 100 100 100 88 94 100 98 100 100 100 100 100 100 100 100 100 100 100 100 100 100 100
100 34 83 62 34 78 35 7 6 5 80 85 66 5 29 46 83 18 100 94 100 100 100 100 100 100 100 100 100 100 100 100 100 100 100 100 100 100 100 100 100 100 100 100
99 100 83 96 98 100 100 56 31 5 45 31 5 18 32 96 78 47 100 98 100 100 100 100 100 100 100 100 100 100 100 100 100 100 100 100 100 100 100 100 100 100 100 100
100 100 100 100 100 92 86 85 94 54 5 73 6 31 100 38 100 100 100 100 100 100 100 100 100 100 100 100 100 100 100 100 100 100 100 100 100 100 100 100 100 100 100 100
87 99 100 99 100 84 100 98 100 88 98 24 1 99 100 100 100 100 100 100 90 100 100 100 100 100 100 100 100 100 100 100 100 100 100 100 100 100 100 100 100 100 100 100

GFSCGP_prec_cloud_096.txt.gz
Cloud_Cover
82 5 5 5 5 78 100 20 5 51 100 100 100 100 100 100 98 96 100 5 100 17 4 0 0 0 0 98 85 99 100 100 100 100 100 100 100 100 100 100 100 100 100 100
21 1 5 5 68 95 95 58 10 60 100 100 66 85 100 100 100 100 100 85 98 5 1 0 0 0 0 100 100 100 100 95 100 100 100 100 100 100 100 100 100 100 100 100
0 0 0 29 67 99 8 72 92 99 100 99 29 73 100 100 100 100 100 100 60 4 1 0 0 0 0 100 100 100 100 100 100 100 100 100 100 100 100 100 100 100 100 100
0 2 62 7 41 100 47 100 100 100 100 17 100 71 100 100 100 57 100 100 53 4 0 0 0 0 0 100 100 100 100 100 96 100 100 100 100 100 100 100 100 100 100 100
0 0 63 100 23 99 60 100 100 100 91 99 62 50 79 100 100 59 91 100 7 1 4 0 0 0 0 53 91 100 100 100 100 100 99 100 100 100 100 100 100 100 100 100
0 62 75 10 100 100 100 100 65 96 100 66 90 85 84 100 60 98 100 100 18 5 4 2 0 0 0 23 100 100 100 97 99 100 100 100 100 100 100 100 100 100 100 100
2 42 100 100 63 100 100 100 100 100 98 34 76 84 92 100 88 99 100 100 100 15 5 2 0 0 0 0 99 100 100 100 96 100 100 100 100 100 100 100 100 100 100 100
34 13 80 100 82 100 100 100 100 99 52 67 96 90 77 100 100 100 100 100 100 5 5 27 4 0 0 0 24 100 51 100 100 100 100 100 100 100 100 100 100 100 100 100
96 54 100 80 90 100 100 95 98 100 96 97 62 52 100 100 100 100 100 100 100 12 59 100 100 0 0 0 0 0 75 17 95 100 100 100 100 100 100 100 100 100 100 100
100 100 100 100 100 100 100 100 99 9 35 75 100 100 100 100 100 100 100 100 99 57 100 100 100 68 0 0 1 0 0 8 11 100 90 97 16 78 96 100 100 100 100 100
100 100 100 100 100 100 100 100 43 99 48 12 100 100 100 99 100 100 100 100 96 100 100 100 100 100 100 0 4 0 1 0 9 79 65 83 28 0 47 80 100 100 100 100
52 100 100 100 100 100 100 92 100 100 100 99 100 100 100 100 100 100 100 100 89 100 99 97 100 100 100 0 5 0 4 2 1 2 92 100 80 30 47 97 32 100 99 100
100 100 100 100 100 100 100 100 100 100 100 87 100 100 100 100 100 100 100 94 91 95 97 37 98 100 100 39 5 4 5 4 53 6 43 24 100 94 95 83 16 100 100 21
100 100 100 100 100 98 82 100 90 100 100 100 99 100 100 100 100 100 100 100 100 75 100 92 13 81 100 22 5 15 8 38 66 72 99 46 0 2 4 5 2 100 91 84
100 100 100 100 97 100 100 100 100 100 100 100 100 100 100 100 89 100 100 100 100 100 100 100 99 94 91 21 5 6 63 59 100 100 100 33 22 2 38 99 81 52 55 23
100 100 100 100 100 100 100 100 100 100 100 100 100 100 100 100 100 100 100 100 100 100 100 98 100 100 99 100 100 48 86 100 100 100 100 100 43 6 5 5 84 100 100 100
100 100 100 100 100 52 100 100 100 100 100 100 100 100 100 100 100 100 100 100 100 100 100 100 69 96 99 98 49 92 100 100 100 100 100 100 26 5 5 5 45 88 91 99
100 100 100 100 100 75 100 100 100 100 100 89 100 100 100 92 44 100 100 100 100 100 100 90 57 57 100 94 56 35 6 5 71 100 100 100 100 59 14 5 61 82 78 85
100 100 100 100 100 100 100 100 90 100 100 100 98 93 94 100 100 100 100 100 100 100 100 100 100 96 80 94 44 6 74 53 8 45 72 100 100 100 100 100 100 100 100 100
100 100 100 100 100 100 100 100 96 100 81 100 100 100 88 100 100 100 100 100 100 100 100 100 100 100 100 96 17 6 5 5 5 12 100 100 100 100 98 100 100 100 100 100
100 100 100 100 100 100 100 100 100 100 52 98 100 100 100 100 100 100 100 100 100 100 100 100 100 100 78 54 16 29 23 56 96 93 79 72 83 100 100 100 100 100 100 100
100 100 100 100 100 100 100 68 97 69 65 87 98 100 94 63 100 100 100 100 100 100 100 100 100 100 69 96 100 100 100 100 97 100 100 100 100 100 100 100 100 100 100 100
100 100 100 100 100 100 100 98 26 20 100 97 67 47 5 8 10 5 24 99 100 100 100 100 100 100 100 81 72 94 100 100 100 100 100 100 100 100 100 100 100 100 100 100
100 100 100 100 100 100 100 100 99 80 77 10 43 12 3 2 4 5 97 18 70 82 99 100 100 100 100 100 100 100 100 100 100 100 100 100 100 100 100 100 100 100 100 100
100 100 99 100 100 92 74 56 51 19 75 17 5 4 0 1 39 33 14 97 100 100 100 100 100 100 100 100 100 100 100 100 100 100 100 100 100 100 100 100 100 100 100 100
100 100 100 100 100 46 100 94 100 67 76 6 0 0 0 1 3 36 97 99 98 100 100 100 100 100 100 100 100 100 100 100 100 100 100 100 100 100 100 100 100 100 100 100

GFSCGP_prec_cloud_099.txt.gz
Cloud_Cover
100 86 97 100 100 100 6 5 0 0 5 90 2 15 18 95 18 72 100 100 100 8 100 52 15 0 0 0 6 19 59 100 97 100 100 100 100 100 100 100 100 100 100 100
100 100 100 100 100 100 78 4 8 0 5 100 8 0 7 70 100 44 50 100 100 33 100 100 100 0 0 0 100 73 79 100 93 100 100 100 100 100 100 100 100 100 100 100
76 92 100 100 100 100 72 5 4 4 5 17 16 0 4 47 100 37 5 89 100 100 100 100 87 0 0 0 100 100 48 1 99 100 100 100 100 100 100 100 100 100 100 100
30 45 84 91 50 11 0 0 4 24 96 9 100 11 0 16 100 87 5 60 99 5 100 100 9 0 0 19 100 100 92 40 66 63 100 100 100 100 100 100 100 100 100 100
42 91 12 5 6 3 0 6 8 69 6 5 89 19 5 17 100 100 64 41 100 10 73 100 18 0 0 19 100 100 75 100 100 14 100 100 100 100 100 100 100 100 100 100
21 63 44 64 30 1 20 72 90 83 46 23 83 76 33 100 100 100 95 8 100 98 77 94 46 3 0 0 100 100 100 100 100 100 89 100 100 100 100 100 100 100 100 100
100 100 100 6 4 2 5 43 89 79 58 3 99 83 100 100 100 100 100 5 90 100 100 93 52 4 0 0 59 100 100 100 100 100 100 100 100 100 100 100 100 100 100 100
5 23 100 99 8 5 5 95 69 15 3 51 100 39 100 100 88 100 100 100 55 100 100 100 100 5 61 25 0 97 100 100 100 100 100 100 98 100 100 100 100 100 100 100
0 2 97 16 15 19 10 31 25 100 100 67 85 73 100 100 100 100 100 99 46 100 99 100 100 39 25 100 1 0 63 100 100 100 100 100 100 93 100 100 100 100 100 100
3 0 2 0 96 36 92 86 90 99 100 79 99 100 100 100 81 100 98 100 98 100 99 100 100 52 100 100 43 0 0 99 100 100 100 100 100 100 100 100 100 100 100 100
45 0 67 12 12 69 100 100 73 77 100 100 100 100 100 100 100 100 100 100 100 100 100 100 100 98 100 100 100 100 0 11 39 100 100 100 100 85 75 94 100 100 100 100
78 3 91 96 63 100 100 100 100 100 100 100 100 100 100 100 100 100 100 100 100 99 100 100 100 100 100 97 100 100 0 0 0 17 100 100 100 54 48 4 12 100 100 100
100 4 39 100 100 100 100 100 100 97 100 100 100 100 100 100 96 100 100 100 100 100 86 100 100 100 97 100 100 100 70 0 0 0 33 100 100 75 19 0 0 3 30 62
99 5 14 100 100 100 100 100 94 99 100 100 100 100 100 100 100 100 100 100 100 100 87 100 95 100 96 96 99 92 100 37 0 0 0 7 95 89 3 1 3 0 1 2
98 89 99 100 100 100 100 80 85 100 100 100 100 100 100 100 100 100 100 100 100 100 25 25 90 95 100 96 98 100 100 52 5 4 4 4 7 24 32 2 0 43 79 31
5 0 100 100 100 100 100 100 100 100 100 100 100 100 100 100 100 100 100 100 100 81 84 24 5 63 100 100 11 40 38 42 9 5 12 100 17 5 5 5 3 4 5 100
5 3 99 100 100 100 94 100 100 100 100 100 100 100 100 100 100 100 100 100 100 98 100 99 96 95 100 100 100 65 71 97 100 100 100 100 100 97 89 5 5 10 2 89
5 4 71 100 100 100 100 100 98 100 100 100 26 100 100 100 100 100 100 100 100 100 100 100 100 100 100 100 100 100 78 83 76 100 100 100 100 100 100 100 96 79 44 100
5 33 100 100 100 100 100 100 100 100 100 100 100 100 100 100 100 100 100 100 100 100 100 100 100 100 100 100 100 100 82 100 62 5 20 90 93 20 52 100 87 100 100 100
0 88 100 100 100 100 98 42 100 100 100 100 100 100 100 100 100 100 100 100 100 100 100 100 100 100 100 100 100 27 89 88 99 100 62 50 98 94 54 100 98 100 100 100
3 100 100 100 100 100 99 88 100 100 83 100 100 100 100 100 100 100 100 100 100 100 100 100 100 100 100 100 100 80 100 100 100 100 100 100 100 97 100 100 100 100 100 100
56 100 100 100 100 100 100 100 100 98 64 85 98 100 100 100 100 100 100 100 100 100 100 100 100 100 100 100 100 100 100 100 100 100 100 100 100 100 100 100 100 100 100 100
100 100 100 100 100 100 100 100 100 97 74 63 81 98 100 100 100 100 100 100 100 100 100 100 100 100 100 100 100 100 100 100 100 100 100 100 100 100 100 100 100 100 100 100
100 100 100 100 100 100 100 100 100 100 100 100 80 78 5 8 70 99 100 100 100 100 100 100 100 100 100 100 100 100 100 100 100 100 100 100 100 100 100 100 100 100 100 100
100 100 100 100 100 100 100 100 100 100 100 100 100 74 97 33 20 6 12 29 51 33 52 41 100 100 100 100 100 100 100 100 100 100 100 100 100 100 100 100 100 100 100 100
100 100 100 100 100 100 100 100 100 100 100 100 100 95 10 5 50 98 76 72 86 84 95 89 100 100 100 100 100 100 100 100 100 100 100 100 100 100 100 100 100 100 100 100

GFSCGP_prec_cloud_102.txt.gz
Cloud_Cover
5 0 4 98 100 100 100 91 39 100 100 95 54 5 0 3 5 0 2 30 18 8 100 93 3 100 100 24 31 23 30 17 95 100 100 100 100 100 100 100 100 100 100 100
0 0 41 86 51 96 9 5 17 100 100 68 12 3 18 5 46 10 0 63 63 27 100 93 4 98 100 76 20 37 24 55 100 100 95 100 100 100 100 100 100 100 100 100
0 1 4 0 5 6 94 98 99 96 100 5 5 5 70 94 11 56 31 100 97 95 100 100 10 100 100 52 21 44 51 90 86 100 95 95 100 100 100 100 100 100 100 100
0 0 3 3 4 25 7 96 89 99 100 100 99 10 6 32 3 43 4 99 81 100 100 100 5 97 100 10 0 4 30 20 18 100 100 100 100 100 100 100 100 100 100 100
0 3 0 0 1 98 23 100 90 24 5 0 3 4 96 32 0 6 5 98 90 96 100 100 90 86 31 15 2 0 17 42 33 27 100 100 100 100 100 100 100 100 100 100
5 5 4 0 1 5 34 75 8 12 5 5 28 3 5 18 15 26 5 99 100 84 100 100 100 93 21 12 4 0 34 51 21 96 100 100 100 100 100 100 100 100 100 100
4 0 0 0 0 4 10 49 83 82 81 15 69 1 2 1 49 1 29 99 100 99 66 82 100 24 27 5 5 17 35 34 67 54 100 100 100 100 100 100 100 100 100 100
0 0 0 0 0 11 46 35 17 27 5 5 3 0 5 3 5 55 91 100 100 100 100 9 100 8 28 38 4 22 39 28 91 74 51 62 97 100 100 100 100 100 100 100
0 0 0 0 0 0 5 28 89 100 7 1 4 1 0 71 83 80 99 89 100 100 100 95 93 5 33 81 5 100 20 9 90 100 100 65 79 95 98 100 100 100 100 100
5 1 0 0 0 0 0 19 63 17 16 6 4 0 1 17 100 100 100 100 100 100 100 100 30 5 11 100 5 95 41 1 28 100 100 100 100 86 32 99 100 100 100 100
83 21 0 0 0 0 0 2 100 97 61 2 3 2 59 79 100 100 100 82 65 73 99 98 85 29 99 100 75 45 100 100 98 100 100 100 100 100 38 57 100 100 100 100
61 77 8 21 87 10 4 66 100 24 12 44 57 4 38 97 100 100 100 92 100 64 10 100 99 62 66 100 97 60 100 100 100 38 100 100 100 89 58 32 87 79 52 29
100 73 81 34 100 83 100 100 100 76 94 12 76 87 98 100 100 100 100 100 100 18 52 100 100 84 5 87 38 64 29 100 100 98 98 100 100 100 100 24 0 0 15 76
100 100 100 66 99 93 100 100 91 52 82 84 67 100 100 100 100 100 100 100 100 97 98 100 95 100 100 97 100 100 100 100 100 100 97 93 100 100 100 96 1 0 0 4
100 100 84 100 100 100 100 100 100 100 100 60 100 100 100 100 100 100 100 100 100 100 89 77 76 100 100 100 100 100 100 99 57 100 43 42 77 100 100 100 18 4 0 0
100 100 100 99 86 100 100 100 100 100 100 100 100 100 100 100 100 100 99 99 100 100 100 84 11 99 100 100 100 100 100 100 100 95 91 100 65 24 100 100 99 22 7 0
100 100 100 100 93 95 100 100 100 100 100 100 100 100 100 100 100 100 100 100 100 100 100 100 98 100 100 100 100 100 100 100 100 100 100 95 5 17 18 95 100 74 51 24
100 100 100 100 67 80 100 100 100 100 100 87 100 100 100 100 100 100 100 85 100 100 100 100 100 100 100 100 100 100 100 100 100 100 100 100 19 95 100 97 62 68 52 33
15 81 98 100 51 98 100 100 100 100 100 100 100 100 100 100 100 100 100 100 98 100 100 100 100 97 100 94 97 95 42 100 100 100 100 100 99 28 100 100 100 100 100 100
16 5 4 5 5 78 100 50 98 100 100 100 100 100 100 100 100 97 100 100 100 100 99 100 95 23 56 15 69 23 98 100 100 100 96 100 100 100 100 100 100 100 100 100
0 2 5 9 28 23 100 96 100 100 100 100 100 100 100 100 100 100 100 100 100 100 100 100 100 100 100 79 46 96 100 100 100 100 100 100 100 100 100 100 100 100 100 100
37 8 17 47 5 55 97 100 100 90 92 100 100 100 100 100 100 100 100 100 100 100 100 100 100 91 77 94 100 100 100 100 100 100 100 100 100 100 100 100 100 100 100 100
100 26 4 62 93 100 72 100 100 100 32 53 100 100 100 100 100 100 100 100 100 100 100 100 100 100 100 100 100 100 100 100 100 100 100 100 100 100 100 100 100 100 100 100
100 97 88 92 100 12 75 100 100 100 100 86 79 100 100 100 100 100 100 100 100 100 100 100 100 100 100 92 100 100 100 100 100 100 100 100 100 100 100 100 100 100 100 100
100 100 100 100 100 100 80 100 100 100 100 100 100 100 100 97 100 100 100 100 100 100 100 100 100 100 100 100 100 100 100 100 100 100 100 100 100 100 100 100 100 100 100 100
100 100 100 100 100 100 100 100 100 100 100 100 100 38 98 100 94 71 87 100 99 100 100 100 100 100 100 100 100 100 100 100 100 100 100 100 100 100 100 100 100 100 100 100

GFSCGP_prec_cloud_105.txt.gz
Cloud_Cover
99 3 0 0 2 3 0 0 0 12 100 100 91 1 3 0 3 5 99 64 100 100 8 49 97 27 100 56 40 37 60 32 50 96 100 99 100 100 100 100 100 100 100 100
24 1 3 0 0 0 0 0 1 14 100 100 99 0 0 0 5 5 79 90 100 87 0 100 100 54 49 93 37 100 61 67 41 18 59 72 87 100 100 100 100 100 100 100
7 27 5 2 1 0 0 3 7 16 100 76 3 0 4 5 5 5 6 86 100 20 6 49 100 38 45 71 72 59 60 91 25 7 76 98 99 100 100 100 100 100 100 100
5 5 5 14 5 3 0 3 5 2 7 3 83 0 5 15 98 99 100 78 28 1 5 100 100 53 72 100 45 44 100 51 6 69 64 77 100 100 100 100 100 100 100 100
7 92 100 100 93 84 3 0 0 0 1 0 3 2 65 100 100 100 30 5 19 5 89 100 100 46 94 100 70 92 85 28 25 16 88 100 87 64 100 100 100 100 100 100
100 100 100 70 100 94 52 2 0 0 2 0 5 7 13 99 97 10 5 15 22 0 29 100 100 100 96 49 76 97 100 100 79 31 74 77 78 100 100 100 100 100 100 100
89 92 100 100 100 100 18 31 24 4 0 0 47 84 90 16 51 6 4 17 8 0 5 100 100 100 100 92 71 96 100 100 100 100 92 100 97 100 100 100 100 100 100 100
0 2 7 100 100 100 100 100 95 5 0 4 10 1 5 47 100 59 5 10 0 0 32 100 100 100 100 72 70 79 100 100 100 100 100 100 100 100 100 100 100 100 100 100
0 0 0 4 81 46 96 98 93 5 5 4 0 0 4 38 14 5 11 4 0 5 100 100 96 87 99 100 65 82 100 100 100 45 96 100 100 100 100 100 100 100 100 100
5 0 0 0 0 0 12 28 4 3 5 9 3 0 5 97 45 89 100 12 5 26 100 100 78 38 50 76 66 83 79 57 71 40 15 19 76 100 100 100 100 100 100 100
5 5 0 0 0 0 0 0 1 65 76 5 4 4 94 99 100 32 81 57 91 100 100 100 99 6 18 63 45 70 65 49 38 47 52 5 29 88 92 97 100 100 100 100
32 6 5 0 0 0 0 0 0 5 8 5 5 39 100 80 6 5 7 99 100 100 100 100 100 8 100 100 85 100 90 35 100 100 100 28 0 20 74 93 100 100 100 100
100 66 5 1 1 42 18 1 0 0 1 5 23 5 70 29 5 5 97 100 95 100 100 100 97 63 100 100 90 87 100 100 90 19 97 93 6 66 28 16 65 100 100 100
100 100 99 98 69 48 93 48 3 0 26 25 100 70 53 77 100 91 96 100 100 100 100 86 100 85 98 100 99 94 100 100 100 100 68 58 58 46 90 98 9 21 84 100
98 80 100 93 99 100 100 30 90 79 8 6 71 11 32 88 100 11 100 100 100 100 100 100 66 68 100 100 100 100 100 100 100 100 100 96 99 67 76 100 69 27 14 2
32 100 100 100 100 100 99 100 75 6 28 72 50 92 100 99 100 100 100 100 100 100 100 100 100 88 100 100 100 100 100 100 100 100 100 100 100 100 91 93 95 62 36 22
34 100 100 100 100 100 100 100 100 100 100 100 100 100 100 100 100 100 100 100 100 100 100 100 100 100 100 100 100 100 100 100 100 100 100 100 100 100 100 100 100 100 88 27
100 100 100 100 100 100 100 100 100 100 100 100 100 100 100 100 100 100 100 100 100 100 100 100 100 100 100 100 100 100 100 100 100 100 100 100 100 100 100 100 100 100 100 94
100 100 100 100 100 100 70 100 100 100 100 100 100 100 100 100 100 100 100 100 100 100 100 100 100 100 100 100 100 100 75 100 100 100 100 100 100 100 100 100 100 100 100 100
99 100 99 100 99 100 42 74 84 100 100 100 100 100 100 100 100 100 100 100 100 100 100 100 100 100 100 96 100 100 100 100 100 100 100 100 100 100 100 100 100 100 100 100
92 100 100 100 91 12 9 75 94 100 100 100 100 100 100 100 100 100 100 100 100 90 100 100 100 100 100 100 100 100 100 100 100 100 100 100 100 100 100 100 100 100 100 100
100 100 100 74 72 27 100 97 100 99 100 100 100 100 100 100 100 100 100 100 100 100 100 100 100 100 100 100 100 100 100 100 100 100 100 100 100 100 100 100 100 100 100 100
100 100 100 34 8 22 100 63 100 100 100 100 100 100 100 100 100 100 100 100 100 100 100 100 98 100 100 100 100 100 100 100 100 100 100 100 100 100 100 100 100 100 100 100
100 100 100 72 0 2 4 14 100 100 100 100 100 100 100 100 100 99 100 100 100 100 100 100 100 99 100 100 100 100 100 100 100 100 100 100 100 100 100 100 100 100 100 100
100 100 100 26 57 7 5 91 100 100 100 100 100 100 67 28 32 89 100 100 100 100 100 100 100 100 100 100 99 100 100 100 100 100 100 100 100 100 100 100 100 100 100 100
100 100 99 100 100 100 91 100 100 100 100 100 100 100 100 98 91 100 100 99 79 91 100 100 100 100 100 100 100 100 100 100 100 100 100 100 100 100 100 100 100 100 100 100

GFSCGP_prec_cloud_108.txt.gz
Cloud_Cover
100 100 2 5 99 99 40 5 5 63 36 69 89 74 2 2 4 0 0 1 3 0 65 45 12 41 56 47 47 55 84 64 88 100 100 100 100 100 100 100 100 100 100 100
88 7 13 66 12 5 5 5 17 7 6 14 59 3 0 0 4 29 5 8 5 5 9 5 31 99 97 96 73 74 98 99 100 100 100 100 97 98 100 100 100 100 100 100
100 5 8 6 98 94 54 28 15 21 5 12 4 4 0 2 5 19 100 100 39 5 4 13 94 37 95 100 100 100 89 99 100 77 100 98 91 100 100 100 100 100 100 100
86 58 12 100 46 99 100 100 100 100 6 5 3 1 0 4 48 58 100 100 3 0 3 8 99 30 73 100 99 73 32 100 81 65 97 89 98 100 100 100 100 100 100 100
2 2 49 80 95 100 98 100 100 100 65 5 0 0 87 94 69 100 99 5 3 0 81 100 91 12 40 100 87 81 88 100 50 27 9 99 91 100 100 100 100 100 100 100
5 5 5 5 5 43 66 42 89 98 19 0 1 4 1 33 72 88 6 5 4 5 61 58 5 75 100 100 97 100 100 100 30 44 13 86 100 89 100 100 100 100 100 100
61 73 100 100 99 93 100 91 32 100 98 12 89 77 0 9 32 4 4 1 2 5 14 5 39 48 80 100 100 100 100 100 100 29 76 50 70 78 100 100 100 100 100 100
19 1 39 3 93 99 100 100 100 100 100 97 70 11 2 5 2 5 55 6 13 5 2 5 5 20 100 100 100 100 100 100 100 42 100 100 100 74 100 100 100 100 100 100
98 8 0 4 5 33 100 92 100 100 100 98 77 5 5 6 5 5 5 5 5 5 4 5 1 2 100 100 100 100 100 100 100 96 100 100 97 100 100 100 100 100 100 100
66 5 3 0 14 0 1 76 100 100 100 88 70 99 100 100 96 1 1 4 5 5 5 16 5 30 100 100 100 100 100 100 100 100 100 100 100 99 100 100 100 100 100 100
98 5 1 3 94 39 0 0 1 2 4 14 100 100 100 100 100 5 1 5 53 8 65 61 2 99 100 100 100 100 100 100 100 100 100 100 99 98 92 100 100 100 100 100
100 98 3 3 6 1 5 4 0 5 5 3 6 79 100 100 100 78 0 5 14 76 36 100 100 100 100 100 100 100 100 100 100 100 100 83 53 94 100 100 100 100 100 100
100 87 37 77 2 95 90 20 0 0 0 0 16 92 22 50 93 2 2 5 28 100 14 100 100 100 100 100 100 100 100 96 99 100 100 100 100 100 100 100 100 100 100 100
100 100 100 74 75 82 65 76 80 0 1 0 0 0 5 3 4 1 1 14 27 99 100 82 100 100 100 100 100 100 100 81 100 100 100 100 99 100 100 100 100 100 100 100
100 100 100 100 88 98 100 100 84 56 0 0 0 0 1 0 42 20 60 100 63 99 100 100 100 100 100 100 100 100 98 75 100 100 100 100 94 93 100 100 100 100 100 100
100 100 100 100 99 54 71 100 100 100 80 5 4 2 2 0 5 97 100 100 98 100 100 100 100 100 100 100 100 100 100 83 100 100 100 100 100 100 75 100 100 100 100 100
100 100 100 100 100 90 18 30 100 100 100 72 15 10 15 13 34 90 100 100 87 100 100 100 100 100 100 100 100 100 98 87 100 100 100 100 100 100 94 86 28 99 100 100
100 100 100 100 100 100 89 98 80 100 100 100 62 16 97 100 91 48 73 100 100 100 100 100 100 100 100 100 100 100 100 100 92 100 100 100 100 63 87 99 100 100 100 100
100 100 100 100 100 100 100 100 98 99 100 100 100 98 100 100 100 100 100 100 100 100 100 100 100 100 100 100 100 100 100 100 100 100 100 100 100 100 100 100 100 100 100 100
100 100 100 100 100 100 100 100 100 100 100 100 100 100 100 100 100 100 100 100 100 100 100 100 100 100 100 100 100 100 100 100 100 100 100 100 100 100 100 100 100 91 100 100
100 99 100 100 100 100 87 100 100 100 100 100 100 100 100 100 96 98 97 100 100 100 100 100 100 100 100 100 100 100 100 100 100 100 100 100 100 100 100 100 100 100 100 100
79 50 55 100 100 87 100 77 100 100 100 100 100 100 100 100 100 100 100 100 100 100 100 100 100 100 100 100 100 100 100 100 100 100 100 100 100 100 100 100 100 100 100 100
84 100 99 100 99 100 27 92 100 100 100 100 100 100 100 100 100 100 100 100 100 100 100 100 100 100 100 100 100 100 100 100 100 100 100 100 100 100 100 100 100 100 100 100
100 100 100 97 92 6 23 84 100 100 100 100 100 100 100 100 100 100 100 100 100 100 100 100 100 100 100 100 100 100 100 100 100 100 100 100 100 100 100 100 100 100 100 100
100 100 100 62 100 74 5 10 90 100 100 100 100 100 100 100 100 100 100 100 100 100 100 100 100 100 100 100 100 100 100 100 100 100 100 100 100 100 100 100 100 100 100 100
100 100 100 100 100 100 100 100 100 100 100 100 100 100 100 100 100 100 100 100 100 100 100 100 100 100 100 100 100 100 100 100 100 100 100 100 100 100 100 100 100 100 100 100

GFSCGP_prec_cloud_111.txt.gz
Cloud_Cover
100 100 9 5 99 93 19 5 5 5 12 5 8 98 100 100 99 35 74 8 16 9 1 0 0 0 5 5 4 5 33 70 99 100 100 100 100 100 100 100 100 100 100 100
94 72 99 100 99 77 8 5 12 65 94 33 35 32 37 95 79 84 10 16 48 12 2 5 5 5 62 26 27 52 47 81 99 100 100 58 94 100 100 100 100 100 100 100
100 100 100 100 100 100 94 20 20 60 100 87 3 48 67 9 5 14 18 46 6 5 5 5 5 34 38 64 100 100 96 96 85 54 92 69 98 100 100 100 97 100 100 100
100 94 98 100 84 100 59 88 98 100 97 10 28 0 3 5 5 43 26 50 95 77 10 11 8 40 2 94 100 100 98 98 100 92 72 50 100 86 67 90 100 100 100 100
7 76 100 49 98 100 100 100 100 100 86 5 5 2 5 13 41 5 75 100 100 92 14 5 5 5 0 29 100 100 60 79 100 100 95 90 100 98 100 100 99 100 100 100
1 6 11 100 89 18 54 100 92 7 5 0 5 5 5 41 100 100 45 69 100 96 6 5 4 5 5 97 97 100 68 100 100 100 100 100 100 100 100 100 100 100 100 100
0 0 1 70 77 5 36 94 100 91 5 5 45 5 49 100 100 100 100 74 16 5 5 8 40 6 18 100 100 100 100 100 100 99 98 79 68 99 47 99 100 100 100 100
17 0 5 6 67 28 87 99 100 99 34 6 62 5 21 94 98 99 93 62 10 5 47 100 80 6 61 100 100 100 100 100 100 98 89 46 53 61 65 100 100 100 100 100
73 6 11 1 57 60 51 29 52 100 100 14 5 6 31 45 89 6 80 29 100 11 93 100 20 18 63 100 100 100 100 100 100 100 94 100 62 93 100 100 100 100 100 100
93 64 84 5 0 22 5 63 100 59 55 15 7 11 100 100 43 5 100 100 97 100 66 93 49 39 85 99 100 100 100 100 100 100 100 100 83 100 100 95 100 100 100 100
100 99 7 5 1 0 0 2 28 81 8 15 100 60 100 100 100 10 7 6 10 100 67 72 100 100 100 100 100 100 100 100 100 100 100 96 100 100 100 100 100 100 100 100
100 98 100 0 88 87 90 1 1 7 9 5 7 100 100 100 100 100 96 90 52 99 79 31 79 100 100 100 100 100 100 100 100 100 100 96 100 100 88 100 100 100 100 100
100 100 100 80 36 100 100 73 4 0 0 0 0 2 22 97 100 100 100 100 55 11 18 13 47 100 100 100 100 100 100 100 100 100 100 99 100 100 100 100 100 100 100 100
100 100 100 100 13 75 100 100 68 2 0 0 0 0 0 24 100 70 100 89 85 26 71 17 76 100 100 100 100 100 100 100 100 100 100 100 100 100 100 100 100 100 100 100
100 100 100 100 93 68 97 100 100 100 47 0 0 0 0 4 5 6 32 6 5 62 5 42 93 100 100 100 100 100 100 100 100 100 100 100 100 100 100 100 100 100 100 93
100 100 100 100 100 99 99 100 100 100 100 99 0 0 0 0 0 12 5 5 15 54 56 100 94 100 100 100 100 100 100 100 100 100 100 100 100 100 100 100 100 100 100 100
100 100 100 100 99 100 100 100 100 100 100 61 78 2 85 99 87 71 11 26 43 90 100 95 100 100 100 100 100 100 100 100 100 100 100 100 100 100 100 100 100 100 100 100
100 100 100 100 100 100 100 97 100 73 100 93 89 55 56 80 96 69 50 40 84 100 55 42 78 100 100 100 100 100 100 100 100 100 100 100 100 100 100 100 100 100 97 100
100 100 100 100 100 100 100 100 100 100 100 100 100 60 83 33 64 93 100 100 99 100 95 53 100 100 100 100 100 100 100 100 100 89 100 100 100 100 100 100 100 100 100 100
100 100 100 100 100 100 100 100 100 100 100 100 100 100 88 100 100 100 100 74 36 94 92 100 100 100 100 100 100 100 100 100 100 100 100 100 100 100 100 100 100 100 98 100
100 100 100 100 100 76 100 100 100 100 100 100 100 100 100 100 100 100 96 76 30 69 73 100 100 100 100 100 100 100 100 100 100 100 100 100 100 100 100 100 100 100 100 100
100 100 100 100 100 93 65 100 100 100 100 100 100 100 100 100 100 100 81 89 94 98 69 100 88 100 100 100 100 100 100 100 100 100 100 100 100 100 100 100 100 100 100 100
100 100 100 100 100 100 66 100 100 100 100 100 100 100 100 100 100 100 98 100 100 99 100 100 100 100 100 100 100 100 100 100 100 100 100 100 100 100 100 100 100 100 100 100
100 100 100 100 98 100 100 97 100 100 100 100 100 100 100 100 100 88 100 100 100 100 100 100 100 100 100 100 100 100 100 100 100 100 100 100 100 100 100 100 100 100 100 100
100 100 100 88 79 100 100 100 100 100 100 100 100 100 100 100 81 100 100 100 100 100 100 100 100 100 100 100 100 100 100 100 100 100 100 100 100 100 100 100 100 100 100 100
100 100 100 100 100 100 100 100 100 100 100 100 100 100 100 100 100 100 100 100 100 100 100 100 100 100 100 100 100 100 100 95 100 100 100 100 100 100 100 100 100 100 100 100

GFSCGP_prec_cloud_114.txt.gz
Cloud_Cover
100 100 12 100 100 100 100 100 100 100 100 100 89 87 100 89 100 100 100 100 88 45 100 95 75 38 85 92 68 5 0 0 100 100 100 100 88 53 99 52 93 100 100 100
100 98 100 100 100 100 100 100 100 100 100 65 100 99 82 48 82 92 54 74 100 100 100 100 100 100 97 16 10 6 3 1 100 100 62 59 72 84 100 100 68 86 100 100
100 100 100 75 64 96 100 100 96 100 100 32 74 28 100 71 34 81 35 16 8 68 100 100 94 62 61 33 26 7 4 1 97 63 97 48 80 100 77 97 99 100 100 100
64 99 100 100 100 90 60 100 100 100 100 6 99 16 11 7 14 5 5 39 99 100 100 100 100 38 100 86 22 5 4 6 95 67 41 18 4 20 27 50 71 50 97 100
0 5 40 100 100 100 100 100 100 100 100 100 41 37 50 8 100 32 5 44 26 64 100 100 100 100 99 100 90 86 44 75 96 60 33 12 0 5 17 80 85 97 90 92
1 1 0 2 100 100 100 100 100 86 18 5 66 35 4 91 92 97 41 28 9 89 95 72 98 100 98 94 98 100 100 100 100 76 45 12 4 28 38 62 60 80 84 100
66 3 0 0 0 48 94 100 100 100 79 28 99 38 60 5 56 95 90 56 40 18 83 100 100 100 77 91 96 100 100 100 100 98 47 17 28 49 99 55 99 68 100 100
100 30 98 0 0 0 5 24 100 100 61 90 100 100 97 32 5 5 69 84 88 51 36 14 34 81 100 92 79 100 100 100 100 83 36 53 88 93 86 85 81 55 93 100
100 86 30 90 0 0 0 5 7 98 98 83 9 5 21 98 11 5 3 5 91 100 51 5 8 99 100 100 100 100 100 100 100 54 55 57 100 98 100 98 73 100 94 100
100 76 47 96 45 3 0 4 36 53 61 5 5 5 5 8 5 5 5 47 73 85 100 48 89 95 100 100 100 100 100 100 100 80 94 97 100 100 98 83 91 100 100 100
100 100 100 84 100 61 0 12 34 5 10 69 99 34 99 78 6 5 5 5 56 99 100 100 100 100 100 100 100 100 100 100 100 100 88 100 100 100 75 85 87 100 100 100
100 100 100 100 98 7 13 21 36 8 5 5 86 91 31 59 51 5 5 43 34 99 100 100 97 100 100 100 100 100 100 100 100 98 100 100 100 100 81 97 100 100 100 100
100 100 100 95 96 100 71 84 100 100 100 94 5 11 12 79 100 90 36 100 100 100 100 86 5 16 100 100 100 100 100 100 100 99 100 100 100 100 86 88 99 100 100 100
100 100 100 100 100 100 100 100 33 92 100 13 99 92 100 12 5 67 100 100 100 100 93 98 11 20 100 100 100 100 100 100 100 100 100 100 100 100 100 92 77 100 100 100
100 100 100 100 100 100 100 100 100 88 49 100 7 5 87 14 29 64 75 100 100 100 100 100 100 81 94 100 100 100 100 100 100 100 100 100 100 100 89 61 73 87 95 100
100 100 100 100 99 100 100 100 100 100 100 98 32 4 100 100 34 94 27 37 41 70 99 82 100 100 30 100 100 100 100 100 100 100 100 100 100 100 100 100 71 63 100 88
100 100 100 100 100 100 100 100 100 100 100 100 100 95 0 0 2 57 100 100 63 19 5 2 38 75 15 31 100 100 100 100 100 100 100 100 100 100 100 100 100 100 100 100
100 100 100 100 100 100 100 100 100 100 100 100 100 96 84 60 100 100 100 100 86 38 27 4 2 7 62 19 94 100 100 100 100 100 100 100 100 100 100 100 100 100 100 100
100 100 100 100 100 100 100 100 100 100 81 100 85 65 100 100 97 90 61 11 7 25 37 27 10 5 100 97 63 87 100 100 100 100 100 100 100 100 100 100 100 100 100 100
100 100 100 100 100 100 100 100 100 100 100 100 100 89 100 100 100 100 100 100 98 100 74 39 32 5 5 82 48 59 98 100 100 100 100 100 100 100 100 100 100 100 100 100
100 100 100 100 94 100 100 100 98 100 100 100 100 100 100 95 100 100 100 100 72 92 91 56 25 36 9 30 32 60 100 100 100 100 100 100 100 100 100 100 100 100 100 100
100 100 100 94 99 100 100 100 100 100 100 100 100 100 100 100 100 100 100 97 75 30 65 5 5 8 100 99 65 84 100 100 100 100 100 100 100 100 100 100 100 100 100 100
100 100 100 91 100 100 100 100 100 100 100 100 100 100 100 100 100 100 100 99 100 100 100 68 7 35 16 100 100 100 100 100 100 100 100 100 100 100 100 100 100 100 100 100
100 100 100 89 100 100 100 100 100 100 100 100 100 100 100 100 100 100 100 100 92 84 89 100 100 100 90 100 73 100 100 100 100 100 100 100 100 100 100 100 100 100 100 100
100 100 100 100 100 100 100 100 100 100 100 100 100 100 100 100 100 100 100 100 87 77 100 100 100 100 100 100 83 84 100 100 99 100 100 100 100 100 100 100 100 100 100 100
100 100 100 100 100 100 100 100 100 100 100 100 100 100 100 100 100 100 100 96 81 100 100 100 100 98 100 100 100 94 100 100 100 100 100 100 100 100 100 100 100 100 100 100

GFSCGP_prec_cloud_117.txt.gz
Cloud_Cover
5 100 100 100 100 100 100 100 100 100 100 100 29 100 100 100 100 100 100 87 52 13 7 93 26 8 52 84 100 5 62 12 5 26 43 90 100 100 100 100 100 88 26 70
43 0 100 100 100 100 100 99 99 100 100 100 98 88 100 100 100 100 100 100 100 100 100 83 48 54 100 100 100 100 100 45 35 79 100 90 36 58 71 96 100 84 53 89
0 1 56 100 100 100 100 100 100 100 100 100 100 24 77 100 100 99 100 64 89 100 100 100 100 100 100 100 100 100 100 37 75 100 100 80 92 99 100 100 84 100 91 80
0 0 0 37 100 100 100 100 100 100 100 100 100 82 100 97 99 83 100 100 68 5 58 100 100 100 100 100 100 100 100 100 43 61 83 49 46 70 32 29 39 91 65 76
0 7 5 3 4 100 100 100 100 100 100 100 100 89 100 100 100 43 47 100 100 93 5 51 33 98 93 100 100 100 100 97 99 47 34 84 24 19 0 0 25 100 48 73
80 61 92 20 24 80 92 100 100 100 88 100 100 98 100 100 100 98 13 97 100 100 94 60 25 16 48 77 87 92 100 89 100 100 72 86 37 8 0 3 7 96 46 71
0 84 99 100 89 88 83 18 100 100 100 6 100 100 98 100 100 100 80 97 100 100 100 100 94 95 71 63 35 71 100 100 100 100 100 100 87 32 8 6 17 100 100 86
100 2 92 100 100 100 100 100 20 100 100 88 93 78 100 100 100 100 100 100 74 48 80 100 94 24 5 5 21 100 100 100 100 100 100 100 90 46 10 14 13 47 9 75
51 92 94 100 24 75 100 100 26 100 100 100 100 100 100 100 100 35 94 100 100 33 28 92 99 7 5 23 63 100 100 100 100 100 99 100 100 37 10 18 99 92 57 44
88 99 42 57 36 25 99 100 95 100 100 100 100 100 100 100 100 100 100 100 100 100 100 52 65 62 82 100 100 100 100 100 100 100 100 100 100 56 29 46 100 72 68 68
100 100 100 100 100 100 100 100 100 100 100 100 90 100 100 100 100 100 100 100 100 100 93 100 94 97 96 100 99 100 100 100 100 100 100 100 100 92 83 98 100 79 53 93
100 99 100 100 100 100 97 100 100 100 100 100 100 46 100 100 100 100 100 100 100 100 100 100 77 34 100 100 100 100 100 100 100 100 100 100 100 100 100 100 100 95 98 100
100 100 100 97 100 100 93 100 100 100 100 100 100 93 28 100 98 75 100 22 67 93 97 49 24 14 61 100 100 100 100 100 100 100 100 100 100 100 91 100 100 100 100 100
100 99 100 100 100 100 100 96 90 100 100 100 100 100 95 61 84 14 100 40 77 58 24 59 18 21 33 92 100 100 100 100 100 100 100 100 100 97 100 100 100 100 100 100
100 100 100 96 100 100 100 100 100 50 71 96 98 100 88 50 20 10 100 100 98 100 100 80 95 100 100 76 100 100 100 100 100 100 100 100 99 19 100 100 100 100 96 100
100 100 89 88 100 100 100 100 100 100 40 99 16 80 100 35 100 9 72 100 98 100 100 100 100 100 100 49 76 100 100 100 100 100 100 96 87 100 100 100 100 100 100 100
100 100 100 92 100 100 100 100 100 100 100 2 74 90 76 34 30 100 100 90 100 100 82 98 100 100 100 100 59 100 100 100 100 100 100 100 100 100 100 100 100 100 100 100
100 100 100 100 100 100 100 100 100 100 100 100 100 73 47 79 100 100 100 100 100 100 87 8 88 100 100 100 100 100 97 100 100 100 100 100 100 100 100 100 100 100 100 100
100 100 100 100 100 100 100 100 100 100 100 100 100 62 100 76 63 100 100 100 75 100 27 5 5 86 100 100 100 20 14 87 100 100 100 100 100 100 100 100 100 100 100 100
97 100 100 100 100 100 100 92 100 100 100 100 56 99 100 100 65 100 100 85 99 100 14 18 6 12 5 24 75 51 11 66 99 100 100 100 100 100 100 100 100 100 100 100
89 100 100 100 100 100 95 100 100 100 100 100 100 100 100 100 100 100 100 78 100 83 100 89 26 5 4 2 4 5 5 49 82 100 100 100 100 100 100 100 100 100 100 100
100 100 100 100 100 96 100 100 100 100 100 100 100 100 100 100 78 100 100 100 100 100 75 11 5 5 5 0 3 0 17 64 86 100 100 100 100 100 100 100 100 100 100 100
100 100 100 100 100 99 100 100 100 100 100 100 100 100 100 100 100 94 100 100 100 100 59 8 49 63 8 5 5 12 78 100 100 100 100 100 100 100 100 100 100 100 100 100
96 100 100 100 99 100 100 100 100 100 100 100 100 100 100 100 100 100 100 100 100 83 100 100 100 89 5 5 19 52 100 100 100 100 100 100 100 100 100 100 100 100 100 100
91 75 91 93 90 100 100 100 100 100 100 100 100 100 100 100 100 100 100 100 100 100 100 100 100 100 100 93 65 85 100 100 100 100 100 100 100 100 100 100 100 100 100 100
100 100 100 100 100 100 100 100 100 100 100 100 100 100 100 100 100 100 100 100 100 100 100 100 100 100 100 100 100 100 100 100 100 100 100 100 100 100 100 100 100 100 100 100

GFSCGP_prec_cloud_120.txt.gz
Cloud_Cover
0 0 0 0 0 0 57 100 100 100 82 100 100 100 100 100 100 100 100 100 100 100 100 100 98 98 45 74 93 100 9 60 5 25 20 6 12 58 40 100 100 32 60 0
0 0 0 0 0 0 0 100 100 100 100 100 100 95 97 100 62 100 100 100 100 100 100 100 100 100 93 35 21 95 96 13 5 7 42 84 99 94 100 100 100 100 88 1
0 0 0 0 0 0 0 10 100 100 100 100 100 100 5 18 78 95 100 100 100 100 100 100 100 100 100 100 94 100 100 100 76 28 100 100 100 100 97 100 100 100 100 93
0 0 4 5 4 5 0 0 40 100 100 100 100 92 100 86 86 100 100 100 100 100 100 100 100 100 100 100 100 100 100 100 100 100 100 100 100 100 99 100 100 100 100 100
0 0 5 4 4 50 16 0 0 94 99 100 100 98 100 100 100 100 100 100 100 100 100 100 100 94 100 100 100 100 100 100 100 100 100 100 100 100 100 98 27 60 86 55
2 4 22 94 72 55 38 56 29 30 100 99 100 100 100 100 100 100 100 100 100 78 69 90 100 100 79 57 99 100 100 100 100 88 74 96 95 75 27 15 42 11 59 96
4 0 1 82 77 14 58 99 48 84 16 5 100 100 100 100 100 100 100 100 100 100 100 100 98 74 100 100 97 93 70 42 99 82 5 23 36 69 100 6 4 2 92 73
83 0 6 98 78 100 86 83 91 100 91 5 100 77 100 100 100 100 100 100 92 95 100 100 100 100 64 34 91 100 99 6 92 63 51 24 100 97 100 95 40 1 43 100
87 0 9 94 99 100 99 94 62 100 100 98 94 78 94 100 100 100 100 100 100 100 100 100 100 100 100 20 57 17 21 56 73 100 99 100 100 100 100 100 77 58 40 62
46 32 57 100 100 96 100 94 100 100 100 99 70 93 100 100 100 100 100 100 100 100 100 100 100 100 100 75 80 97 100 100 100 100 99 100 100 100 100 100 38 62 73 54
5 25 90 100 100 94 100 100 100 100 39 84 83 94 100 100 100 100 100 100 100 100 100 100 100 100 100 100 100 82 100 100 100 100 100 100 100 100 100 100 94 100 100 82
82 56 100 100 100 100 100 100 97 100 98 100 100 18 100 100 100 100 100 89 92 100 100 100 100 100 100 99 99 100 100 100 100 100 100 100 100 100 100 100 97 100 72 100
56 12 97 100 100 100 96 48 91 34 99 99 23 82 100 100 100 100 100 100 100 100 73 100 95 100 100 100 100 100 100 100 100 100 100 100 100 100 100 100 100 100 94 100
94 54 100 100 100 100 100 100 100 61 23 72 100 5 24 90 100 100 100 100 100 100 100 100 100 100 100 100 100 100 100 100 100 100 100 100 100 100 100 100 100 90 97 100
100 88 62 98 100 100 100 100 100 75 74 8 2 100 99 100 100 100 100 100 100 100 100 100 95 87 66 100 100 100 100 100 100 100 100 100 100 100 100 100 100 99 85 100
65 89 49 20 100 100 100 100 100 100 46 100 64 46 100 78 23 97 100 98 94 100 100 98 100 100 100 8 44 63 73 100 100 100 100 100 100 100 43 100 100 100 100 100
86 100 98 47 100 92 100 100 100 100 64 59 56 100 98 71 85 99 100 100 100 100 100 100 100 100 33 32 60 68 100 100 100 100 100 100 100 100 100 100 100 100 100 100
100 100 83 100 94 100 100 100 100 100 100 100 73 59 49 100 100 100 100 100 100 100 100 100 100 100 75 35 100 100 100 100 100 100 100 100 100 100 99 100 100 100 100 100
100 100 100 100 100 100 100 100 100 100 98 100 100 99 100 96 30 96 100 100 100 100 100 100 64 5 5 6 100 100 100 100 98 100 100 100 100 100 100 100 100 100 100 100
100 100 100 100 100 100 100 100 100 100 100 100 100 100 100 100 99 100 100 100 100 100 100 100 100 5 5 4 11 100 100 100 100 100 100 100 100 100 100 100 100 100 100 100
100 100 100 100 100 100 100 100 100 100 100 100 100 100 100 100 100 100 100 100 100 100 100 100 99 14 5 5 5 100 100 100 100 100 100 82 100 100 100 100 100 100 100 100
99 99 100 100 100 100 100 100 100 100 100 100 100 100 100 100 100 100 100 99 90 100 100 100 66 8 5 5 4 6 95 100 100 100 100 84 82 100 100 100 100 100 100 100
100 98 100 100 100 100 100 100 100 100 100 100 100 100 100 100 100 100 100 93 94 93 100 67 96 6 5 5 5 63 100 100 100 100 100 100 100 100 100 100 100 100 100 100
91 84 100 100 100 100 100 100 100 100 100 100 100 100 100 100 100 100 100 100 100 100 100 100 100 19 7 46 70 100 100 100 100 100 100 100 100 100 100 100 100 100 100 100
99 54 87 100 100 100 99 100 100 100 100 100 100 100 100 100 100 100 100 100 100 100 100 100 94 100 78 84 100 100 100 100 100 100 100 100 100 100 100 100 100 100 100 100
39 91 99 89 100 100 100 100 100 100 100 100 100 100 100 100 100 100 100 100 100 100 100 100 100 100 93 100 100 100 100 100 100 100 100 100 100 100 100 100 100 100 100 100

GFSCGP_prec_cloud_123.txt.gz
Cloud_Cover
3 0 0 0 0 0 0 0 0 0 0 0 0 85 0 5 100 100 94 100 100 98 41 100 100 100 36 85 83 11 5 100 100 20 36 35 5 34 7 43 22 0 47 66
0 0 0 0 0 0 0 0 0 0 0 0 0 83 5 74 77 100 58 76 100 100 98 100 100 82 78 72 100 100 51 100 100 46 8 19 52 19 5 17 96 97 50 99
0 0 0 0 0 0 0 0 0 0 0 0 0 5 9 55 100 100 87 24 98 78 70 100 100 71 97 100 100 100 100 100 75 99 6 25 18 90 62 34 100 100 100 100
0 0 0 0 0 0 0 1 2 0 0 0 0 0 5 54 100 24 5 94 100 100 100 100 100 100 100 100 100 99 100 100 100 100 98 76 93 100 100 100 100 100 100 100
0 0 0 0 0 58 44 0 0 1 0 6 0 0 0 100 100 100 30 49 100 100 100 100 100 100 100 98 76 100 100 100 100 100 100 69 5 100 100 100 100 100 100 100
0 0 0 1 0 10 6 35 0 0 2 94 0 0 0 100 100 100 100 100 100 100 100 100 100 100 100 100 100 100 100 100 100 100 100 100 100 100 100 100 100 100 100 100
0 0 0 0 0 0 3 38 81 46 8 24 3 0 0 100 100 100 100 100 100 100 100 35 5 61 100 100 100 100 100 100 100 100 100 100 100 91 55 98 89 100 81 92
5 6 0 0 13 13 8 36 100 100 73 4 48 0 0 100 100 100 100 100 100 100 100 13 5 11 90 100 100 100 100 100 100 100 100 100 69 7 63 82 97 15 21 92
6 3 0 0 0 100 98 100 100 100 70 23 91 12 0 100 100 100 98 100 79 92 100 100 100 98 69 97 100 100 100 99 100 100 86 74 96 64 43 34 100 98 89 100
39 17 0 0 62 100 100 100 100 83 85 2 56 0 0 100 100 100 100 100 100 94 97 100 100 100 100 100 100 100 64 79 91 100 100 83 100 80 100 100 100 100 100 100
0 1 0 59 73 41 100 100 100 100 100 42 19 0 68 100 100 100 80 100 100 100 100 100 100 100 100 100 100 100 100 100 100 100 100 100 100 100 100 100 100 100 100 100
5 1 2 1 93 62 94 98 100 100 100 70 73 100 100 99 100 100 100 12 98 100 100 100 100 100 100 100 100 100 100 100 100 100 100 100 86 100 100 100 100 100 100 100
31 2 25 10 100 13 98 100 100 100 100 100 0 94 100 100 100 100 100 81 100 100 100 100 100 100 100 100 100 100 100 100 100 100 100 100 100 100 100 100 100 100 100 100
0 4 31 69 90 77 96 100 100 100 100 88 71 100 100 100 100 100 100 100 100 100 100 100 100 100 100 100 100 100 100 100 100 100 100 100 100 100 96 100 100 100 100 100
0 2 0 3 98 67 100 100 100 100 100 92 100 100 100 82 94 100 100 100 100 100 100 100 100 100 100 100 100 100 100 100 100 100 100 100 100 100 100 100 100 100 100 88
0 5 5 4 88 100 100 100 100 100 100 82 67 100 83 100 100 100 100 100 100 100 100 100 100 100 100 100 100 100 100 100 100 100 100 100 100 100 100 100 100 100 100 96
4 67 7 82 100 100 100 100 100 100 100 100 100 100 98 84 95 100 100 100 100 100 100 100 100 100 87 100 100 100 100 100 95 100 100 100 100 100 100 100 100 100 100 100
26 27 97 79 100 100 100 100 100 100 100 100 100 100 100 100 100 100 100 100 100 100 100 100 100 100 100 91 100 100 100 90 100 100 91 100 100 100 100 100 100 100 100 100
37 78 96 78 100 100 100 100 100 100 100 100 100 100 100 100 100 100 100 100 100 100 100 100 100 79 100 100 100 100 100 30 100 100 100 100 100 100 100 100 100 100 100 100
100 100 43 41 100 100 100 100 100 100 100 100 100 100 100 100 100 100 100 100 100 100 100 100 98 93 100 100 100 100 30 49 100 100 100 100 100 100 100 100 100 100 100 100
8 65 12 100 100 100 97 100 100 100 100 100 100 100 100 100 100 100 100 100 100 100 100 100 100 84 82 100 100 86 94 99 100 100 100 100 100 100 100 100 100 100 98 100
51 94 7 100 100 85 73 100 100 100 100 100 100 100 100 100 100 100 100 100 100 100 100 100 98 100 87 57 92 100 100 100 100 100 100 100 100 100 100 99 88 100 100 100
89 74 88 96 100 100 100 100 100 100 100 100 100 100 100 100 100 100 100 100 100 100 100 100 100 94 97 19 98 100 100 100 100 100 100 100 100 100 99 98 100 100 100 100
39 27 93 86 97 100 100 100 100 100 100 100 100 100 100 100 100 100 100 100 100 100 100 100 100 48 80 100 100 100 100 100 100 100 100 100 100 100 100 78 100 100 100 100
12 50 84 47 95 100 100 100 100 100 100 100 100 100 100 100 100 100 100 100 100 100 78 78 87 100 100 100 100 100 100 100 100 100 100 100 100 100 100 100 100 100 100 100
4 69 26 5 99 100 100 100 98 100 100 100 100 100 100 100 100 100 100 100 100 100 100 100 100 100 100 100 100 100 100 100 100 100 100 100 100 100 100 100 100 99 100 100

GFSCGP_prec_cloud_126.txt.gz
Cloud_Cover
13 4 0 0 0 0 0 0 0 0 0 0 0 0 0 0 0 0 0 0 0 4 76 100 100 82 100 95 100 100 100 100 100 100 100 100 100 100 100 100 52 89 6 53
1 18 0 0 0 0 0 0 0 0 0 0 0 0 0 0 0 0 0 0 2 11 74 100 100 98 100 84 100 100 100 100 100 100 100 100 100 96 100 100 100 68 40 72
0 0 0 0 0 0 0 0 0 0 0 0 0 0 0 0 0 0 0 0 53 87 43 100 100 100 100 41 76 100 100 100 100 100 80 38 36 100 100 100 88 51 58 51
0 0 0 0 0 0 0 0 0 0 0 0 0 4 0 0 0 0 0 2 39 98 100 100 100 100 100 93 98 100 100 100 100 100 66 96 100 97 100 100 91 76 83 100
0 0 0 0 0 0 0 0 0 0 0 2 0 13 0 0 0 0 0 96 100 100 100 100 100 100 100 100 100 100 100 98 100 100 100 100 100 77 100 96 100 100 100 100
4 0 0 0 0 0 0 1 0 0 0 83 10 100 0 0 0 0 26 100 100 100 100 100 100 100 41 95 92 100 100 100 100 100 100 100 100 43 97 100 100 100 100 100
0 0 0 0 0 0 0 4 74 9 4 4 4 52 0 0 0 0 100 33 8 100 100 83 56 100 100 89 99 100 100 100 100 100 100 100 100 93 100 100 100 100 100 100
0 0 0 0 0 0 0 100 100 100 100 33 84 18 0 0 0 58 100 6 5 58 8 89 26 40 47 24 98 94 100 100 100 100 100 100 100 100 100 100 100 100 83 97
0 0 0 0 0 0 4 84 98 100 59 100 13 0 0 0 6 97 69 36 40 95 100 90 100 100 88 100 89 100 100 100 100 100 100 100 100 100 100 100 100 100 38 45
1 0 0 0 0 0 80 69 53 88 100 100 84 8 99 94 96 95 26 4 97 100 87 86 98 100 100 100 77 94 98 88 93 100 100 100 100 100 100 100 100 84 100 100
0 2 0 0 0 3 38 91 100 98 100 100 96 100 100 68 7 56 50 15 100 100 100 100 100 100 100 100 99 100 100 100 100 100 100 100 100 100 100 99 31 100 100 100
0 1 2 0 0 1 79 74 100 100 68 94 100 100 100 100 93 98 100 100 100 100 100 100 100 100 100 100 100 100 100 100 100 100 100 100 100 100 100 100 100 100 100 100
0 0 3 0 0 0 5 10 98 94 100 100 100 100 100 100 99 100 100 100 100 100 100 100 100 100 100 100 100 81 87 100 100 100 100 100 100 100 100 100 100 100 100 100
0 1 2 28 2 24 5 98 90 100 100 100 86 100 100 100 96 100 100 100 100 100 100 100 100 100 100 100 100 100 99 100 100 100 100 100 100 100 100 100 100 100 100 100
0 3 2 2 2 50 58 100 100 100 100 100 100 66 100 100 100 100 100 100 100 100 100 100 100 100 100 100 100 100 100 100 100 100 100 100 100 100 100 100 100 100 100 100
0 0 3 0 4 6 93 100 100 100 100 86 100 100 76 100 100 100 100 100 100 100 100 100 100 100 100 100 100 100 100 100 100 100 100 100 100 100 100 100 100 100 100 100
0 4 29 4 2 80 98 98 100 100 100 100 100 100 100 100 100 100 100 100 100 100 100 100 100 100 100 100 100 100 100 100 100 100 100 100 100 100 100 100 100 100 100 100
3 60 87 5 5 47 99 100 100 100 100 100 100 100 100 100 100 100 100 100 100 100 100 100 100 100 100 100 100 100 100 100 100 100 100 100 100 100 100 100 100 100 100 100
75 88 85 98 80 51 100 94 100 100 100 96 100 100 100 100 100 100 100 100 100 100 100 100 100 100 100 100 100 100 100 100 100 100 100 100 100 100 100 100 100 100 100 100
83 5 6 87 59 97 100 100 100 100 100 100 100 100 100 100 100 100 100 100 100 100 100 100 100 100 100 100 100 100 100 100 100 100 100 100 100 100 93 86 100 100 100 100
26 45 62 98 73 100 96 67 100 100 100 100 100 100 100 100 100 100 100 100 100 100 100 100 100 100 41 100 97 100 98 100 100 100 100 100 100 100 87 76 100 100 100 100
30 73 91 10 58 87 33 95 100 100 100 100 100 100 100 100 100 100 100 100 100 100 100 100 100 100 100 100 100 100 100 100 100 100 100 100 100 100 100 52 100 100 100 100
8 5 9 24 23 76 99 100 100 100 100 100 100 100 100 100 100 100 100 100 100 100 100 100 100 100 100 100 100 100 97 100 100 100 100 100 100 100 100 76 100 100 100 100
5 5 5 58 44 99 100 100 100 100 100 100 100 100 100 100 100 100 100 100 100 100 100 100 100 100 100 100 100 100 100 100 100 100 100 100 100 100 100 100 94 100 100 100
4 3 5 23 42 94 100 98 100 100 100 100 100 100 100 100 100 100 100 100 100 100 100 100 100 100 100 100 100 100 100 100 100 100 100 100 100 100 100 100 100 100 100 100
3 5 13 72 48 73 94 71 100 100 100 100 100 100 100 100 100 100 100 100 100 100 100 100 100 100 100 100 97 100 100 100 91 100 100 100 100 100 100 100 100 100 100 100